[[{"header":{"parameterUnit":"m.s-1","parameterCategory":1,"la1":30.6,"la2":29.2853,"lo1":-89.7004,"lo2":-87.6739,"dy":0.0162,"dx":0.0183,"nx":112,"ny":82,"refTime":"2023-03-07T18:00:00:Z","depth":0,"parameterNumber":2,"parameterNumberName":"U-component_of_WINDS"},"data":[0.0,0.0,0.0,0.0,0.0,0.0,0.0,0.0,0.0,0.0,0.0,0.0,0.0,0.0,0.0,0.0,0.0,0.0,0.0,0.0,0.0,0.0,0.0,0.0,0.0,0.0,0.0,0.0,0.0,0.0,0.0,0.0,0.0,0.0,0.0,0.0,0.0,0.0,0.0,0.0,0.0,0.0,0.0,0.0,0.0,0.0,0.0,0.0,0.0,0.0,0.0,0.0,0.0,0.0,0.0,0.0,0.0,0.0,0.0,0.0,0.0,0.0,0.0,0.0,0.0,0.0,0.0,0.0,0.0,0.0,0.0,0.0,0.0,0.0,0.0,0.0,0.0,0.0,0.0,0.0,0.0,0.0,0.0,0.0,0.0,0.0,0.0,0.0,0.0,0.0,1.8775,1.9763,2.107,2.1443,2.0464,1.942,1.8208,1.6874,0.0,0.0,0.0,0.0,0.0,0.0,0.0,0.0,0.0,0.0,0.0,0.0,0.0,0.0,0.0,0.0,0.0,0.0,0.0,0.0,0.0,0.0,0.0,0.0,0.0,0.0,0.0,0.0,0.0,0.0,0.0,0.0,0.0,0.0,0.0,0.0,0.0,0.0,0.0,0.0,0.0,0.0,0.0,0.0,0.0,0.0,0.0,0.0,0.0,0.0,0.0,0.0,0.0,0.0,0.0,0.0,0.0,0.0,0.0,0.0,0.0,0.0,0.0,0.0,0.0,0.0,0.0,0.0,0.0,0.0,0.0,0.0,0.0,0.0,0.0,0.0,0.0,0.0,0.0,0.0,0.0,0.0,0.0,0.0,0.0,0.0,0.0,0.0,0.0,0.0,0.0,0.0,0.0,0.0,0.0,0.0,0.0,0.0,0.0,0.0,0.0,0.0,0.0,0.0,2.1184,2.2752,2.3204,2.2821,2.1405,2.0391,1.8858,1.6729,0.0,0.0,0.0,0.0,0.0,0.0,0.0,0.0,0.0,0.0,0.0,0.0,0.0,0.0,0.0,0.0,0.0,0.0,0.0,0.0,0.0,0.0,0.0,0.0,0.0,0.0,0.0,0.0,0.0,0.0,0.0,0.0,0.0,0.0,0.0,0.0,0.0,0.0,0.0,0.0,0.0,0.0,0.0,0.0,0.0,0.0,0.0,0.0,0.0,0.0,0.0,0.0,0.0,0.0,0.0,0.0,0.0,0.0,0.0,0.0,0.0,0.0,0.0,0.0,0.0,0.0,0.0,0.0,0.0,0.0,0.0,0.0,0.0,0.0,0.0,0.0,0.0,0.0,0.0,0.0,0.0,0.0,0.0,0.0,0.0,0.0,0.0,0.0,0.0,0.0,0.0,0.0,0.0,0.0,0.0,0.0,0.0,0.0,0.0,0.0,0.0,0.0,0.0,2.0306,2.2324,2.3663,2.3445,2.2999,2.2373,2.1294,1.9972,1.8298,1.5991,0.0,0.0,0.0,0.0,0.0,0.0,0.0,0.0,0.0,0.0,0.0,0.0,0.0,0.0,0.0,0.0,0.0,0.0,0.0,0.0,0.0,0.0,0.0,0.0,0.0,0.0,0.0,0.0,0.0,0.0,0.0,0.0,0.0,0.0,0.0,0.0,0.0,0.0,0.0,0.0,0.0,0.0,0.0,0.0,0.0,0.0,0.0,0.0,0.0,0.0,0.0,0.0,0.0,0.0,0.0,0.0,0.0,0.0,0.0,0.0,0.0,0.0,0.0,0.0,0.0,0.0,0.0,0.0,0.0,0.0,0.0,0.0,0.0,0.0,0.0,0.0,0.0,0.0,0.0,0.0,0.0,0.0,0.0,0.0,0.0,0.0,0.0,0.0,0.0,0.0,0.0,0.0,0.0,0.0,0.0,0.0,0.0,0.0,0.0,0.0,0.0,0.0,2.2279,2.307,2.4196,2.3615,2.3231,2.3311,2.1957,2.0552,1.9363,1.677,0.0,0.0,0.0,0.0,0.0,0.0,0.0,0.0,0.0,0.0,0.0,0.0,0.0,0.0,0.0,0.0,0.0,0.0,0.0,0.0,0.0,0.0,0.0,0.0,0.0,0.0,0.0,0.0,0.0,0.0,0.0,0.0,0.0,0.0,0.0,0.0,0.0,0.0,0.0,0.0,0.0,0.0,0.0,0.0,0.0,0.0,0.0,0.0,0.0,0.0,0.0,0.0,0.0,0.0,0.0,0.0,0.0,0.0,0.0,0.0,0.0,0.0,0.0,0.0,0.0,0.0,0.0,0.0,0.0,0.0,0.0,0.0,0.0,0.0,0.0,0.0,0.0,0.0,0.0,0.0,0.0,0.0,0.0,0.0,0.0,0.0,0.0,0.0,0.0,0.0,0.0,0.0,0.0,0.0,0.0,0.0,0.0,0.0,0.0,0.0,0.0,0.0,2.2931,2.3869,2.5103,2.4685,2.4341,2.4403,2.1903,1.9893,1.874,1.5984,0.0,0.0,0.0,0.0,0.0,0.0,0.0,0.0,0.0,0.0,0.0,0.0,0.0,0.0,0.0,0.0,0.0,0.0,0.0,0.0,0.0,0.0,0.0,0.0,0.0,0.0,0.0,0.0,0.0,0.0,0.0,0.0,0.0,0.0,0.0,0.0,0.0,0.0,0.0,0.0,0.0,0.0,0.0,0.0,0.0,0.0,0.0,0.0,0.0,0.0,0.0,0.0,0.0,0.0,0.0,0.0,0.0,0.0,0.0,0.0,0.0,0.0,0.0,0.0,0.0,0.0,0.0,0.0,0.0,0.0,0.0,0.0,0.0,0.0,0.0,0.0,0.0,0.0,0.0,0.0,0.0,0.0,0.0,0.0,0.0,0.0,0.0,0.0,0.0,0.0,0.0,0.0,0.0,0.0,0.0,0.0,0.0,0.0,0.0,0.0,0.0,0.0,2.3859,2.4885,0.0,2.5335,2.4736,2.4838,2.3742,2.1857,1.8954,0.0,0.0,0.0,0.0,0.0,0.0,0.0,0.0,0.0,0.0,0.0,0.0,0.0,0.0,0.0,0.0,0.0,0.0,0.0,0.0,0.0,0.0,0.0,0.0,0.0,0.0,0.0,0.0,0.0,0.0,0.0,0.0,0.0,0.0,0.0,0.0,0.0,0.0,0.0,0.0,0.0,0.0,0.0,0.0,0.0,0.0,0.0,0.0,0.0,0.0,0.0,0.0,0.0,0.0,0.0,0.0,0.0,0.0,0.0,0.0,0.0,0.0,0.0,0.0,0.0,0.0,0.0,0.0,0.0,0.0,0.0,0.0,0.0,0.0,0.0,0.0,0.0,0.0,0.0,0.0,0.0,0.0,0.0,0.0,0.0,0.0,0.0,0.0,0.0,0.0,0.0,0.0,0.0,0.0,0.0,0.0,0.0,0.0,0.0,0.0,0.0,0.0,2.3581,2.4626,2.5696,0.0,2.5856,2.5205,2.5384,2.4844,2.3041,1.9543,0.0,0.0,0.0,0.0,0.0,0.0,0.0,0.0,0.0,0.0,0.0,0.0,0.0,0.0,0.0,0.0,0.0,0.0,0.0,0.0,0.0,0.0,0.0,0.0,0.0,0.0,0.0,0.0,0.0,0.0,0.0,0.0,0.0,0.0,0.0,0.0,0.0,0.0,0.0,0.0,0.0,0.0,0.0,0.0,0.0,0.0,0.0,0.0,0.0,0.0,0.0,0.0,0.0,0.0,0.0,0.0,0.0,0.0,0.0,0.0,0.0,0.0,0.0,0.0,0.0,0.0,0.0,0.0,0.0,0.0,0.0,0.0,0.0,0.0,0.0,0.0,0.0,0.0,0.0,0.0,0.0,0.0,0.0,0.0,0.0,0.0,0.0,0.0,0.0,0.0,0.0,0.0,0.0,0.0,0.0,0.0,0.0,0.0,0.0,0.0,0.0,0.0,2.4078,2.513,2.6088,2.6839,2.6199,2.5871,2.6279,2.487,2.2924,0.0,0.0,0.0,0.0,0.0,0.0,0.0,0.0,0.0,0.0,0.0,0.0,0.0,0.0,0.0,0.0,0.0,0.0,0.0,0.0,0.0,0.0,0.0,0.0,0.0,0.0,0.0,0.0,0.0,0.0,0.0,0.0,0.0,0.0,0.0,0.0,0.0,0.0,0.0,0.0,0.0,0.0,0.0,0.0,0.0,0.0,0.0,0.0,0.0,0.0,0.0,0.0,0.0,0.0,0.0,0.0,0.0,0.0,0.0,0.0,0.0,0.0,0.0,0.0,0.0,0.0,0.0,0.0,0.0,0.0,0.0,0.0,0.0,0.0,0.0,0.0,0.0,0.0,0.0,0.0,0.0,0.0,0.0,0.0,0.0,0.0,0.0,0.0,0.0,0.0,0.0,0.0,0.0,0.0,0.0,0.0,0.0,0.0,0.0,0.0,0.0,0.0,0.0,2.4114,2.5231,2.6357,2.7482,2.6611,2.6128,2.6657,2.6189,2.4913,2.2717,0.0,0.0,0.0,0.0,0.0,0.0,0.0,0.0,0.0,0.0,0.0,0.0,0.0,0.0,0.0,0.0,0.0,0.0,0.0,0.0,0.0,0.0,0.0,0.0,0.0,0.0,0.0,0.0,0.0,0.0,0.0,0.0,0.0,0.0,0.0,0.0,0.0,0.0,0.0,0.0,0.0,0.0,0.0,0.0,0.0,0.0,0.0,0.0,0.0,0.0,0.0,0.0,0.0,0.0,0.0,0.0,0.0,0.0,0.0,0.0,0.0,0.0,0.0,0.0,0.0,0.0,0.0,0.0,0.0,0.0,0.0,0.0,0.0,0.0,0.0,0.0,0.0,0.0,0.0,0.0,0.0,0.0,0.0,0.0,0.0,0.0,0.0,0.0,0.0,0.0,0.0,0.0,0.0,0.0,0.0,0.0,0.0,0.0,0.0,0.0,0.0,0.0,2.5125,2.5982,2.7095,2.8747,2.7608,2.6976,2.7682,2.7414,2.6238,2.392,0.0,0.0,0.0,0.0,0.0,0.0,0.0,0.0,0.0,0.0,0.0,0.0,0.0,0.0,0.0,0.0,0.0,0.0,0.0,0.0,0.0,0.0,0.0,0.0,0.0,0.0,0.0,0.0,0.0,0.0,0.0,0.0,0.0,0.0,0.0,0.0,0.0,0.0,0.0,0.0,0.0,0.0,0.0,0.0,0.0,0.0,0.0,0.0,0.0,0.0,0.0,0.0,0.0,0.0,0.0,0.0,0.0,0.0,0.0,0.0,0.0,0.0,0.0,0.0,0.0,0.0,0.0,0.0,0.0,0.0,0.0,0.0,0.0,0.0,0.0,0.0,0.0,0.0,0.0,0.0,0.0,0.0,0.0,0.0,0.0,0.0,0.0,0.0,0.0,0.0,0.0,0.0,0.0,0.0,0.0,0.0,0.0,0.0,0.0,0.0,0.0,0.0,2.6532,2.7054,2.8047,3.0213,2.893,2.8266,2.9064,2.8497,2.7139,2.4822,0.0,0.0,0.0,0.0,0.0,0.0,0.0,0.0,0.0,0.0,0.0,0.0,0.0,0.0,0.0,0.0,0.0,0.0,0.0,0.0,0.0,0.0,0.0,0.0,0.0,0.0,0.0,0.0,0.0,0.0,0.0,0.0,0.0,0.0,0.0,0.0,0.0,0.0,0.0,0.0,0.0,0.0,0.0,0.0,0.0,0.0,0.0,0.0,0.0,0.0,0.0,0.0,0.0,0.0,0.0,0.0,0.0,0.0,0.0,0.0,0.8845,0.0,0.0,0.0,0.0,0.0,0.0,0.0,0.0,0.0,0.0,0.0,0.0,0.0,0.0,0.0,0.0,0.0,0.0,0.0,0.0,0.0,0.0,0.0,0.0,0.0,0.0,0.0,0.0,0.0,0.0,0.0,0.0,0.0,0.0,0.0,0.0,0.0,0.0,0.0,0.0,0.0,2.5743,2.7184,2.8557,2.9892,2.93,2.9201,3.0203,2.998,2.9388,2.8434,2.6212,0.0,0.0,0.0,0.0,0.0,0.0,0.0,0.0,0.0,0.0,0.0,0.0,0.0,0.0,0.0,0.0,0.0,0.0,0.0,0.0,0.0,0.0,0.0,0.0,0.0,0.0,0.0,0.0,0.0,0.0,0.0,0.0,0.0,0.0,0.0,0.0,0.0,0.0,0.0,0.0,0.0,0.0,0.0,0.0,0.0,0.0,0.0,0.0,0.0,0.0,0.0,0.0,0.0,0.0,0.0,0.0,0.0,0.0,0.0,0.0,0.8738,0.0,0.0,0.0,0.0,0.0,0.0,0.0,0.0,0.0,0.0,0.0,0.0,0.0,0.0,0.0,0.0,0.0,0.0,0.0,0.0,0.0,0.0,0.0,0.0,0.0,0.0,0.0,0.0,0.0,0.0,0.0,0.0,0.0,0.0,0.0,0.0,0.0,0.0,0.0,0.0,2.5705,2.7501,2.908,3.034,3.0112,2.9944,3.0209,3.0077,2.9623,2.8646,2.7405,0.0,0.0,0.0,0.0,0.0,0.0,0.0,0.0,0.0,0.0,0.0,0.0,0.0,0.0,0.0,0.0,0.0,0.0,0.0,0.0,0.0,0.0,0.0,0.0,0.0,0.0,0.0,0.0,0.0,0.0,0.0,0.0,0.0,0.0,0.0,0.0,0.0,0.0,0.0,0.0,0.0,0.0,0.0,0.0,0.0,0.0,0.0,0.0,0.0,0.0,0.0,0.0,0.0,0.3879,0.4047,0.4423,0.4825,0.5532,0.6576,0.8004,0.855,0.85,0.0,0.0,0.0,0.0,0.0,0.0,0.0,0.0,0.0,0.0,0.0,0.0,0.0,0.0,0.0,0.0,0.0,0.0,0.0,0.0,0.0,0.0,0.0,0.0,0.0,1.969,1.9914,0.0,0.0,0.0,0.0,0.0,0.0,0.0,0.0,0.0,0.0,0.0,0.0,2.6075,2.7935,2.9573,3.0936,3.0823,3.0486,3.0082,2.9986,2.939,2.8118,2.833,2.7684,0.0,0.0,0.0,0.0,0.0,0.0,0.0,0.0,0.0,0.0,0.0,0.0,0.0,0.0,0.0,0.0,0.0,0.0,0.0,0.0,0.0,0.0,0.0,0.0,0.0,0.0,0.0,0.0,0.0,0.0,0.0,0.0,0.1036,0.0068,0.0,0.0,0.0,0.0,0.0,0.0,0.0,0.0,0.0,0.0,0.0,0.0,0.0,0.0,0.2176,0.2049,0.2163,0.2557,0.2767,0.3451,0.4514,0.5146,0.5792,0.648,0.7721,0.0,0.791,0.9024,0.0,0.0,0.0,0.0,0.0,0.0,0.0,0.0,0.0,0.0,0.0,0.0,0.0,0.0,0.0,0.0,0.0,0.0,0.0,0.0,0.0,0.0,1.9096,1.9773,1.999,2.0221,0.0,2.1153,2.1259,2.12,0.0,0.0,0.0,0.0,0.0,0.0,0.0,0.0,2.6699,2.8567,3.0031,3.0922,3.0727,3.0683,3.1064,3.093,3.0532,2.981,2.9162,2.8589,2.8025,2.8101,0.0,0.0,0.0,0.0,0.0,0.0,0.0,0.0,0.0,0.0,0.0,0.0,0.0,0.0,0.0,0.0,0.0,0.0,0.0,0.0,0.0,0.0,0.0,0.0,0.0,0.0,0.0,0.0,0.0,0.1239,0.0262,-0.0584,-0.0219,0.0072,0.0,0.0,0.0,0.0,0.0,0.0,0.0,0.0,0.0,0.1849,0.1856,0.1987,0.2212,0.1946,0.2162,0.2808,0.2911,0.3584,0.4726,0.5174,0.5762,0.6495,0.7376,0.7744,0.7772,0.8914,0.9479,0.9654,0.0,0.0,0.0,0.0,0.0,1.1776,1.194,1.2147,0.0,0.0,0.0,0.0,0.0,0.0,0.0,0.0,0.0,0.0,0.0,0.0,0.0,1.976,1.9852,2.0285,2.1742,2.2106,2.2221,0.0,2.3227,2.3308,2.1484,0.0,0.0,0.0,0.0,2.575,2.7287,2.9046,3.0251,3.0562,3.0736,3.0697,3.0365,3.0526,3.0314,2.9474,2.9277,2.8938,2.8386,2.8697,2.7998,0.0,0.0,0.0,0.0,0.0,0.0,0.0,0.0,0.0,0.0,0.0,0.0,0.0,0.0,0.0,0.0,0.0,0.0,0.0,0.0,0.0,0.0,0.0,0.0,0.0,0.0,0.0,0.0,0.0739,-0.0123,-0.0782,-0.0512,-0.038,0.0,0.0,0.0,0.0,0.0,0.0,0.103,0.1077,0.1167,0.1295,0.1445,0.1678,0.2081,0.195,0.2214,0.2911,0.3043,0.3621,0.4636,0.503,0.5634,0.6443,0.705,0.7462,0.7782,0.8745,0.9422,0.9856,0.9967,1.0328,1.0791,1.125,1.1721,1.2181,1.2357,1.2623,1.2829,1.2612,0.0,1.2733,1.2271,0.0,0.0,0.0,0.0,1.7292,1.8236,1.9058,1.9606,1.9563,1.9607,2.0181,2.2049,2.2492,2.2776,0.0,2.4697,2.506,2.345,0.0,0.0,0.0,0.0,2.6778,2.7709,2.9178,3.0114,3.0055,3.0369,3.035,2.9782,3.0058,2.9911,2.9126,2.9259,2.9091,2.8547,2.9195,2.8801,2.7173,0.0,0.0,0.0,0.0,0.0,0.0,0.0,0.0,0.0,0.0,0.0,0.0,0.0,0.0,0.0,0.0,0.0,0.0,0.0,0.0,0.0,0.0,0.0,0.0,0.0,0.0,0.0,0.0,0.0,-0.0407,-0.0452,0.0,0.0,0.0,0.0,-0.0183,-0.0275,0.0031,0.0865,0.0669,0.0937,0.1847,0.1278,0.1107,0.144,0.1512,0.1749,0.215,0.2606,0.3192,0.3881,0.4596,0.5408,0.6259,0.6841,0.7344,0.7754,0.8449,0.88,0.8942,0.9779,1.0195,1.0462,1.1561,1.2091,1.2337,1.2657,1.2781,1.2832,1.3077,1.3412,1.3794,1.3984,1.4438,0.0,0.0,1.6905,1.7786,1.8721,1.906,1.9191,1.9378,1.938,1.9871,2.1884,2.2362,2.2996,0.0,2.5449,2.5208,2.4297,0.0,2.436,2.5114,2.6001,2.692,2.7784,2.8821,2.9421,2.9361,2.9254,2.944,3.0032,2.9918,2.9753,2.9589,2.9332,2.9203,2.9166,2.9384,2.9384,2.9173,2.8888,0.0,0.0,0.0,0.0,0.0,0.0,0.0,0.0,0.0,0.0,0.0,0.0,0.0,0.0,0.0,0.0,0.0,0.0,0.0,0.0,0.0,0.0,0.0,0.0,0.0,0.0,0.0,0.0,-0.066,-0.1041,0.0,-0.1411,-0.1006,-0.0642,-0.0422,-0.0228,-0.0033,0.0168,0.0403,0.0639,0.0976,0.0841,0.094,0.1338,0.1345,0.1581,0.1981,0.2178,0.2507,0.2933,0.3538,0.4205,0.4941,0.5691,0.632,0.6897,0.7481,0.8192,0.8915,0.9345,0.9893,1.0505,1.1306,1.1657,1.1824,1.2405,1.2477,1.2312,1.2538,1.2781,1.3006,1.3217,1.362,1.4209,1.5382,1.6153,1.6915,1.8172,1.8626,1.895,1.9684,1.9899,2.0471,2.2436,2.2557,2.271,2.4177,2.5034,2.5576,2.5834,2.5898,2.6349,2.7676,2.8201,2.8777,2.9609,2.9567,2.9457,2.944,2.9344,2.9135,2.872,2.957,2.9483,2.8013,2.897,2.9213,2.8402,2.8971,2.9052,2.8541,2.7885,2.6981,0.0,0.0,0.0,0.0,0.0,0.0,0.0,0.0,0.0,0.0,0.0,0.0,0.0,0.0,0.0,0.0,0.0,0.0,0.0,0.0,0.0,0.0,0.0,0.0,0.0,0.0,-0.0147,-0.0766,-0.1152,-0.1451,-0.163,-0.1222,-0.093,-0.086,-0.0597,-0.0496,-0.0603,-0.0279,0.0035,0.0311,0.0339,0.061,0.1207,0.1255,0.1494,0.1827,0.1931,0.2111,0.2405,0.2856,0.3501,0.4279,0.4973,0.5736,0.6482,0.6927,0.7647,0.8518,0.9066,0.9727,1.0421,1.1207,1.1542,1.1652,1.2188,1.2277,1.2211,1.2361,1.2595,1.2827,1.305,1.3401,1.3953,1.5019,1.5716,1.6433,1.7652,1.8149,1.857,1.9354,1.9649,2.0192,2.1935,2.2166,2.2412,2.3602,2.4503,2.5335,2.618,2.6638,2.7437,2.9026,2.9128,2.9324,3.0115,2.9523,2.9038,2.9054,2.9273,2.9049,2.805,2.9128,2.9098,2.7274,2.8563,2.8836,2.7592,2.8378,2.8404,2.7471,2.7076,2.6349,2.536,0.0,0.0,0.0,0.0,0.0,0.0,0.0,0.0,0.0,0.0,0.0,0.0,0.0,0.0,0.0,0.0,0.0,0.0,0.0,0.0,0.0,0.0,0.0,0.0336,-0.0119,-0.0556,-0.071,-0.078,-0.1041,-0.1642,-0.1342,-0.1239,-0.1599,-0.1408,-0.133,-0.1408,-0.1275,-0.0877,-0.0073,-0.0278,0.0035,0.0984,0.1181,0.1424,0.1711,0.183,0.205,0.238,0.2676,0.3327,0.4296,0.4833,0.5595,0.6476,0.6816,0.7205,0.7715,0.8958,0.9661,1.0097,1.1219,1.1711,1.1874,1.2014,1.2264,1.2583,1.259,1.296,1.3408,1.3635,1.4011,1.453,1.5137,1.5792,1.6528,1.7304,1.771,1.7992,1.844,1.8579,1.8983,2.027,2.12,2.2148,2.3428,2.3946,2.4443,2.531,2.6276,2.7437,2.8992,2.8631,0.0,2.9198,2.8585,2.8115,2.8192,2.8926,2.9062,2.817,2.8634,2.8545,2.7544,2.819,2.8079,2.6859,2.7699,2.7581,2.6291,2.6745,2.6366,2.5122,0.0,0.0,0.0,0.0,0.0,0.0,0.0,0.0,0.0,0.0,0.0,0.0,0.0,0.0,0.0,0.0,0.0,0.0,0.0,0.0,0.0,0.0,-0.039,-0.027,-0.0411,-0.0624,-0.1019,-0.1133,-0.1278,-0.1609,-0.1517,-0.1528,-0.1746,-0.1599,-0.1566,-0.1685,-0.1742,-0.1513,-0.0949,-0.0559,0.0075,0.0911,0.1158,0.1367,0.1572,0.1677,0.1813,0.1919,0.2413,0.2976,0.3604,0.425,0.4926,0.5658,0.6042,0.6622,0.734,0.8308,0.8775,0.8921,0.9678,1.029,1.078,1.0964,1.1451,1.2083,1.234,1.2704,1.3,1.3104,1.392,1.4868,1.5094,1.6053,1.7142,1.7591,1.7888,1.8254,1.9164,1.9307,1.9685,2.1307,2.1472,2.1625,2.2755,2.321,2.4149,2.6441,2.7281,2.8104,2.9497,2.974,0.0,2.9138,2.8412,2.8029,2.8177,2.7854,2.7773,2.8145,2.8286,2.7873,2.6707,2.8128,2.8503,2.7271,2.8779,2.9001,2.7678,2.669,2.5985,0.0,0.0,0.0,0.0,0.0,0.0,0.0,0.0,0.0,0.0,0.0,0.0,0.0,0.0,0.0,0.0,0.0,0.0,0.0,0.0,0.0,0.0,-0.0692,-0.0683,-0.0509,-0.0593,-0.0774,-0.1111,-0.1145,-0.1211,-0.1444,-0.151,-0.1612,-0.184,-0.1762,-0.1744,-0.187,-0.1877,-0.182,-0.1662,-0.0736,0.0194,0.1093,0.1356,0.1545,0.1694,0.192,0.2062,0.2099,0.2583,0.3031,0.0,0.4017,0.4589,0.5086,0.5692,0.6257,0.0,0.0,0.0,0.0,0.0,0.9694,0.999,1.0435,1.0934,1.1444,1.1997,1.2294,1.2437,1.2733,1.3496,1.4324,1.4699,1.5577,1.6502,1.7011,1.7311,1.7679,1.8505,1.8675,1.909,2.0622,2.098,2.1274,2.2325,2.3052,0.0,2.6057,2.7091,2.8026,2.9147,2.9503,2.9583,2.9398,2.8464,2.7873,2.8061,2.7668,2.7462,2.765,2.7879,0.0,0.0,0.0,2.8858,2.8071,2.8549,0.0,0.0,0.0,2.6771,2.6577,0.0,0.0,0.0,2.505,2.528,0.0,0.0,0.0,0.0,0.0,0.0,0.0,0.0,0.0,0.0,0.0,0.0,0.0,0.0,0.0,0.0,-0.0743,-0.0793,-0.0567,-0.0739,-0.0942,-0.1076,-0.0948,-0.0985,-0.1224,-0.1305,-0.146,-0.1739,-0.1712,-0.1748,-0.1884,0.0,0.0,0.0,0.0,0.0358,0.1348,0.159,0.183,0.2074,0.2379,0.2562,0.264,0.303,0.3339,0.3537,0.4069,0.4453,0.4748,0.5533,0.6071,0.6473,0.7678,0.8444,0.8944,0.9475,0.9586,0.9572,1.035,0.0,0.0,1.164,1.1884,1.1957,1.2484,1.2988,1.3509,1.42,1.4873,1.5521,1.624,1.6568,1.6827,1.7248,1.7394,1.7796,1.9115,2.007,2.0987,2.2117,2.3169,2.406,2.4701,2.6097,2.7399,2.8173,2.8369,2.8714,2.9485,2.8471,2.7715,2.7856,0.0,0.0,2.7211,2.7606,2.7901,2.7907,2.8632,2.9035,2.8965,2.7953,2.7323,2.7126,2.7987,2.8315,2.807,2.8871,2.9159,2.896,2.7352,2.7327,0.0,0.0,0.0,0.0,0.0,0.0,0.0,0.0,0.0,0.0,0.0,0.0,0.0,0.0,0.0,-0.0798,-0.0834,-0.083,-0.0807,-0.0808,-0.0841,-0.0942,-0.0804,-0.079,-0.0898,-0.0902,-0.0951,-0.0994,-0.0957,-0.0985,-0.1119,-0.0888,0.0,-0.0666,-0.0043,0.0558,0.116,0.146,0.1886,0.2387,0.0,0.0,0.2932,0.3593,0.3822,0.3702,0.4181,0.4515,0.4704,0.4953,0.5713,0.685,0.7531,0.8211,0.883,0.8873,0.9291,0.9862,1.0364,1.0884,1.1402,1.1712,1.1979,1.2174,1.2401,1.3302,0.0,1.445,1.5683,1.6998,1.7208,1.7334,1.747,1.7716,1.739,1.7468,1.9125,1.9655,2.0365,2.2177,2.2754,2.3102,2.3542,2.5002,2.6296,2.6874,2.7249,2.7493,2.7542,2.7494,2.7508,2.7647,2.7736,2.8039,2.8694,2.8235,2.7921,2.7978,2.8193,2.8613,2.9279,2.9697,2.9865,2.9765,2.9794,2.9754,2.966,2.9576,2.9532,2.9514,2.8481,2.8334,0.0,0.0,0.0,0.0,0.0,0.0,0.0,0.0,0.0,0.0,0.0,-0.1496,0.0,0.0,-0.1255,-0.1128,-0.1122,-0.1118,-0.1047,-0.0946,-0.0841,-0.0771,-0.0646,-0.0552,-0.0491,-0.0525,-0.0624,-0.0773,-0.0561,-0.0532,-0.0781,-0.0442,-0.0132,0.0084,0.0438,0.0877,0.1385,0.1667,0.2016,0.2504,0.2889,0.3162,0.3331,0.3933,0.4055,0.3765,0.419,0.4372,0.4468,0.494,0.579,0.6834,0.7366,0.7841,0.8349,0.8594,0.8953,0.9416,1.0143,1.0777,1.1314,1.1802,1.2041,1.221,1.2544,1.3272,1.4098,1.4558,1.5367,1.6293,1.7044,1.7137,1.7148,1.7768,1.77,1.7887,1.9254,1.9406,1.9855,2.164,2.1976,2.2134,2.2702,2.375,2.4801,2.5701,2.6408,2.686,2.6916,2.6722,2.6654,2.682,2.6886,2.7299,2.8324,2.8818,2.9148,2.924,2.9272,2.9338,2.9408,2.9743,2.9737,2.9299,2.9167,2.9274,2.9646,2.9455,2.9551,2.9939,2.9457,2.916,0.0,0.0,0.0,0.0,0.0,0.0,0.0,0.0,-0.247,-0.231,-0.2214,-0.2085,-0.1869,-0.1839,-0.1751,-0.1399,-0.1433,-0.1424,-0.1212,-0.1036,-0.0817,-0.0601,-0.0413,-0.0267,-0.0119,-0.0083,-0.021,-0.0404,-0.0086,-0.0,-0.0298,0.0132,0.0485,0.0683,0.0924,0.1277,0.1617,0.1851,0.2152,0.246,0.304,0.3398,0.3578,0.4056,0.4069,0.3776,0.4081,0.4236,0.4331,0.5141,0.5908,0.6598,0.7118,0.7503,0.7897,0.8553,0.8913,0.9172,1.0098,1.078,1.1316,1.1915,1.2207,1.2386,1.2757,1.3248,1.3814,1.4531,1.482,1.5276,1.6627,1.6723,1.6705,1.7548,1.7878,1.8205,1.9092,1.9055,1.9305,2.0774,2.092,2.1029,2.1837,2.2427,2.323,2.4563,2.543,2.6093,2.6405,2.6024,2.5775,2.597,2.6148,2.6612,2.7496,2.8753,2.9629,2.9949,2.9825,2.9636,2.9396,2.9347,2.9022,2.8376,2.8317,2.8504,2.8992,2.9093,2.9438,3.004,3.0132,2.9836,-0.4325,-0.3971,-0.3515,-0.3633,-0.2948,-0.2206,0.0,0.0,-0.194,-0.2089,-0.1878,-0.1721,-0.1856,-0.174,-0.1635,-0.1572,-0.1586,-0.1467,-0.1161,-0.0974,-0.0792,-0.0454,-0.0249,-0.0,0.0293,0.0478,0.0665,0.0883,0.1113,0.1206,0.1156,0.1564,0.1611,0.129,0.1564,0.1609,0.1424,0.17,0.1971,0.2324,0.2812,0.317,0.3442,0.3928,0.3921,0.3642,0.3832,0.4164,0.4599,0.5224,0.5717,0.6124,0.6738,0.7349,0.7982,0.8827,0.9584,1.028,1.0774,1.1391,1.1997,1.2151,1.2623,1.3114,1.2806,1.3453,1.4275,1.4059,1.474,1.5697,1.6604,1.6835,1.6909,1.7219,1.7386,1.7617,1.8079,1.8253,1.8609,1.9687,1.953,1.956,2.0605,2.1086,2.1833,2.3277,2.3799,2.4302,2.5092,2.5322,2.5465,2.556,2.6357,2.7054,2.7392,2.6949,2.7058,2.7961,2.74,2.7728,2.9253,2.9368,2.9366,2.9341,2.9273,2.8903,2.8223,2.8933,2.9317,2.9414,3.018,3.0244,-0.4745,-0.4228,-0.3647,0.0,-0.309,-0.2271,-0.2196,-0.229,-0.2411,-0.2484,-0.258,-0.2629,-0.2566,-0.2392,-0.2125,0.0,-0.179,-0.1702,-0.1258,-0.1064,-0.0833,-0.0479,-0.0257,0.017,0.0786,0.0956,0.0994,0.0991,0.1325,0.1551,0.1555,0.1945,0.2059,0.1834,0.2012,0.1925,0.1658,0.1884,0.2105,0.2188,0.2637,0.2948,0.317,0.3439,0.3575,0.3626,0.3796,0.41,0.4491,0.5053,0.5491,0.5879,0.6313,0.695,0.7704,0.848,0.939,1.0283,1.0677,1.1308,1.1993,1.2102,1.2669,1.3283,1.3228,1.3679,1.4343,1.5071,1.5269,1.5627,1.7241,1.7205,1.6859,1.749,1.7681,1.7806,1.7979,1.787,1.801,1.889,1.8531,1.8353,1.9299,1.9755,2.0281,2.1139,2.2446,2.3501,2.3937,2.4194,2.4611,2.5273,2.5799,2.6377,2.7006,2.6812,2.6918,2.748,2.7746,2.8053,2.8473,2.901,2.8861,2.7957,2.7896,2.7708,2.7342,2.7712,2.814,2.8602,2.9016,2.9334,-0.501,0.0,0.0,-0.3872,-0.3111,-0.2315,-0.2224,-0.2489,-0.275,-0.277,-0.3003,-0.3151,-0.2966,-0.2759,-0.2466,-0.211,-0.2086,-0.205,-0.1734,-0.144,-0.1151,-0.0747,-0.0504,-0.0041,0.0702,0.1029,0.1184,0.1152,0.1585,0.1857,0.1926,0.233,0.2457,0.2324,0.2415,0.2326,0.2016,0.2241,0.2239,0.2099,0.2504,0.2726,0.2812,0.2993,0.322,0.3534,0.3663,0.3924,0.4364,0.4797,0.5236,0.5728,0.6136,0.6761,0.7539,0.8166,0.9076,1.0001,1.0447,1.1132,1.1836,1.1957,1.2663,1.3445,1.3416,1.385,1.4524,1.5529,1.5461,1.551,1.7397,1.7163,1.6605,1.7341,1.7691,1.7798,1.7641,1.7545,1.7646,1.8253,1.7809,1.7623,1.8501,1.8815,1.922,1.9998,2.1409,2.2528,2.284,2.3097,2.3624,2.4678,2.4756,2.5096,2.5966,2.6191,2.6445,2.6915,2.7426,2.7709,2.7796,2.8418,2.8231,2.7125,2.7341,2.7245,2.6801,2.7086,2.7419,2.7773,2.8069,2.8505,0.0,0.0,-0.3536,-0.3208,-0.2514,-0.1942,-0.1994,-0.2315,-0.2621,-0.2696,-0.2707,-0.2748,-0.2802,-0.2528,-0.2381,-0.265,-0.2576,-0.2528,-0.2633,-0.2244,-0.1766,-0.1261,-0.1045,-0.0796,0.0,0.0545,0.1281,0.1739,0.2192,0.246,0.2455,0.2904,0.3084,0.2868,0.2868,0.2732,0.246,0.2595,0.2504,0.2099,0.2504,0.2551,0.2324,0.2595,0.2951,0.3398,0.3262,0.3656,0.4408,0.4535,0.5058,0.5745,0.6293,0.6968,0.7709,0.7989,0.8754,0.9697,1.0157,1.0878,1.1653,1.1774,1.2728,1.3703,1.3163,1.3978,1.5011,1.474,1.4929,1.5465,1.6542,1.645,1.61,1.6451,1.6968,1.7283,1.6754,1.7177,1.7723,1.7819,1.7488,1.7518,1.8624,1.8529,1.892,2.0623,2.0763,2.0958,2.1746,2.2122,2.2708,2.3646,2.3184,2.3159,2.4097,2.4303,2.4797,2.5791,2.5201,2.5638,2.7428,2.7592,2.7719,2.7865,2.8695,2.8357,2.68,2.7659,2.7682,2.6961,2.7809,2.8219,0.0,0.0,-0.3609,-0.3144,-0.2553,-0.2078,-0.2012,-0.2307,-0.2589,-0.2577,-0.2715,-0.28,-0.2687,-0.2721,-0.2674,-0.2416,-0.2534,-0.2511,-0.2174,-0.1903,-0.1622,-0.1358,-0.1083,0.0,0.0,0.0,0.0,0.1452,0.1842,0.2184,0.2485,0.3037,0.3262,0.3084,0.2954,0.2776,0.2504,0.242,0.2241,0.2016,0.2237,0.2237,0.2105,0.2417,0.264,0.2815,0.3081,0.348,0.3965,0.4618,0.514,0.5636,0.611,0.6812,0.7596,0.7774,0.8405,0.9291,0.9799,1.0485,1.1169,1.1394,1.2146,1.3026,1.3266,1.3796,1.4458,1.5211,1.5381,1.5638,1.6565,1.6586,1.6434,1.6647,1.6961,1.717,1.7089,1.6931,1.694,1.7432,1.6908,1.6651,1.7457,1.767,1.8029,1.9029,2.0481,2.1698,2.2315,2.2569,2.2682,2.2638,2.2905,2.3056,2.2976,2.3533,2.415,2.469,2.5131,2.5691,2.6408,2.7153,2.7313,2.6845,2.7864,2.7566,2.5867,2.6845,2.684,2.5984,2.6356,2.6829,0.0,-0.4396,-0.3594,-0.3113,-0.2717,-0.2404,-0.2397,-0.2555,-0.2713,-0.2767,-0.2912,-0.2995,-0.2937,-0.3013,-0.3003,-0.2724,-0.2677,-0.2594,-0.2357,-0.2035,-0.1797,-0.1797,-0.135,-0.0835,0.0,0.0,0.0,0.1452,0.1714,0.2013,0.2532,0.2994,0.3262,0.3214,0.3084,0.2907,0.2679,0.259,0.2429,0.2107,0.2014,0.1907,0.1884,0.2061,0.2239,0.2417,0.2904,0.3344,0.3744,0.453,0.5096,0.5545,0.6116,0.673,0.743,0.7718,0.8275,0.8928,0.9562,1.0154,1.0687,1.1019,1.1702,1.249,1.3129,1.3606,1.4124,1.5198,1.5461,1.5545,1.6031,1.6038,1.5931,1.5989,1.6123,1.6285,1.6423,1.645,1.6586,1.7095,1.6917,1.6867,1.7369,1.7747,1.8125,1.8431,2.0067,2.1453,2.1942,2.215,2.2185,2.196,2.2154,2.2306,2.226,2.2801,2.3386,2.3959,2.4651,2.5097,2.5273,2.6309,2.6668,2.6255,2.7294,2.7159,2.5753,2.6478,2.6364,2.5471,2.5581,2.5925,-0.4803,-0.4017,-0.3417,-0.3095,-0.2905,-0.288,-0.3079,-0.3067,-0.3068,-0.333,-0.3336,-0.3343,0.0,0.0,-0.3312,-0.3552,-0.3059,-0.2751,-0.3149,-0.2557,-0.2153,0.0,0.0,0.0,0.0,0.0,0.0,0.1649,0.0,0.2002,0.2622,0.2851,0.3078,0.3214,0.3176,0.3135,0.2998,0.308,0.2855,0.2282,0.1905,0.168,0.1569,0.1614,0.1794,0.2199,0.2679,0.3208,0.3741,0.4355,0.4966,0.5555,0.6192,0.6742,0.7225,0.7836,0.8222,0.8568,0.9435,0.9894,1.0157,1.0718,1.1376,1.209,1.2761,1.34,1.3983,1.4654,1.5028,1.5194,1.4976,1.4837,1.4673,1.4567,1.4693,1.4839,1.4981,1.5867,1.6729,1.6807,1.7448,1.8068,1.8266,1.8745,1.8994,1.8841,1.9588,2.0297,2.0677,2.095,2.1247,2.1548,2.0977,2.0964,2.1838,2.2109,2.2602,2.3464,2.3689,2.3899,2.4173,2.5115,2.5755,2.6031,2.7018,2.7147,2.6327,2.6572,2.6255,2.5406,2.5456,2.5531,-0.4758,-0.4011,-0.3417,-0.3088,-0.3094,-0.3237,-0.3489,-0.3917,-0.429,-0.4446,-0.4525,-0.4545,0.0,0.0,0.0,-0.3557,-0.3201,0.0,-0.2125,-0.1731,0.0,-0.1057,0.0,-0.0611,-0.0221,-0.0307,0.0,0.0,0.1433,0.1429,0.1788,0.2545,0.3078,0.3214,0.3081,0.2993,0.2856,0.258,0.225,0.1857,0.1762,0.1586,0.1389,0.1524,0.1614,0.1657,0.2544,0.3078,0.3391,0.4268,0.4879,0.5328,0.5777,0.6307,0.6799,0.7328,0.7632,0.7959,0.8691,0.9265,0.9771,1.0443,1.1024,1.1583,1.2513,1.3112,1.3463,1.3671,1.4016,1.4257,1.3819,1.4376,1.5008,1.5092,1.5661,1.629,1.6545,1.6481,1.6599,1.721,1.7626,1.8016,1.8279,1.8489,1.8717,1.8869,1.9339,2.0028,2.0969,2.1242,2.1342,2.1177,2.1572,2.155,2.0787,2.1951,2.2628,2.2422,2.3142,2.3624,2.3756,2.4282,2.4721,2.4973,2.6064,2.6254,2.552,2.6255,2.6179,2.5332,2.5393,2.5441,-0.4622,-0.4032,-0.3611,-0.358,-0.3708,-0.3905,-0.4159,-0.4595,-0.4925,-0.4902,-0.5053,0.0,-0.5312,0.0,0.0,0.0,0.0,0.0,-0.1781,-0.1076,-0.0493,0.0,-0.009,0.0,0.0315,0.0044,0.0218,0.0,0.1127,0.1465,0.2101,0.2462,0.273,0.2921,0.2649,0.2505,0.2501,0.2197,0.1928,0.1712,0.1712,0.1566,0.1299,0.1433,0.1523,0.1523,0.0,0.2812,0.3123,0.3961,0.4535,0.4971,0.5361,0.5782,0.6319,0.6795,0.7077,0.7295,0.7997,0.8473,0.8952,0.974,1.0343,1.0942,1.1832,1.2548,1.2983,1.3083,1.3386,1.3587,1.3094,1.3591,1.4269,1.4464,1.4928,1.5438,1.5891,1.5975,1.6196,1.7122,1.7289,1.7437,1.7867,1.8095,1.8307,1.8475,1.8769,1.9288,2.0135,2.0716,2.0938,2.0595,2.1036,2.1078,2.0447,2.1394,2.2022,2.2073,2.2705,2.3153,2.3405,2.3702,2.4004,2.4318,2.5137,2.5359,2.4974,2.5661,2.5735,2.5253,2.5284,2.535,-0.4517,-0.4135,-0.4025,-0.4336,-0.4526,-0.4678,-0.4932,-0.5258,-0.5422,-0.5225,0.0,-0.5822,-0.6043,-0.5106,-0.4317,-0.433,0.0,-0.2186,-0.1862,-0.0755,0.0178,0.0584,0.045,0.036,0.0539,0.0259,0.0169,0.0467,0.096,0.1673,0.2593,0.2324,0.2281,0.2535,0.2128,0.2012,0.2086,0.1986,0.1843,0.1717,0.1717,0.1552,0.1254,0.1344,0.1433,0.1569,0.0,0.0,0.2946,0.3568,0.414,0.4618,0.4927,0.5361,0.5815,0.6292,0.6542,0.6721,0.7328,0.7644,0.7961,0.8937,0.9671,1.0334,1.1101,1.1895,1.2554,1.2594,1.2855,1.3017,1.2542,1.272,1.309,1.3395,1.3588,1.3859,1.4365,1.4988,1.5732,1.6616,1.6595,1.6639,1.7328,1.7611,1.7814,1.7922,1.8068,1.8369,1.8826,1.9743,2.028,2.005,2.014,2.0259,2.0384,2.0771,2.1278,2.1922,2.2262,2.2634,2.3091,2.3248,2.3486,2.3905,2.4298,2.457,2.4657,2.4987,2.516,2.519,2.519,2.5243,-0.4743,-0.458,-0.4674,-0.4914,-0.5115,-0.5275,-0.5438,-0.6268,0.0,0.0,-0.7123,-0.7433,-0.7117,-0.6114,-0.5177,-0.4651,0.0,0.0,0.0,0.0,-0.0601,0.0,0.0,0.0,0.0,0.0,0.0,0.0,0.0,0.1124,0.1309,0.1684,0.1968,0.2155,0.2158,0.2143,0.2107,0.2114,0.1997,0.1717,0.1363,0.1212,0.1119,0.1164,0.1164,0.1208,0.1703,0.0,0.2773,0.3262,0.388,0.4543,0.4757,0.5145,0.5583,0.5837,0.6177,0.6502,0.6888,0.7172,0.7504,0.8528,0.9384,1.0175,1.0857,1.1584,1.2083,1.1618,1.1787,1.2027,1.1551,1.1996,1.2648,1.3226,1.3827,1.4429,1.4732,1.5045,1.5347,1.567,1.5906,1.6224,1.6944,1.7131,1.7256,1.7475,1.7679,1.7908,1.8133,1.9043,1.9778,2.0141,2.041,2.0416,1.9968,2.0833,2.1233,2.0825,2.1602,2.222,2.2529,2.2721,2.301,2.341,2.3812,2.4155,2.4454,2.4723,2.4947,2.512,2.512,2.5125,-0.5685,-0.5382,-0.527,-0.5312,-0.544,-0.5584,-0.5646,0.0,0.0,0.0,-0.7547,-0.7897,-0.7404,-0.6293,0.0,0.0,0.0,0.0,0.0,0.0,0.0,0.0,0.0,0.0,0.0,0.0,0.0,0.0,0.0,0.1168,0.1565,0.1616,0.1608,0.1474,0.1531,0.1433,0.1232,0.1233,0.1247,0.121,0.121,0.1116,0.0987,0.1075,0.1119,0.1208,0.1478,0.0,0.2375,0.2865,0.3439,0.4052,0.4408,0.4845,0.5285,0.5534,0.5875,0.6257,0.6787,0.7006,0.7244,0.8041,0.883,0.9589,1.009,1.0939,1.1603,1.1219,1.1362,1.1669,1.1626,1.1877,1.2333,1.3068,1.3637,1.4025,1.4306,1.414,1.4104,1.4886,1.5065,1.5383,1.6303,1.6625,1.6795,1.6892,1.7047,1.7256,1.7449,1.7987,1.8508,1.901,1.928,1.9259,1.8794,1.972,2.0225,2.0088,2.0977,2.1672,2.2108,2.2286,2.2574,2.3034,2.3392,2.3751,2.4081,2.4402,2.4663,2.4893,2.4926,2.4953,-0.66,-0.6171,-0.5879,-0.5643,-0.5807,-0.596,-0.5915,-0.6798,0.0,0.0,-0.7673,-0.8011,-0.7404,0.0,-0.5451,0.0,-0.4185,0.0,0.0,0.0,0.0,0.0,0.0,0.0,0.0,0.0,0.0,0.0,0.0,0.0,0.182,0.1542,0.1191,0.0896,0.0898,0.0729,0.0336,0.0223,0.0323,0.0706,0.0951,0.1012,0.09,0.0987,0.112,0.1254,0.1299,0.0,0.0,0.2417,0.2948,0.3565,0.3965,0.4451,0.4902,0.5286,0.5679,0.607,0.6722,0.6976,0.7159,0.7652,0.8276,0.8923,0.9381,1.0238,1.1037,1.0976,1.1183,1.1528,1.1862,1.1963,1.2153,1.2979,1.332,1.3493,1.3674,1.3304,1.3213,1.4209,1.4328,1.46,1.5644,1.6076,1.6306,1.6293,1.6466,1.6625,1.6782,1.6993,1.725,1.7539,1.8036,1.8241,1.7981,1.8767,1.9387,1.9685,2.0447,2.1134,2.1675,2.1836,2.2136,2.2565,2.2919,2.3275,2.366,2.3987,2.4296,2.4598,2.4648,2.4712,-0.6947,-0.6689,-0.6502,-0.6054,-0.6427,-0.682,-0.6657,0.0,-0.7915,-0.7761,-0.8122,-0.822,-0.7443,0.0,0.0,0.0,0.0,-0.4039,0.0,0.0,0.0,0.0,0.0,0.0,0.0,0.0,0.0,0.0,0.0,0.0,0.1047,0.0939,0.0866,0.0896,0.0898,0.0617,0.0056,-0.0381,-0.0262,0.0453,0.0342,0.0516,0.09,0.0809,0.0898,0.1119,0.1119,0.0,0.0,0.2144,0.2591,0.3258,0.3565,0.4008,0.4517,0.4952,0.5489,0.6051,0.6546,0.6966,0.7361,0.7829,0.8128,0.8391,0.9122,0.9727,1.0303,1.0771,1.1039,1.1331,1.1808,1.1976,1.2182,1.3012,1.3226,1.3236,1.3156,1.3366,1.3554,1.3762,1.4045,1.4508,1.5106,1.5424,1.5603,1.568,1.5901,1.6076,1.6076,1.638,1.6477,1.6215,1.7511,1.8436,1.8522,1.9104,1.957,1.9768,2.0227,2.063,2.0991,2.123,2.154,2.1899,2.2286,2.2721,2.3165,2.3494,2.387,2.4246,2.4317,2.4422,-0.8268,-0.7444,-0.6623,-0.637,-0.624,-0.6269,-0.6671,0.0,-0.7552,-0.7903,-0.8372,-0.8495,-0.7627,0.0,0.0,0.0,0.0,0.0,-0.2977,0.0,0.0,0.0,0.0,0.0,0.0,0.0,0.0,0.0,0.0,0.0,0.0778,0.0657,0.0688,0.0896,0.0605,-0.0,-0.0816,-0.0945,-0.0759,-0.0243,-0.0336,-0.014,0.0225,0.018,0.0359,0.0763,0.0806,0.0,0.0,0.1925,0.2373,0.2951,0.3258,0.3801,0.4447,0.4839,0.5439,0.611,0.6646,0.7039,0.7393,0.7875,0.8078,0.8229,0.8944,0.9502,0.9938,1.0421,1.075,1.1089,1.1531,1.1983,1.2464,1.3016,1.2905,1.2749,1.2888,1.2809,1.2826,1.3244,1.3641,1.4116,1.4607,1.4915,1.5187,1.5277,1.5367,1.5513,1.5691,1.5869,1.6058,1.6106,1.6756,1.7199,1.7172,1.7497,1.8064,1.885,1.923,1.9808,2.0632,2.048,2.0539,2.0888,2.1199,2.1623,2.2079,2.2852,2.3455,2.3826,2.3489,2.3621,-0.9331,-0.8321,-0.7297,-0.7011,-0.6699,-0.659,0.0,0.0,-0.7636,-0.8047,-0.8496,-0.8561,-0.7763,0.0,0.0,0.0,0.0,-0.4077,-0.3145,0.0,0.0,0.0,0.0,0.0,0.0,0.0,0.0,0.0,0.0,0.0,0.0,0.0097,0.0102,0.0217,-0.0,-0.0524,-0.1364,-0.1314,-0.1077,-0.0714,-0.0753,-0.0553,-0.018,-0.018,0.0045,0.0494,0.0,0.0,0.0,0.1828,0.2224,0.2639,0.2981,0.3572,0.4314,0.4742,0.5403,0.6118,0.6701,0.7097,0.7407,0.7967,0.8137,0.8268,0.8933,0.9328,0.9709,1.0197,1.0719,1.1129,1.1458,1.2076,1.2627,1.2978,1.2799,1.2656,1.2914,1.275,1.2662,1.3163,1.3544,1.3889,1.4179,1.4501,1.4731,1.4789,1.4891,1.5017,1.5153,1.5334,1.5558,1.5913,1.6103,1.6269,1.6431,1.6491,1.6926,1.7899,1.8355,1.9,1.9851,1.9902,1.9925,2.0076,2.0326,2.0683,2.1162,2.2048,2.2765,2.3364,2.3027,2.3208,-0.9856,-0.9341,-0.8815,-0.8161,-0.8241,-0.8406,0.0,0.0,-0.8432,-0.8244,-0.8404,-0.8393,-0.7734,0.0,0.0,0.0,0.0,0.0,-0.3123,0.0,0.0,0.0,0.0,0.0,0.0,0.0,0.0,0.0,0.0,0.0,0.0,-0.0792,-0.0922,-0.1363,-0.0909,-0.0908,-0.1312,-0.136,-0.119,-0.0808,-0.0868,-0.0672,-0.018,-0.018,0.0045,0.0,0.0,0.0,0.0,0.1806,0.2097,0.2443,0.2775,0.3348,0.4098,0.4694,0.5325,0.5991,0.6689,0.709,0.7419,0.8002,0.8262,0.8521,0.904,0.9249,0.9467,1.0265,1.1065,1.1669,1.1728,1.2175,1.2725,1.2881,1.2978,1.3162,1.3372,1.3505,1.36,1.361,1.381,1.3962,1.3821,1.4046,1.4186,1.401,1.4348,1.4581,1.4419,1.4686,1.4994,1.5266,1.5611,1.6139,1.6934,1.6744,1.6765,1.7098,1.7746,1.8214,1.853,1.9526,1.9916,1.9513,1.9767,2.015,2.0598,2.1019,2.1755,2.2833,2.3133,2.3383,-0.9881,-0.9088,-0.8368,-0.8301,-0.8013,-0.7808,-0.8082,0.0,0.0,-0.8372,-0.855,-0.8551,-0.8138,0.0,0.0,0.0,0.0,0.0,0.0,0.0,0.0,0.0,0.0,0.0,0.0,0.0,0.0,0.0,0.0,0.0,0.0,-0.1225,-0.1226,-0.1409,-0.1279,-0.1358,-0.17,-0.1586,-0.1462,-0.1325,-0.1353,-0.121,-0.0941,-0.0941,0.0,0.0,0.0,0.0,0.0,0.1247,0.1687,0.2242,0.2525,0.3153,0.4014,0.4567,0.5257,0.6021,0.6573,0.7036,0.7467,0.7783,0.8103,0.8474,0.8903,0.9148,0.9401,1.0131,1.0718,1.1226,1.1628,1.2126,1.2578,1.2725,1.2881,1.3027,1.3162,1.321,1.3258,1.3324,1.3515,1.3668,1.3573,1.3763,1.3952,1.3973,1.401,1.415,1.4373,1.4512,1.4686,1.4994,1.513,1.5567,1.6454,1.6337,1.6363,1.6727,1.6775,1.722,1.82,1.8209,1.8467,1.9076,1.8905,1.8977,1.9373,2.0322,2.1147,2.185,2.2691,2.2821,0.0,-0.9586,-0.8935,-0.9039,-0.8665,0.0,0.0,0.0,0.0,0.0,0.0,0.0,0.0,0.0,0.0,0.0,0.0,0.0,0.0,0.0,0.0,0.0,0.0,0.0,0.0,0.0,0.0,0.0,0.0,0.0,0.0,-0.1569,-0.156,-0.1641,-0.151,-0.1583,-0.1864,-0.1771,-0.1703,-0.1614,-0.1658,-0.1524,-0.1299,-0.1299,0.0,0.0,0.0,0.0,0.0,0.0905,0.1439,0.2109,0.2421,0.3064,0.3883,0.4492,0.5239,0.5996,0.6539,0.6967,0.7336,0.7641,0.8103,0.8527,0.885,0.9113,0.9465,0.9888,1.036,1.082,1.1175,1.1778,1.2372,1.2421,1.2676,1.2929,1.2929,1.2988,1.3027,1.2997,1.3228,1.342,1.3314,1.3573,1.3716,1.3773,1.3773,1.3858,1.3988,1.4093,1.428,1.4547,1.4536,1.4846,1.5623,1.5587,1.5734,1.6191,1.604,1.6323,1.7305,1.7447,1.7744,1.8246,1.8331,1.8546,1.8935,1.9906,2.0683,2.1258,2.1971,2.2219,0.0,0.0,0.0,0.0,0.0,0.0,0.0,0.0,0.0,0.0,0.0,0.0,0.0,0.0,0.0,0.0,0.0,0.0,0.0,0.0,0.0,0.0,0.0,0.0,0.0,0.0,0.0,0.0,0.0,0.0,0.0,-0.1928,-0.1884,-0.2018,-0.1792,-0.1703,-0.1839,-0.1973,-0.1884,-0.1657,-0.1748,-0.1661,-0.1349,-0.13,0.0,0.0,0.0,0.0,0.0,0.0781,0.1314,0.2003,0.2502,0.3067,0.377,0.4455,0.514,0.5864,0.648,0.6776,0.6995,0.7659,0.8215,0.8573,0.8752,0.9159,0.9562,0.9562,0.9984,1.047,1.047,1.1276,1.2026,1.2026,1.2421,1.2832,1.2676,1.2783,1.2832,1.2725,1.2949,1.317,1.317,1.342,1.3573,1.3409,1.3621,1.3668,1.3467,1.3621,1.3821,1.3962,1.3999,1.4129,1.4523,1.4716,1.4983,1.5488,1.5427,1.5588,1.6082,1.7088,1.7555,1.7325,1.8096,1.8721,1.9107,1.9625,2.0277,2.1005,2.1046,2.1667,0.0,0.0,0.0,0.0,0.0,0.0,0.0,0.0,0.0,0.0,0.0,0.0,0.0,0.0,0.0,0.0,0.0,0.0,0.0,0.0,0.0,0.0,0.0,0.0,0.0,0.0,0.0,0.0,0.0,0.0,0.0,-0.2237,-0.2192,-0.2237,-0.2281,-0.2239,-0.2109,-0.2154,-0.2152,-0.2146,-0.2018,-0.187,-0.169,-0.1455,0.0,0.0,0.0,0.0,-0.0,0.0361,0.0988,0.1736,0.2317,0.2893,0.3504,0.4383,0.4958,0.5373,0.6215,0.6676,0.7015,0.7664,0.8055,0.8374,0.8699,0.8956,0.9159,0.9413,0.9769,1.0131,1.0249,1.0863,1.1477,1.1477,1.1877,1.2332,1.2382,1.2578,1.2735,1.2735,1.292,1.3113,1.3055,1.3276,1.3467,1.3515,1.3515,1.3573,1.3668,1.3563,1.3563,1.3821,1.3763,1.3752,1.3962,1.4426,1.4696,1.4662,1.4886,1.5334,1.6075,1.6166,1.6904,1.8401,1.8552,1.8805,1.9107,1.8967,1.965,2.1016,2.0948,2.1378,-0.9618,-0.9747,-0.9747,-0.9388,0.0,0.0,0.0,0.0,0.0,0.0,0.0,0.0,0.0,0.0,0.0,0.0,0.0,0.0,0.0,0.0,0.0,0.0,0.0,0.0,0.0,0.0,0.0,0.0,0.0,0.0,0.0,-0.2415,-0.2368,-0.2324,-0.2415,-0.244,-0.2351,-0.2352,-0.2305,-0.2299,-0.208,-0.1927,-0.1761,-0.1507,-0.1374,0.0,0.0,0.0,-0.009,0.0229,0.0921,0.176,0.2221,0.2771,0.343,0.4171,0.4731,0.5263,0.5905,0.649,0.6966,0.7331,0.7635,0.8002,0.8533,0.8692,0.8791,0.9256,0.9562,0.9769,0.994,1.0446,1.0947,1.1065,1.1477,1.1828,1.1927,1.2026,1.2126,1.2076,1.2431,1.2725,1.2666,1.3035,1.3314,1.342,1.342,1.3409,1.3515,1.3467,1.3467,1.3668,1.3488,1.344,1.3668,1.3858,1.415,1.4518,1.4583,1.4911,1.5602,1.5644,1.6479,1.8173,1.8229,1.8326,1.8554,1.8611,1.92,2.0273,2.0279,2.0819,-0.9015,-0.9192,-0.9276,-0.9283,-0.9149,0.0,0.0,0.0,0.0,0.0,0.0,0.0,0.0,0.0,0.0,0.0,0.0,0.0,0.0,0.0,0.0,0.0,0.0,0.0,0.0,0.0,0.0,0.0,0.0,0.0,0.0,-0.2549,-0.2504,-0.2415,-0.2504,-0.2554,-0.2567,-0.2527,-0.2488,-0.2444,-0.2215,-0.1989,-0.1775,-0.1557,-0.1471,0.0,0.0,0.0,-0.0,0.0188,0.0901,0.1891,0.2182,0.2721,0.3456,0.3915,0.4531,0.5245,0.5655,0.6218,0.6789,0.6848,0.7128,0.7515,0.8256,0.8415,0.8527,0.9152,0.9361,0.9413,0.9688,1.0035,1.0379,1.0659,1.1065,1.1377,1.1427,1.1427,1.1427,1.1326,1.1778,1.2175,1.2175,1.2696,1.3074,1.3074,1.3218,1.3324,1.317,1.3276,1.3372,1.3515,1.3296,1.321,1.3478,1.3258,1.3525,1.4422,1.4272,1.4408,1.4989,1.5496,1.6207,1.7156,1.7515,1.7729,1.7798,1.8291,1.8801,1.9329,1.9417,2.0115,-0.8745,-0.8907,-0.9063,-0.8801,-0.8611,0.0,0.0,0.0,0.0,0.0,0.0,0.0,0.0,0.0,0.0,0.0,0.0,0.0,0.0,0.0,0.0,0.0,0.0,0.0,0.0,0.0,0.0,0.0,0.0,0.0,0.0,0.0,-0.2821,-0.2821,-0.2904,-0.2914,-0.2942,-0.2741,-0.2788,-0.304,-0.2737,-0.2407,-0.2041,-0.1809,-0.1543,0.0,0.0,-0.0664,-0.0141,0.019,0.084,0.168,0.2112,0.2728,0.3363,0.3894,0.4309,0.4714,0.54,0.5941,0.6367,0.6661,0.6843,0.709,0.767,0.8096,0.8474,0.8956,0.9159,0.9263,0.9413,0.9681,0.9895,0.9955,1.0411,1.0871,1.0972,1.1175,1.1377,1.1469,1.1569,1.1678,1.1769,1.2274,1.2618,1.255,1.2852,1.3055,1.3055,1.3055,1.3094,1.3266,1.3228,1.319,1.3172,1.319,1.3314,1.36,1.3784,1.4067,1.4565,1.58,1.6191,1.5659,1.7034,1.7616,1.7325,1.7622,1.8172,1.898,1.8882,1.9433,-0.8704,-0.8744,-0.8702,-0.8311,0.0,-0.8089,-0.7319,0.0,0.0,0.0,0.0,0.0,0.0,0.0,0.0,0.0,0.0,0.0,0.0,0.0,0.0,0.0,0.0,0.0,0.0,0.0,0.0,0.0,0.0,0.0,0.0,0.0,-0.322,-0.3258,-0.317,-0.3233,-0.3413,-0.2994,-0.2909,-0.3066,-0.2771,-0.2477,-0.2161,-0.1856,-0.1531,-0.1309,0.0,-0.0571,-0.0,0.0285,0.0988,0.1905,0.2266,0.2779,0.3408,0.4071,0.4415,0.4646,0.5097,0.5449,0.5782,0.6164,0.6544,0.6923,0.7509,0.7889,0.8215,0.8685,0.9047,0.9361,0.9458,0.9621,0.9732,0.9792,1.0007,1.0265,1.0514,1.0616,1.0659,1.0922,1.1074,1.1226,1.1368,1.1778,1.2026,1.1918,1.2323,1.2618,1.252,1.2813,1.3045,1.317,1.318,1.3152,1.3142,1.3152,1.3238,1.3467,1.3905,1.4228,1.4541,1.5089,1.5399,1.5443,1.6235,1.6823,1.7196,1.7616,1.8065,1.8588,1.8701,1.9117,-0.856,-0.8678,-0.8585,-0.7856,0.0,-0.7864,-0.7223,0.0,0.0,0.0,0.0,0.0,0.0,0.0,0.0,0.0,0.0,0.0,0.0,0.0,0.0,0.0,0.0,0.0,0.0,0.0,0.0,0.0,0.0,0.0,0.0,0.0,-0.366,-0.3741,-0.352,-0.3533,-0.383,-0.3266,-0.3021,-0.3054,-0.2782,-0.253,-0.2241,-0.1915,-0.1628,-0.1428,-0.108,-0.0627,-0.0,0.0334,0.1088,0.2022,0.2345,0.2852,0.3481,0.4123,0.4463,0.4688,0.4791,0.5014,0.5352,0.5782,0.6213,0.6701,0.7348,0.7729,0.7996,0.8362,0.8837,0.9361,0.9458,0.9562,0.9673,0.9792,0.9851,1.0007,1.0265,1.0162,1.0162,1.0419,1.0565,1.0718,1.082,1.1226,1.1477,1.1318,1.1778,1.2076,1.2076,1.2471,1.29,1.3132,1.3113,1.3113,1.3132,1.3152,1.321,1.343,1.3999,1.4384,1.4477,1.4429,1.4693,1.5269,1.5545,1.6048,1.6796,1.7354,1.7787,1.7988,1.8305,1.8693,-0.8102,-0.8777,-0.9123,-0.7472,-0.7319,0.0,-0.731,-0.737,0.0,-0.8085,0.0,0.0,0.0,0.0,0.0,0.0,0.0,0.0,0.0,0.0,0.0,0.0,0.0,0.0,0.0,0.0,0.0,0.0,0.0,0.0,0.0,0.0,0.0,-0.4228,-0.4092,-0.3968,-0.3899,-0.3543,-0.3306,-0.3174,-0.2919,-0.2669,-0.2382,-0.2245,-0.1895,-0.1483,-0.1277,-0.0854,-0.03,0.0241,0.0978,0.1756,0.2156,0.2738,0.3414,0.3761,0.4128,0.4519,0.4515,0.4794,0.5179,0.5664,0.5991,0.6372,0.6972,0.7509,0.7925,0.7925,0.8468,0.9061,0.9211,0.9524,0.9799,0.9799,1.0058,1.0265,1.0265,1.0265,1.0265,1.0316,1.0162,1.0051,1.0102,1.0565,1.0922,1.0769,1.1217,1.1628,1.1877,1.2076,1.2372,1.2881,1.2968,1.2968,1.292,1.3094,1.3132,1.2968,1.3641,1.4104,1.4222,1.4525,1.4586,1.4419,1.5175,1.5579,1.5533,1.6271,1.6778,1.7115,1.7352,1.7854,-0.7997,-0.8199,-0.8278,-0.7459,-0.7471,0.0,0.0,-0.7356,-0.7564,0.0,0.0,0.0,0.0,0.0,0.0,0.0,0.0,0.0,0.0,0.0,0.0,0.0,0.0,0.0,0.0,0.0,0.0,0.0,0.0,0.0,0.0,0.0,0.0,-0.4718,-0.4451,-0.4228,-0.4144,-0.3674,-0.3339,-0.3175,-0.2926,-0.27,-0.247,-0.2179,-0.1891,-0.1489,-0.1179,-0.0756,-0.0201,0.0193,0.0929,0.1889,0.2443,0.2975,0.3447,0.3696,0.4002,0.4356,0.4463,0.4684,0.5066,0.5504,0.5887,0.6317,0.6815,0.7252,0.7521,0.7521,0.7883,0.8415,0.8949,0.9316,0.9577,0.9747,0.9903,1.0058,1.0265,1.0162,1.0007,1.011,1.0007,0.9895,0.9895,1.0154,1.0308,1.0257,1.0667,1.1023,1.1124,1.1477,1.1877,1.2224,1.2471,1.2569,1.2529,1.2618,1.2666,1.2774,1.3546,1.3973,1.3952,1.4384,1.4473,1.4102,1.4888,1.521,1.5073,1.5917,1.6491,1.6803,1.7225,1.7666,-0.7943,-0.7958,-0.7981,0.0,0.0,0.0,-0.7503,-0.7593,-0.7759,0.0,0.0,0.0,0.0,0.0,0.0,0.0,0.0,0.0,0.0,0.0,0.0,0.0,0.0,0.0,0.0,0.0,0.0,0.0,0.0,0.0,0.0,0.0,0.0,0.0,-0.4762,-0.4539,-0.4403,-0.3788,-0.3443,-0.3355,-0.3139,-0.2856,-0.2522,-0.2249,-0.1916,-0.1542,-0.1215,-0.0798,-0.0301,0.0095,0.0964,0.2027,0.2534,0.297,0.3294,0.3594,0.3908,0.4249,0.4408,0.4684,0.5066,0.5508,0.5887,0.6213,0.6712,0.7036,0.7203,0.7209,0.7461,0.7883,0.8474,0.889,0.9256,0.942,0.9532,0.9688,0.9999,0.9947,0.9836,0.9895,0.9947,0.9903,0.9799,1.0038,1.0263,1.0308,1.0664,1.0999,1.1157,1.1369,1.1557,1.1886,1.2245,1.2414,1.2234,1.2323,1.2382,1.2431,1.3142,1.3563,1.3621,1.4093,1.4277,1.4061,1.4654,1.498,1.5014,1.5656,1.6188,1.6547,1.6931,1.7295,-0.7856,-0.8184,0.0,0.0,0.0,0.0,0.0,-0.8112,-0.8198,0.0,0.0,0.0,0.0,0.0,0.0,0.0,0.0,0.0,0.0,0.0,0.0,0.0,0.0,0.0,0.0,0.0,0.0,0.0,0.0,0.0,0.0,0.0,0.0,0.0,-0.5116,-0.4893,-0.4618,-0.4005,-0.37,-0.37,-0.3576,-0.3192,-0.2572,-0.2459,-0.213,-0.1699,-0.133,-0.1071,-0.0752,-0.0093,0.0985,0.2209,0.235,0.2633,0.3029,0.3302,0.3746,0.4249,0.4408,0.4739,0.5179,0.5664,0.5887,0.6109,0.6539,0.6864,0.7085,0.6928,0.7198,0.7521,0.767,0.8249,0.8771,0.8778,0.8995,0.9256,0.951,0.9718,0.9769,0.9792,1.0058,1.0213,0.9851,1.0341,1.0825,1.0963,1.132,1.1656,1.2111,1.1747,1.1547,1.1872,1.2443,1.2628,1.2162,1.2332,1.2332,1.1927,1.2335,1.2764,1.317,1.3563,1.3905,1.4165,1.4512,1.4891,1.53,1.5435,1.5736,1.62,1.6362,1.6778,-0.8311,0.0,0.0,0.0,0.0,0.0,0.0,0.0,0.0,0.0,0.0,0.0,0.0,0.0,0.0,0.0,0.0,0.0,0.0,0.0,0.0,0.0,0.0,0.0,0.0,0.0,0.0,0.0,0.0,0.0,0.0,0.0,0.0,0.0,-0.5236,-0.5067,-0.4893,-0.4456,-0.41,-0.3836,-0.3582,-0.32,-0.2716,-0.2663,-0.2284,-0.1699,-0.138,-0.1071,-0.0752,0.0046,0.0582,0.1076,0.1727,0.219,0.257,0.3003,0.3559,0.4079,0.4408,0.4739,0.5183,0.5563,0.5732,0.59,0.6268,0.6485,0.6652,0.6707,0.6928,0.7149,0.7365,0.7628,0.799,0.8521,0.8844,0.9054,0.9138,0.9302,0.9361,0.9271,0.9629,0.9925,0.9821,1.0239,1.0761,1.1214,1.1291,1.1355,1.1627,1.1915,1.2081,1.2069,1.2591,1.2841,1.2422,1.2437,1.2268,1.1796,1.1868,1.2246,1.2871,1.3208,1.3408,1.3419,1.3829,1.4163,1.4404,1.4834,1.5367,1.5925,1.6207,1.6582,-0.8585,0.0,0.0,0.0,0.0,0.0,0.0,0.0,0.0,0.0,0.0,0.0,0.0,0.0,0.0,0.0,0.0,0.0,0.0,0.0,0.0,0.0,0.0,0.0,0.0,0.0,0.0,0.0,0.0,0.0,0.0,0.0,0.0,0.0,-0.528,-0.5062,-0.4849,-0.4631,-0.4324,-0.3976,-0.3757,-0.334,-0.2745,-0.2466,-0.206,-0.1614,-0.1293,-0.102,-0.0673,0.0183,0.0627,0.0805,0.1478,0.2025,0.2417,0.2916,0.3472,0.3965,0.4408,0.4794,0.5069,0.5454,0.5681,0.5845,0.6055,0.6322,0.6544,0.6647,0.6874,0.7095,0.7263,0.7413,0.7676,0.815,0.8421,0.858,0.8725,0.889,0.9047,0.9008,0.9413,0.971,0.971,1.0194,1.0788,1.1355,1.1711,1.1906,1.1758,1.2386,1.2694,1.2323,1.2885,1.3131,1.2787,1.2751,1.2527,1.2028,1.1959,1.2141,1.2598,1.2793,1.2954,1.3058,1.3429,1.3721,1.3936,1.4404,1.4869,1.5289,1.5756,1.6194,0.0,0.0,0.0,0.0,0.0,0.0,0.0,0.0,0.0,0.0,0.0,0.0,0.0,0.0,0.0,0.0,0.0,0.0,0.0,0.0,0.0,0.0,0.0,0.0,0.0,0.0,0.0,0.0,0.0,0.0,0.0,0.0,0.0,-0.5333,-0.5241,-0.5062,-0.4705,-0.4543,-0.4372,0.0,-0.402,-0.353,-0.2645,-0.2096,-0.1691,-0.14,-0.1003,-0.0771,-0.0494,0.036,0.0853,0.112,0.1523,0.1973,0.2457,0.2913,0.331,0.3834,0.4405,0.4739,0.4956,0.5399,0.5622,0.5795,0.595,0.6273,0.6652,0.6701,0.6982,0.7317,0.7311,0.7521,0.7723,0.7723,0.7842,0.8008,0.8262,0.8573,0.8784,0.8956,0.9309,0.9562,0.9614,1.0227,1.088,1.1431,1.2335,1.2857,1.237,1.305,1.3296,1.2741,1.3286,1.3528,1.3213,1.3186,1.3005,1.2588,1.2483,1.2416,1.2348,1.24,1.2608,1.2967,1.3218,1.3478,1.3763,1.3988,1.4269,1.4501,1.5096,1.5623,0.0,0.0,0.0,0.0,0.0,0.0,0.0,0.0,0.0,0.0,0.0,0.0,0.0,0.0,0.0,0.0,0.0,0.0,0.0,0.0,0.0,0.0,0.0,0.0,0.0,0.0,0.0,0.0,0.0,0.0,0.0,0.0,0.0,-0.5328,-0.5241,-0.528,-0.5458,-0.4631,-0.428,0.0,-0.3571,-0.2907,-0.237,-0.2348,-0.1825,-0.0878,-0.062,-0.0141,0.0405,0.0629,0.0809,0.1034,0.1345,0.1617,0.1839,0.244,0.2848,0.3233,0.3704,0.4181,0.4629,0.4853,0.5132,0.5466,0.5736,0.6064,0.6391,0.6766,0.6982,0.7198,0.7515,0.7729,0.7895,0.8055,0.8008,0.7901,0.8008,0.8262,0.8527,0.8685,0.9099,0.9458,0.9562,0.9925,1.0439,1.1224,1.2403,1.3047,1.2546,1.3229,1.3586,1.327,1.3861,1.4127,1.3734,1.3998,1.3821,1.3186,1.3266,1.3134,1.2604,1.2241,1.2274,1.2764,1.2715,1.2949,1.3467,1.3552,1.3789,1.4269,1.4512,1.4823,0.0,0.0,0.0,0.0,0.0,0.0,0.0,0.0,0.0,0.0,0.0,0.0,0.0,0.0,0.0,0.0,0.0,0.0,0.0,0.0,0.0,0.0,0.0,0.0,0.0,0.0,0.0,0.0,0.0,0.0,0.0,-0.6184,-0.5927,-0.5539,-0.5241,-0.5111,-0.5111,-0.4499,-0.4192,-0.41,-0.3442,-0.2862,-0.2281,-0.1918,-0.1369,-0.0676,-0.0235,0.0234,0.0719,0.0719,0.0854,0.1122,0.121,0.1424,0.1724,0.2236,0.2577,0.2883,0.3476,0.3962,0.4353,0.4743,0.5128,0.5517,0.59,0.6228,0.6495,0.6874,0.7139,0.7354,0.7729,0.7895,0.8062,0.8268,0.8215,0.8162,0.8162,0.8315,0.8527,0.8692,0.8949,0.9256,0.9361,0.9817,1.0414,1.106,1.218,1.2857,1.2722,1.3415,1.3921,1.3943,1.4341,1.4563,1.4427,1.46,1.4469,1.3932,1.4014,1.3879,1.3461,1.2828,1.2529,1.2588,1.2529,1.2764,1.3248,1.3276,1.3457,1.3836,1.4129,1.4455,0.0,0.0,0.0,0.0,0.0,0.0,0.0,0.0,0.0,0.0,0.0,0.0,0.0,0.0,0.0,0.0,0.0,0.0,0.0,0.0,0.0,0.0,0.0,0.0,0.0,0.0,0.0,0.0,0.0,0.0,-0.6979,-0.6349,-0.5884,-0.5701,-0.5193,-0.4806,-0.4587,-0.432,-0.4056,-0.3751,-0.3442,-0.2951,-0.2281,-0.1484,-0.0972,-0.0675,0.0047,0.0464,0.0719,0.0719,0.0898,0.1165,0.1119,0.1326,0.166,0.2131,0.2362,0.2651,0.3364,0.3799,0.4076,0.4739,0.5234,0.5622,0.6064,0.6386,0.6652,0.6977,0.7192,0.7413,0.7681,0.7949,0.8162,0.8262,0.8368,0.8474,0.8421,0.8527,0.8633,0.8804,0.8962,0.9061,0.9159,0.9895,1.0507,1.0794,1.1799,1.2631,1.2873,1.3518,1.407,1.435,1.4597,1.4775,1.4911,1.497,1.4945,1.4752,1.4723,1.4642,1.4395,1.3758,1.3221,1.2693,1.2567,1.2686,1.3085,1.3142,1.3276,1.3409,1.3847,1.4176,0.0,0.0,0.0,0.0,0.0,0.0,0.0,0.0,0.0,0.0,0.0,0.0,0.0,0.0,0.0,0.0,0.0,0.0,0.0,0.0,0.0,0.0,0.0,0.0,0.0,0.0,0.0,0.0,0.0,0.0,-0.6833,-0.6289,-0.5739,-0.5231,-0.484,-0.4753,-0.5014,-0.418,-0.3961,-0.426,-0.3258,-0.264,-0.2281,-0.1893,-0.135,-0.0672,-0.0181,0.0316,0.0719,0.09,0.0944,0.0944,0.1165,0.1303,0.1412,0.1912,0.2222,0.2407,0.285,0.3469,0.4021,0.4236,0.4791,0.5407,0.5896,0.6059,0.6218,0.6766,0.6874,0.6869,0.7139,0.7563,0.7931,0.7984,0.8368,0.8692,0.8573,0.8573,0.8679,0.8903,0.9061,0.9159,0.9061,0.9888,1.0515,1.0315,1.16,1.2605,1.2541,1.3312,1.389,1.407,1.4478,1.4647,1.4597,1.4843,1.501,1.5129,1.5226,1.5194,1.4994,1.4914,1.4389,1.3387,1.2809,1.2627,1.2929,1.3027,1.32,1.342,1.3457,1.3658,0.0,0.0,0.0,0.0,0.0,0.0,0.0,0.0,0.0,0.0,0.0,0.0,0.0,0.0,0.0,0.0,0.0,0.0,0.0,0.0,0.0,0.0,0.0,0.0,0.0,0.0,0.0,0.0,0.0,-0.6901,-0.6761,-0.6209,-0.5696,-0.5221,-0.4705,-0.4447,-0.4543,-0.3965,-0.3697,-0.3737,-0.3123,-0.2726,-0.2504,-0.2148,-0.17,-0.1208,-0.0627,-0.0224,0.009,0.0629,0.0899,0.1032,0.121,0.1389,0.1539,0.2106,0.2417,0.2596,0.3118,0.3583,0.4076,0.4457,0.4846,0.5293,0.5837,0.6,0.6109,0.6495,0.6603,0.6598,0.6977,0.7348,0.7605,0.7771,0.8156,0.8434,0.8374,0.8633,0.8896,0.9159,0.9256,0.9309,0.9211,0.9691,1.0091,0.9959,1.1045,1.1947,1.2164,1.2905,1.3467,1.383,1.413,1.43,1.43,1.4656,1.4843,1.4902,1.5079,1.5119,1.5042,1.4743,1.4263,1.371,1.3285,1.3066,1.3027,1.3075,1.3162,1.3266,1.3372,1.3467,0.0,0.0,0.0,0.0,0.0,0.0,0.0,0.0,0.0,0.0,0.0,0.0,0.0,0.0,0.0,0.0,0.0,0.0,0.0,0.0,0.0,0.0,0.0,0.0,0.0,0.0,0.0,0.0,0.0,-0.6713,-0.6575,-0.5947,-0.5439,-0.5094,-0.4552,-0.4192,-0.4064,-0.3748,-0.348,-0.317,-0.3034,-0.286,-0.264,-0.2324,-0.2014,-0.1794,-0.103,-0.0582,-0.0313,0.0359,0.0808,0.112,0.1269,0.1502,0.1748,0.2337,0.2658,0.2939,0.3455,0.3858,0.4187,0.4625,0.4901,0.5124,0.5673,0.5782,0.5837,0.6218,0.6277,0.6332,0.6815,0.7079,0.7295,0.7563,0.7949,0.8221,0.8328,0.8699,0.9061,0.9361,0.9465,0.9465,0.9413,0.9631,0.9868,0.9828,1.0595,1.1325,1.1696,1.2306,1.2889,1.3364,1.3679,1.3918,1.4037,1.4364,1.4597,1.4656,1.4843,1.4923,1.4809,1.4449,1.4081,1.3809,1.3513,1.325,1.3036,1.3085,1.3113,1.3122,1.3266,1.3372,0.0,0.0,0.0,0.0,0.0,0.0,0.0,0.0,0.0,0.0,0.0,0.0,0.0,0.0,0.0,0.0,0.0,0.0,0.0,0.0,0.0,0.0,0.0,0.0,0.0,0.0,0.0,0.0,0.0,-0.6289,-0.6243,-0.5394,-0.4832,-0.4546,-0.4273,-0.4064,-0.3924,-0.3571,-0.3262,-0.299,-0.299,-0.2812,-0.2504,-0.2368,-0.2239,-0.2109,-0.1119,-0.0448,-0.0,0.036,0.0763,0.1123,0.1309,0.1615,0.2016,0.2429,0.2863,0.3303,0.3641,0.4073,0.4463,0.4519,0.468,0.4956,0.5238,0.5238,0.5289,0.5837,0.595,0.59,0.6327,0.6761,0.7192,0.7461,0.7842,0.8328,0.8699,0.891,0.9061,0.9361,0.9577,0.9688,0.9465,0.9907,1.0173,0.9926,1.0438,1.0887,1.1099,1.1591,1.201,1.2355,1.3068,1.3509,1.3566,1.3974,1.4309,1.4469,1.4647,1.4597,1.4261,1.4449,1.4239,1.353,1.3128,1.2938,1.2929,1.3036,1.3075,1.3007,1.3132,1.3208,0.0,0.0,0.0,0.0,0.0,0.0,0.0,0.0,0.0,0.0,0.0,0.0,0.0,0.0,0.0,0.0,0.0,0.0,0.0,0.0,0.0,0.0,0.0,0.0,0.0,0.0,0.0,0.0,0.0,0.0,-0.5577,-0.4961,-0.4456,-0.3991,-0.3884,-0.3773,-0.3571,-0.3442,-0.3265,-0.2951,-0.2951,-0.2729,-0.2368,-0.2284,-0.2062,-0.1794,-0.1344,-0.0985,-0.0717,0.0225,0.0775,0.1074,0.1564,0.1837,0.2087,0.2661,0.3131,0.3573,0.3865,0.4076,0.4356,0.468,0.4739,0.4853,0.5187,0.5352,0.5458,0.5677,0.5841,0.6005,0.6228,0.6544,0.6977,0.7509,0.7783,0.8049,0.858,0.8798,0.891,0.9008,0.9218,0.9375,0.9316,0.9619,0.9797,0.9737,1.0068,1.0439,1.0612,1.1081,1.1534,1.1928,1.2414,1.2823,1.3126,1.3562,1.3821,1.4061,1.3829,1.3691,1.3548,1.3345,1.2967,1.2574,1.2378,1.2495,1.2919,1.2603,1.2529,1.2666,1.2813,1.291,-0.7635,0.0,0.0,0.0,0.0,0.0,0.0,0.0,0.0,0.0,0.0,0.0,0.0,0.0,0.0,0.0,0.0,0.0,0.0,0.0,0.0,0.0,0.0,0.0,0.0,0.0,0.0,0.0,0.0,0.0,-0.4981,-0.465,-0.4239,-0.3698,-0.3669,-0.3559,-0.3324,-0.3328,-0.3173,-0.2821,-0.2776,-0.2595,-0.2284,-0.2107,-0.1884,-0.1569,-0.139,-0.1121,-0.0807,0.009,0.069,0.1096,0.1546,0.1889,0.2159,0.2683,0.3207,0.3678,0.3884,0.4042,0.4249,0.4574,0.4684,0.4746,0.5132,0.5403,0.5622,0.5786,0.595,0.6168,0.6391,0.6712,0.7079,0.7563,0.7723,0.7889,0.8368,0.8586,0.8745,0.8857,0.9061,0.9263,0.9309,0.9517,0.9673,0.9725,0.991,1.0104,1.0272,1.0515,1.0854,1.1254,1.1671,1.2069,1.2422,1.3017,1.3331,1.3459,1.3293,1.3035,1.2668,1.2351,1.2081,1.1788,1.166,1.1913,1.2559,1.2253,1.2204,1.2283,1.2572,1.2771,0.0,0.0,0.0,0.0,0.0,0.0,0.0,0.0,0.0,0.0,0.0,0.0,0.0,0.0,0.0,0.0,0.0,0.0,0.0,0.0,0.0,0.0,0.0,0.0,0.0,0.0,0.0,0.0,0.0,-0.5148,-0.4528,-0.4417,-0.412,-0.3605,-0.3662,-0.3506,-0.3096,-0.3147,-0.2996,-0.2684,-0.2551,-0.2375,-0.2201,-0.1928,-0.1703,-0.1569,-0.1258,-0.0764,-0.018,-0.0045,0.046,0.1101,0.1343,0.1753,0.2338,0.2601,0.3091,0.3616,0.3759,0.3962,0.4193,0.4193,0.447,0.4743,0.5018,0.5348,0.5677,0.6064,0.6282,0.6495,0.682,0.7198,0.7515,0.767,0.7842,0.7955,0.8168,0.8421,0.8679,0.8956,0.9211,0.9413,0.9562,0.9681,0.9851,0.9947,0.9999,0.9999,0.9999,0.9999,1.0058,1.028,1.0849,1.1271,1.1379,1.2366,1.2896,1.2714,1.2954,1.2668,1.1543,1.1743,1.171,1.1276,1.1044,1.1191,1.186,1.2097,1.2068,1.1904,1.2395,1.2725,-0.7514,0.0,0.0,0.0,0.0,0.0,0.0,0.0,0.0,0.0,0.0,0.0,0.0,0.0,0.0,0.0,0.0,0.0,0.0,0.0,0.0,0.0,0.0,0.0,0.0,0.0,0.0,0.0,-0.5455,-0.5125,-0.4537,-0.388,-0.3466,-0.3323,-0.3218,-0.3075,-0.2891,-0.2846,-0.2687,-0.2333,-0.2288,-0.2152,-0.1884,-0.1748,-0.1569,-0.1433,-0.1348,-0.09,-0.018,0.0315,0.0656,0.0894,0.1256,0.16,0.1917,0.2393,0.2994,0.3556,0.3726,0.3962,0.4249,0.4688,0.4849,0.4959,0.5462,0.5791,0.6064,0.6178,0.6445,0.6825,0.7101,0.7359,0.7574,0.7949,0.8115,0.8168,0.8421,0.8639,0.8692,0.8586,0.885,0.9054,0.8883,0.9368,0.974,0.9577,0.9836,0.9999,0.9999,0.9999,1.015,1.0615,1.0832,1.1098,1.1613,1.2041,1.227,1.2214,1.223,1.1952,1.1309,1.1304,1.1178,1.0865,1.0971,1.1073,1.1174,1.1547,1.1895,1.2155,1.2532,1.2776,0.0,0.0,0.0,0.0,0.0,0.0,-0.7146,-0.7381,0.0,0.0,0.0,0.0,0.0,0.0,0.0,0.0,0.0,0.0,0.0,0.0,0.0,0.0,0.0,0.0,0.0,0.0,0.0,-0.5742,-0.5491,-0.5042,-0.4339,-0.3695,-0.3286,-0.3078,-0.3057,-0.2908,-0.2647,-0.2687,-0.251,-0.2109,-0.2109,-0.202,-0.1794,-0.1658,-0.1569,-0.1478,-0.1439,-0.0944,-0.0135,0.0449,0.0747,0.0839,0.1036,0.1312,0.1613,0.1946,0.254,0.3184,0.3444,0.3753,0.4132,0.4684,0.4846,0.5011,0.5462,0.59,0.6223,0.6282,0.6603,0.7036,0.7311,0.7413,0.7628,0.8115,0.8115,0.8162,0.8527,0.858,0.854,0.8586,0.885,0.9054,0.9047,0.9316,0.9532,0.9517,0.9673,0.9836,0.9932,1.0051,1.0291,1.0651,1.0727,1.0913,1.132,1.1584,1.1729,1.1564,1.1628,1.1475,1.0995,1.095,1.0825,1.0624,1.082,1.1047,1.1258,1.1475,1.1735,1.2053,1.2301,1.2557,0.0,0.0,0.0,0.0,0.0,0.0,-0.6894,-0.7109,-0.7276,0.0,0.0,0.0,0.0,0.0,0.0,0.0,0.0,0.0,0.0,0.0,0.0,0.0,0.0,0.0,0.0,-0.6504,-0.6291,-0.5959,-0.546,-0.4832,-0.4058,-0.3733,-0.3335,-0.29,-0.2993,-0.2814,-0.2402,-0.2561,-0.247,-0.2049,-0.2049,-0.1964,-0.1837,-0.1658,-0.1569,-0.1569,-0.1439,-0.0943,-0.0134,0.0449,0.0737,0.0813,0.0813,0.1027,0.1407,0.1506,0.1957,0.2647,0.297,0.3437,0.3907,0.4353,0.468,0.4956,0.5238,0.5727,0.6209,0.6381,0.6761,0.7139,0.7413,0.7521,0.7681,0.8115,0.8115,0.8055,0.8527,0.8427,0.8381,0.8752,0.9008,0.9211,0.9458,0.9361,0.9309,0.9517,0.9562,0.9614,0.971,0.9991,1.0213,1.036,1.0462,1.0565,1.0565,1.0959,1.1091,1.0877,1.1132,1.107,1.0539,1.0661,1.0664,1.0522,1.0667,1.1079,1.1781,1.1718,1.1752,1.1946,1.1977,1.2149,0.0,0.0,0.0,0.0,0.0,0.0,-0.7253,-0.7376,-0.7501,0.0,0.0,0.0,0.0,0.0,0.0,0.0,0.0,0.0,0.0,0.0,0.0,0.0,0.0,0.0,0.0,-0.6656,-0.6283,-0.5578,-0.4794,-0.4285,-0.4178,-0.3565,-0.3105,-0.29,-0.2676,-0.248,-0.2328,-0.2479,-0.2478,-0.242,-0.2249,-0.2117,-0.2012,-0.1612,-0.1389,-0.1344,-0.1394,-0.0944,-0.0135,0.0449,0.0737,0.0813,0.0858,0.1024,0.126,0.1552,0.2053,0.2658,0.3056,0.3455,0.3907,0.4463,0.4688,0.4853,0.5403,0.5723,0.5991,0.6485,0.6761,0.7036,0.7413,0.7681,0.7901,0.8268,0.8321,0.8374,0.8699,0.8699,0.8752,0.891,0.891,0.891,0.8962,0.9256,0.9413,0.9159,0.9413,0.951,0.9361,0.9368,0.9472,0.9621,0.9524,0.9524,0.9621,0.9829,0.9918,0.9866,1.0402,1.0486,1.0105,1.0508,1.0651,1.0522,1.082,1.1209,1.154,1.1896,1.2316,1.2761,1.2431,1.251,0.0,0.0,0.0,-0.7439,0.0,0.0,0.0,-0.7272,-0.7431,0.0,0.0,0.0,0.0,0.0,0.0,0.0,0.0,0.0,0.0,0.0,0.0,0.0,0.0,0.0,0.0,-0.6596,-0.6053,-0.5219,-0.4858,-0.4505,-0.4118,-0.3658,-0.3229,-0.29,-0.2744,-0.2507,-0.2257,-0.2569,-0.2624,-0.2349,-0.2604,-0.2452,-0.1996,-0.1951,-0.1701,-0.1299,-0.1212,-0.0898,-0.0315,0.0225,0.0638,0.0881,0.088,0.1043,0.1223,0.1488,0.19,0.244,0.2913,0.3319,0.3688,0.4245,0.4522,0.4688,0.5018,0.5454,0.5882,0.6431,0.6761,0.7036,0.7311,0.7574,0.7889,0.8215,0.8321,0.8374,0.8639,0.8639,0.8639,0.8857,0.8798,0.8745,0.8956,0.9106,0.9162,0.9099,0.9157,0.9214,0.9314,0.9302,0.9361,0.9465,0.9465,0.9413,0.951,0.9562,0.9562,0.9517,0.9828,0.9955,0.9792,1.0106,1.0279,1.0427,1.082,1.1166,1.1455,1.1662,1.1913,1.214,1.2007,1.2175,0.0,0.0,0.0,0.0,0.0,-0.7235,0.0,0.0,0.0,0.0,0.0,0.0,0.0,0.0,0.0,0.0,0.0,0.0,0.0,0.0,0.0,0.0,0.0,0.0,0.0,-0.6428,-0.5751,-0.4934,-0.5028,-0.4809,-0.405,-0.3764,-0.3392,-0.297,-0.2904,-0.2696,-0.2327,-0.2817,-0.2868,-0.2498,-0.2952,-0.2829,-0.2213,-0.2422,-0.2148,-0.1477,-0.1253,-0.0986,-0.0584,-0.0135,0.0404,0.0945,0.0944,0.1059,0.1232,0.1377,0.1703,0.2225,0.2671,0.3023,0.3413,0.3968,0.4356,0.4629,0.4743,0.5234,0.5832,0.6218,0.6652,0.7031,0.7203,0.7515,0.783,0.8109,0.8221,0.8321,0.858,0.8527,0.8546,0.8878,0.8825,0.8871,0.9249,0.9097,0.9045,0.9334,0.9126,0.9025,0.9309,0.9286,0.9256,0.9354,0.9354,0.9354,0.9354,0.9354,0.9354,0.9316,0.9413,0.951,0.951,0.9629,0.9844,1.0154,1.0629,1.1034,1.1264,1.1344,1.1473,1.1593,1.1538,1.1763,0.0,0.0,0.0,0.0,-0.8363,0.0,0.0,0.0,0.0,0.0,0.0,0.0,0.0,0.0,0.0,0.0,0.0,0.0,0.0,0.0,0.0,0.0,0.0,0.0,0.0,0.0,-0.5491,-0.4865,-0.4616,-0.4346,-0.4022,-0.3524,-0.3204,-0.3072,-0.2845,-0.2749,-0.283,-0.3125,-0.3364,-0.3544,-0.3292,-0.3205,-0.3196,-0.2721,-0.237,-0.219,-0.1921,-0.152,-0.1075,-0.0761,-0.009,0.0764,0.0986,0.1149,0.1285,0.1422,0.1695,0.197,0.2331,0.2655,0.3072,0.363,0.4291,0.4901,0.5014,0.5344,0.5673,0.5946,0.6273,0.6598,0.7031,0.7509,0.7931,0.8162,0.8374,0.858,0.8745,0.8692,0.8758,0.9302,0.9412,0.9467,0.9624,0.9624,0.9729,1.0044,0.959,0.924,0.917,0.8756,0.8527,0.8527,0.8527,0.8527,0.8527,0.8527,0.8633,0.8857,0.9113,0.9263,0.9263,0.9361,0.9517,0.9666,1.0431,1.078,1.0783,1.1427,1.2051,1.2625,1.1997,1.2007,0.0,0.0,0.0,0.0,0.0,0.0,-0.8495,0.0,-0.7739,0.0,0.0,0.0,0.0,0.0,0.0,0.0,0.0,0.0,0.0,0.0,0.0,0.0,0.0,0.0,0.0,0.0,0.0,0.0,0.0,-0.4477,-0.4228,-0.3726,-0.3348,-0.3171,-0.301,-0.2907,-0.29,-0.3606,-0.3923,-0.388,-0.3987,-0.3849,-0.3439,-0.3137,-0.2726,-0.2188,-0.2144,-0.1967,-0.1703,-0.1164,-0.0627,-0.009,0.0313,0.078,0.1282,0.1485,0.1694,0.1906,0.2163,0.254,0.2997,0.3776,0.4356,0.4849,0.5128,0.5462,0.5736,0.5845,0.6223,0.6598,0.681,0.7192,0.7568,0.7568,0.7783,0.8049,0.8256,0.8489,0.8915,0.9487,0.957,0.9632,0.9918,1.0003,1.0108,1.0359,0.9874,0.9459,0.9579,0.903,0.8586,0.8527,0.8521,0.8521,0.8521,0.8521,0.858,0.8804,0.9061,0.9211,0.9211,0.9316,0.9413,0.9361,0.9858,1.0325,1.0756,1.097,1.1547,1.2431,1.1935,1.1908,-1.0728,0.0,0.0,0.0,0.0,0.0,0.0,0.0,0.0,0.0,0.0,0.0,0.0,0.0,0.0,0.0,0.0,0.0,0.0,0.0,0.0,0.0,0.0,0.0,0.0,0.0,0.0,-0.5208,-0.4938,-0.4697,-0.4488,-0.4003,-0.3599,-0.3319,-0.3212,-0.3138,-0.3134,-0.3807,-0.4147,-0.4125,-0.4337,-0.4177,-0.3658,-0.348,-0.3093,-0.2502,-0.2591,-0.2506,-0.2286,-0.1611,-0.1118,-0.0716,-0.0268,0.0274,0.0933,0.1314,0.1594,0.1832,0.2066,0.2503,0.3103,0.4036,0.4522,0.4798,0.5187,0.5517,0.5795,0.5795,0.6168,0.6598,0.6647,0.6982,0.7257,0.7192,0.7408,0.767,0.7824,0.8251,0.8843,0.9398,0.9528,0.9602,1.0107,1.0129,1.0179,1.0481,0.9966,0.9597,0.9811,0.9221,0.8692,0.8626,0.8626,0.8626,0.8626,0.8626,0.8685,0.8857,0.9061,0.9106,0.9047,0.9159,0.9159,0.9047,0.9499,1.0038,1.0562,1.0685,1.1154,1.1991,1.176,1.1828,0.0,0.0,0.0,-1.1145,0.0,0.0,0.0,0.0,-0.8011,0.0,0.0,0.0,0.0,0.0,0.0,0.0,0.0,0.0,0.0,0.0,0.0,0.0,0.0,0.0,0.0,0.0,0.0,-0.543,-0.5147,-0.4916,-0.4711,-0.4252,-0.3852,-0.3595,-0.3402,-0.341,-0.3672,-0.3639,-0.3872,-0.4366,-0.393,-0.3842,-0.4049,-0.3679,-0.3528,-0.3534,-0.3398,-0.3176,-0.2821,-0.2235,-0.1564,-0.094,-0.0537,-0.0224,0.0134,0.0851,0.1381,0.1719,0.2003,0.2654,0.3526,0.4419,0.4794,0.4956,0.5242,0.5517,0.5795,0.5795,0.6014,0.6282,0.6598,0.6923,0.7133,0.7289,0.7605,0.7871,0.7717,0.8044,0.8453,0.9004,0.9295,0.955,1.0084,0.9946,0.9855,1.0336,0.9883,0.9577,0.9694,0.9086,0.8626,0.8626,0.8626,0.8626,0.8626,0.8626,0.8732,0.8956,0.9008,0.8903,0.8626,0.8745,0.8745,0.8626,0.9667,1.0111,1.0014,1.0918,1.1427,1.1536,1.1528,1.1728,0.0,0.0,-1.2906,-1.2446,0.0,0.0,0.0,0.0,0.0,0.0,0.0,0.0,0.0,0.0,0.0,0.0,0.0,0.0,0.0,0.0,0.0,0.0,0.0,0.0,0.0,0.0,0.0,-0.5748,-0.5442,-0.514,0.0,-0.4816,-0.45,-0.3884,-0.3899,-0.3839,-0.3705,-0.3836,-0.4077,-0.4392,-0.4205,-0.4074,-0.4009,-0.358,-0.339,-0.3442,-0.3214,-0.3081,-0.2904,-0.2413,-0.1923,-0.1478,-0.1119,-0.0626,-0.0045,0.0716,0.1175,0.1568,0.2477,0.311,0.3682,0.4361,0.4849,0.5183,0.5297,0.5517,0.5795,0.5795,0.6014,0.6282,0.6598,0.6815,0.6982,0.6918,0.7025,0.7128,0.7182,0.7538,0.7998,0.8552,0.8633,0.8814,0.9379,0.9186,0.9323,1.0286,1.0222,1.0024,0.9756,0.9419,0.9065,0.8646,0.8626,0.8633,0.8745,0.8896,0.9054,0.9113,0.9211,0.9204,0.9152,0.9152,0.9159,0.9001,0.952,0.9888,1.0146,1.0486,1.0892,1.1217,1.1124,1.1477,-1.3853,-1.3938,0.0,-1.301,-1.2661,0.0,-1.1397,0.0,0.0,0.0,0.0,0.0,0.0,0.0,0.0,0.0,0.0,0.0,0.0,0.0,0.0,0.0,0.0,0.0,0.0,0.0,-0.6189,-0.5918,-0.5528,-0.5205,0.0,0.0,-0.4674,-0.4171,-0.4007,-0.3899,-0.3798,-0.3865,-0.4038,-0.4327,-0.4061,-0.3934,-0.3866,-0.3428,-0.3268,-0.3367,-0.3105,-0.299,-0.2948,-0.2546,-0.2148,-0.1794,-0.1523,-0.103,-0.0403,0.0358,0.113,0.1896,0.271,0.3246,0.3682,0.4197,0.4739,0.5183,0.5242,0.5517,0.5795,0.5795,0.6009,0.6337,0.6712,0.682,0.6874,0.6869,0.6815,0.6761,0.6804,0.7102,0.747,0.7877,0.7935,0.8076,0.8538,0.8476,0.8784,1.0002,1.01,0.9937,0.9742,0.9425,0.9065,0.8646,0.8626,0.8633,0.8804,0.9061,0.9211,0.9211,0.942,0.9472,0.9309,0.9413,0.9361,0.9211,0.9524,0.9777,0.9984,1.0205,1.047,1.0761,1.0769,1.1116]},{"header":{"parameterUnit":"m.s-1","parameterCategory":1,"la1":30.6,"la2":29.2853,"lo1":-89.7004,"lo2":-87.6739,"dy":0.0162,"dx":0.0183,"nx":112,"ny":82,"refTime":"2023-03-07T18:00:00:Z","depth":0,"parameterNumber":3,"parameterNumberName":"V-component_of_WINDS"},"data":[0.0,0.0,0.0,0.0,0.0,0.0,0.0,0.0,0.0,0.0,0.0,0.0,0.0,0.0,0.0,0.0,0.0,0.0,0.0,0.0,0.0,0.0,0.0,0.0,0.0,0.0,0.0,0.0,0.0,0.0,0.0,0.0,0.0,0.0,0.0,0.0,0.0,0.0,0.0,0.0,0.0,0.0,0.0,0.0,0.0,0.0,0.0,0.0,0.0,0.0,0.0,0.0,0.0,0.0,0.0,0.0,0.0,0.0,0.0,0.0,0.0,0.0,0.0,0.0,0.0,0.0,0.0,0.0,0.0,0.0,0.0,0.0,0.0,0.0,0.0,0.0,0.0,0.0,0.0,0.0,0.0,0.0,0.0,0.0,0.0,0.0,0.0,0.0,0.0,0.0,1.7895,2.0826,2.2893,2.4344,2.5047,2.4856,2.5061,2.586,0.0,0.0,0.0,0.0,0.0,0.0,0.0,0.0,0.0,0.0,0.0,0.0,0.0,0.0,0.0,0.0,0.0,0.0,0.0,0.0,0.0,0.0,0.0,0.0,0.0,0.0,0.0,0.0,0.0,0.0,0.0,0.0,0.0,0.0,0.0,0.0,0.0,0.0,0.0,0.0,0.0,0.0,0.0,0.0,0.0,0.0,0.0,0.0,0.0,0.0,0.0,0.0,0.0,0.0,0.0,0.0,0.0,0.0,0.0,0.0,0.0,0.0,0.0,0.0,0.0,0.0,0.0,0.0,0.0,0.0,0.0,0.0,0.0,0.0,0.0,0.0,0.0,0.0,0.0,0.0,0.0,0.0,0.0,0.0,0.0,0.0,0.0,0.0,0.0,0.0,0.0,0.0,0.0,0.0,0.0,0.0,0.0,0.0,0.0,0.0,0.0,0.0,0.0,0.0,1.9668,2.2851,2.4346,2.5235,2.551,2.5181,2.5601,2.6902,0.0,0.0,0.0,0.0,0.0,0.0,0.0,0.0,0.0,0.0,0.0,0.0,0.0,0.0,0.0,0.0,0.0,0.0,0.0,0.0,0.0,0.0,0.0,0.0,0.0,0.0,0.0,0.0,0.0,0.0,0.0,0.0,0.0,0.0,0.0,0.0,0.0,0.0,0.0,0.0,0.0,0.0,0.0,0.0,0.0,0.0,0.0,0.0,0.0,0.0,0.0,0.0,0.0,0.0,0.0,0.0,0.0,0.0,0.0,0.0,0.0,0.0,0.0,0.0,0.0,0.0,0.0,0.0,0.0,0.0,0.0,0.0,0.0,0.0,0.0,0.0,0.0,0.0,0.0,0.0,0.0,0.0,0.0,0.0,0.0,0.0,0.0,0.0,0.0,0.0,0.0,0.0,0.0,0.0,0.0,0.0,0.0,0.0,0.0,0.0,0.0,0.0,0.0,1.8283,2.0908,2.3152,2.4278,2.5099,2.5737,2.5603,2.5911,2.7001,2.559,0.0,0.0,0.0,0.0,0.0,0.0,0.0,0.0,0.0,0.0,0.0,0.0,0.0,0.0,0.0,0.0,0.0,0.0,0.0,0.0,0.0,0.0,0.0,0.0,0.0,0.0,0.0,0.0,0.0,0.0,0.0,0.0,0.0,0.0,0.0,0.0,0.0,0.0,0.0,0.0,0.0,0.0,0.0,0.0,0.0,0.0,0.0,0.0,0.0,0.0,0.0,0.0,0.0,0.0,0.0,0.0,0.0,0.0,0.0,0.0,0.0,0.0,0.0,0.0,0.0,0.0,0.0,0.0,0.0,0.0,0.0,0.0,0.0,0.0,0.0,0.0,0.0,0.0,0.0,0.0,0.0,0.0,0.0,0.0,0.0,0.0,0.0,0.0,0.0,0.0,0.0,0.0,0.0,0.0,0.0,0.0,0.0,0.0,0.0,0.0,0.0,0.0,2.0149,2.1797,2.3163,2.403,2.4912,2.6003,2.5708,2.5953,2.7021,2.5579,0.0,0.0,0.0,0.0,0.0,0.0,0.0,0.0,0.0,0.0,0.0,0.0,0.0,0.0,0.0,0.0,0.0,0.0,0.0,0.0,0.0,0.0,0.0,0.0,0.0,0.0,0.0,0.0,0.0,0.0,0.0,0.0,0.0,0.0,0.0,0.0,0.0,0.0,0.0,0.0,0.0,0.0,0.0,0.0,0.0,0.0,0.0,0.0,0.0,0.0,0.0,0.0,0.0,0.0,0.0,0.0,0.0,0.0,0.0,0.0,0.0,0.0,0.0,0.0,0.0,0.0,0.0,0.0,0.0,0.0,0.0,0.0,0.0,0.0,0.0,0.0,0.0,0.0,0.0,0.0,0.0,0.0,0.0,0.0,0.0,0.0,0.0,0.0,0.0,0.0,0.0,0.0,0.0,0.0,0.0,0.0,0.0,0.0,0.0,0.0,0.0,0.0,2.0738,2.2258,2.3512,2.4258,2.5096,2.6169,2.542,2.5577,2.7267,2.5456,0.0,0.0,0.0,0.0,0.0,0.0,0.0,0.0,0.0,0.0,0.0,0.0,0.0,0.0,0.0,0.0,0.0,0.0,0.0,0.0,0.0,0.0,0.0,0.0,0.0,0.0,0.0,0.0,0.0,0.0,0.0,0.0,0.0,0.0,0.0,0.0,0.0,0.0,0.0,0.0,0.0,0.0,0.0,0.0,0.0,0.0,0.0,0.0,0.0,0.0,0.0,0.0,0.0,0.0,0.0,0.0,0.0,0.0,0.0,0.0,0.0,0.0,0.0,0.0,0.0,0.0,0.0,0.0,0.0,0.0,0.0,0.0,0.0,0.0,0.0,0.0,0.0,0.0,0.0,0.0,0.0,0.0,0.0,0.0,0.0,0.0,0.0,0.0,0.0,0.0,0.0,0.0,0.0,0.0,0.0,0.0,0.0,0.0,0.0,0.0,0.0,0.0,1.9756,2.1537,0.0,2.4148,2.4844,2.5946,2.5796,2.5819,2.6329,0.0,0.0,0.0,0.0,0.0,0.0,0.0,0.0,0.0,0.0,0.0,0.0,0.0,0.0,0.0,0.0,0.0,0.0,0.0,0.0,0.0,0.0,0.0,0.0,0.0,0.0,0.0,0.0,0.0,0.0,0.0,0.0,0.0,0.0,0.0,0.0,0.0,0.0,0.0,0.0,0.0,0.0,0.0,0.0,0.0,0.0,0.0,0.0,0.0,0.0,0.0,0.0,0.0,0.0,0.0,0.0,0.0,0.0,0.0,0.0,0.0,0.0,0.0,0.0,0.0,0.0,0.0,0.0,0.0,0.0,0.0,0.0,0.0,0.0,0.0,0.0,0.0,0.0,0.0,0.0,0.0,0.0,0.0,0.0,0.0,0.0,0.0,0.0,0.0,0.0,0.0,0.0,0.0,0.0,0.0,0.0,0.0,0.0,0.0,0.0,0.0,0.0,1.7054,1.8726,2.0531,0.0,2.3589,2.434,2.5384,2.5614,2.5589,2.5354,0.0,0.0,0.0,0.0,0.0,0.0,0.0,0.0,0.0,0.0,0.0,0.0,0.0,0.0,0.0,0.0,0.0,0.0,0.0,0.0,0.0,0.0,0.0,0.0,0.0,0.0,0.0,0.0,0.0,0.0,0.0,0.0,0.0,0.0,0.0,0.0,0.0,0.0,0.0,0.0,0.0,0.0,0.0,0.0,0.0,0.0,0.0,0.0,0.0,0.0,0.0,0.0,0.0,0.0,0.0,0.0,0.0,0.0,0.0,0.0,0.0,0.0,0.0,0.0,0.0,0.0,0.0,0.0,0.0,0.0,0.0,0.0,0.0,0.0,0.0,0.0,0.0,0.0,0.0,0.0,0.0,0.0,0.0,0.0,0.0,0.0,0.0,0.0,0.0,0.0,0.0,0.0,0.0,0.0,0.0,0.0,0.0,0.0,0.0,0.0,0.0,0.0,1.6241,1.7843,1.9481,2.1541,2.2674,2.3602,2.4399,2.4654,2.469,0.0,0.0,0.0,0.0,0.0,0.0,0.0,0.0,0.0,0.0,0.0,0.0,0.0,0.0,0.0,0.0,0.0,0.0,0.0,0.0,0.0,0.0,0.0,0.0,0.0,0.0,0.0,0.0,0.0,0.0,0.0,0.0,0.0,0.0,0.0,0.0,0.0,0.0,0.0,0.0,0.0,0.0,0.0,0.0,0.0,0.0,0.0,0.0,0.0,0.0,0.0,0.0,0.0,0.0,0.0,0.0,0.0,0.0,0.0,0.0,0.0,0.0,0.0,0.0,0.0,0.0,0.0,0.0,0.0,0.0,0.0,0.0,0.0,0.0,0.0,0.0,0.0,0.0,0.0,0.0,0.0,0.0,0.0,0.0,0.0,0.0,0.0,0.0,0.0,0.0,0.0,0.0,0.0,0.0,0.0,0.0,0.0,0.0,0.0,0.0,0.0,0.0,0.0,1.4777,1.6229,1.803,2.0616,2.1262,2.2217,2.3897,2.4209,2.4164,2.3731,0.0,0.0,0.0,0.0,0.0,0.0,0.0,0.0,0.0,0.0,0.0,0.0,0.0,0.0,0.0,0.0,0.0,0.0,0.0,0.0,0.0,0.0,0.0,0.0,0.0,0.0,0.0,0.0,0.0,0.0,0.0,0.0,0.0,0.0,0.0,0.0,0.0,0.0,0.0,0.0,0.0,0.0,0.0,0.0,0.0,0.0,0.0,0.0,0.0,0.0,0.0,0.0,0.0,0.0,0.0,0.0,0.0,0.0,0.0,0.0,0.0,0.0,0.0,0.0,0.0,0.0,0.0,0.0,0.0,0.0,0.0,0.0,0.0,0.0,0.0,0.0,0.0,0.0,0.0,0.0,0.0,0.0,0.0,0.0,0.0,0.0,0.0,0.0,0.0,0.0,0.0,0.0,0.0,0.0,0.0,0.0,0.0,0.0,0.0,0.0,0.0,0.0,1.4215,1.5153,1.6604,1.9482,1.9784,2.0606,2.2517,2.2598,2.2509,2.2404,0.0,0.0,0.0,0.0,0.0,0.0,0.0,0.0,0.0,0.0,0.0,0.0,0.0,0.0,0.0,0.0,0.0,0.0,0.0,0.0,0.0,0.0,0.0,0.0,0.0,0.0,0.0,0.0,0.0,0.0,0.0,0.0,0.0,0.0,0.0,0.0,0.0,0.0,0.0,0.0,0.0,0.0,0.0,0.0,0.0,0.0,0.0,0.0,0.0,0.0,0.0,0.0,0.0,0.0,0.0,0.0,0.0,0.0,0.0,0.0,0.0,0.0,0.0,0.0,0.0,0.0,0.0,0.0,0.0,0.0,0.0,0.0,0.0,0.0,0.0,0.0,0.0,0.0,0.0,0.0,0.0,0.0,0.0,0.0,0.0,0.0,0.0,0.0,0.0,0.0,0.0,0.0,0.0,0.0,0.0,0.0,0.0,0.0,0.0,0.0,0.0,0.0,1.3959,1.4309,1.5228,1.7975,1.8165,1.8797,2.0635,2.0421,2.0358,2.0828,0.0,0.0,0.0,0.0,0.0,0.0,0.0,0.0,0.0,0.0,0.0,0.0,0.0,0.0,0.0,0.0,0.0,0.0,0.0,0.0,0.0,0.0,0.0,0.0,0.0,0.0,0.0,0.0,0.0,0.0,0.0,0.0,0.0,0.0,0.0,0.0,0.0,0.0,0.0,0.0,0.0,0.0,0.0,0.0,0.0,0.0,0.0,0.0,0.0,0.0,0.0,0.0,0.0,0.0,0.0,0.0,0.0,0.0,0.0,0.0,-0.5341,0.0,0.0,0.0,0.0,0.0,0.0,0.0,0.0,0.0,0.0,0.0,0.0,0.0,0.0,0.0,0.0,0.0,0.0,0.0,0.0,0.0,0.0,0.0,0.0,0.0,0.0,0.0,0.0,0.0,0.0,0.0,0.0,0.0,0.0,0.0,0.0,0.0,0.0,0.0,0.0,0.0,1.1664,1.2317,1.3165,1.4985,1.5908,1.7115,1.8781,1.9099,1.9544,2.0375,1.9932,0.0,0.0,0.0,0.0,0.0,0.0,0.0,0.0,0.0,0.0,0.0,0.0,0.0,0.0,0.0,0.0,0.0,0.0,0.0,0.0,0.0,0.0,0.0,0.0,0.0,0.0,0.0,0.0,0.0,0.0,0.0,0.0,0.0,0.0,0.0,0.0,0.0,0.0,0.0,0.0,0.0,0.0,0.0,0.0,0.0,0.0,0.0,0.0,0.0,0.0,0.0,0.0,0.0,0.0,0.0,0.0,0.0,0.0,0.0,0.0,-0.7867,0.0,0.0,0.0,0.0,0.0,0.0,0.0,0.0,0.0,0.0,0.0,0.0,0.0,0.0,0.0,0.0,0.0,0.0,0.0,0.0,0.0,0.0,0.0,0.0,0.0,0.0,0.0,0.0,0.0,0.0,0.0,0.0,0.0,0.0,0.0,0.0,0.0,0.0,0.0,0.0,1.0516,1.0972,1.1602,1.28,1.3802,1.5011,1.6402,1.6844,1.7362,1.8249,1.8398,0.0,0.0,0.0,0.0,0.0,0.0,0.0,0.0,0.0,0.0,0.0,0.0,0.0,0.0,0.0,0.0,0.0,0.0,0.0,0.0,0.0,0.0,0.0,0.0,0.0,0.0,0.0,0.0,0.0,0.0,0.0,0.0,0.0,0.0,0.0,0.0,0.0,0.0,0.0,0.0,0.0,0.0,0.0,0.0,0.0,0.0,0.0,0.0,0.0,0.0,0.0,0.0,0.0,-1.2211,-1.2834,-1.3513,-1.3437,-1.3522,-1.3634,-1.1538,-1.0189,-0.9482,0.0,0.0,0.0,0.0,0.0,0.0,0.0,0.0,0.0,0.0,0.0,0.0,0.0,0.0,0.0,0.0,0.0,0.0,0.0,0.0,0.0,0.0,0.0,0.0,0.0,-0.2899,-0.271,0.0,0.0,0.0,0.0,0.0,0.0,0.0,0.0,0.0,0.0,0.0,0.0,0.962,0.9755,1.0039,1.0879,1.1755,1.2706,1.3868,1.4303,1.4895,1.5666,1.6439,1.6799,0.0,0.0,0.0,0.0,0.0,0.0,0.0,0.0,0.0,0.0,0.0,0.0,0.0,0.0,0.0,0.0,0.0,0.0,0.0,0.0,0.0,0.0,0.0,0.0,0.0,0.0,0.0,0.0,0.0,0.0,0.0,0.0,-1.1006,-1.0449,0.0,0.0,0.0,0.0,0.0,0.0,0.0,0.0,0.0,0.0,0.0,0.0,0.0,0.0,-1.2031,-1.3122,-1.3658,-1.3629,-1.4405,-1.4658,-1.4427,-1.4235,-1.3646,-1.2788,-1.2723,0.0,-1.2537,-1.0426,0.0,0.0,0.0,0.0,0.0,0.0,0.0,0.0,0.0,0.0,0.0,0.0,0.0,0.0,0.0,0.0,0.0,0.0,0.0,0.0,0.0,0.0,-0.2641,-0.3487,-0.4022,-0.416,0.0,-0.2223,-0.172,-0.2509,0.0,0.0,0.0,0.0,0.0,0.0,0.0,0.0,0.7719,0.7788,0.7907,0.8358,0.9321,1.0415,1.1614,1.234,1.3196,1.4219,1.4302,1.4488,1.498,1.5657,0.0,0.0,0.0,0.0,0.0,0.0,0.0,0.0,0.0,0.0,0.0,0.0,0.0,0.0,0.0,0.0,0.0,0.0,0.0,0.0,0.0,0.0,0.0,0.0,0.0,0.0,0.0,0.0,0.0,-1.067,-1.0934,-1.1626,-1.115,-1.0996,0.0,0.0,0.0,0.0,0.0,0.0,0.0,0.0,0.0,-1.3369,-1.3861,-1.4138,-1.4164,-1.4538,-1.4685,-1.4615,-1.4974,-1.4927,-1.4544,-1.4412,-1.3997,-1.3391,-1.3307,-1.3278,-1.3194,-1.1722,-1.1448,-1.1659,0.0,0.0,0.0,0.0,0.0,-0.4639,-0.5161,-0.6189,0.0,0.0,0.0,0.0,0.0,0.0,0.0,0.0,0.0,0.0,0.0,0.0,0.0,-0.479,-0.4904,-0.4776,-0.4325,-0.3749,-0.3271,0.0,-0.2288,-0.1222,0.0,0.0,0.0,0.0,0.0,0.6599,0.5862,0.6042,0.6292,0.6427,0.7592,0.8657,0.9501,1.0511,1.1334,1.1983,1.2654,1.3035,1.3161,1.4622,1.56,0.0,0.0,0.0,0.0,0.0,0.0,0.0,0.0,0.0,0.0,0.0,0.0,0.0,0.0,0.0,0.0,0.0,0.0,0.0,0.0,0.0,0.0,0.0,0.0,0.0,0.0,0.0,0.0,-1.0912,-1.1269,-1.2339,-1.1727,-1.1595,0.0,0.0,0.0,0.0,0.0,0.0,-1.3457,-1.408,-1.4425,-1.4434,-1.5009,-1.5319,-1.5289,-1.5326,-1.527,-1.5153,-1.5127,-1.4938,-1.4594,-1.4504,-1.4302,-1.3977,-1.3615,-1.3393,-1.3278,-1.2665,-1.2169,-1.1642,-1.0277,-0.9341,-0.8584,-0.676,-0.6531,-0.7104,-0.6955,-0.7585,-0.8572,-0.929,0.0,-0.9422,-0.8592,0.0,0.0,0.0,0.0,-0.5163,-0.5619,-0.56,-0.553,-0.5888,-0.5808,-0.5502,-0.504,-0.4935,-0.4531,0.0,-0.2868,-0.2193,-0.0563,0.0,0.0,0.0,0.0,0.5631,0.4079,0.4296,0.4635,0.476,0.5903,0.6937,0.7702,0.8761,0.9575,0.9958,1.1085,1.168,1.1461,1.3459,1.4675,1.4831,0.0,0.0,0.0,0.0,0.0,0.0,0.0,0.0,0.0,0.0,0.0,0.0,0.0,0.0,0.0,0.0,0.0,0.0,0.0,0.0,0.0,0.0,0.0,0.0,0.0,0.0,0.0,0.0,0.0,-1.1653,-1.2941,0.0,0.0,0.0,0.0,-1.3964,-1.4021,-1.4394,-1.5229,-1.5317,-1.5323,-1.5319,-1.5377,-1.5351,-1.5303,-1.5355,-1.535,-1.5299,-1.5168,-1.5016,-1.4873,-1.4688,-1.4368,-1.3975,-1.3721,-1.3526,-1.3363,-1.2887,-1.2626,-1.2478,-1.1758,-1.1373,-1.1073,-0.9831,-0.9236,-0.9004,-0.8618,-0.854,-0.8778,-0.981,-1.0717,-1.127,-1.0779,-0.9785,0.0,0.0,-0.7973,-0.6694,-0.7093,-0.7079,-0.689,-0.6531,-0.6768,-0.6842,-0.5864,-0.5576,-0.5098,0.0,-0.3463,-0.2872,-0.138,0.0,0.0851,0.2252,0.2618,0.2651,0.2431,0.2458,0.2768,0.3345,0.4176,0.5125,0.6384,0.7321,0.8042,0.8554,0.946,0.9913,0.9901,1.1575,1.2701,1.2989,1.3702,0.0,0.0,0.0,0.0,0.0,0.0,0.0,0.0,0.0,0.0,0.0,0.0,0.0,0.0,0.0,0.0,0.0,0.0,0.0,0.0,0.0,0.0,0.0,0.0,0.0,0.0,0.0,0.0,-1.3147,-1.3221,0.0,-1.4325,-1.3948,-1.4009,-1.4877,-1.494,-1.5078,-1.539,-1.5405,-1.5397,-1.5399,-1.5407,-1.5362,-1.5293,-1.5371,-1.5368,-1.5302,-1.5255,-1.5185,-1.5089,-1.4878,-1.4663,-1.4452,-1.4174,-1.3948,-1.3759,-1.3428,-1.2983,-1.2498,-1.2179,-1.1738,-1.1167,-1.0269,-0.9869,-0.9791,-0.9912,-1.0104,-1.0515,-1.1641,-1.2182,-1.2342,-1.2058,-1.1479,-1.0903,-1.0721,-0.9899,-0.9041,-0.8765,-0.844,-0.8093,-0.7903,-0.7838,-0.7654,-0.6913,-0.6362,-0.5715,-0.459,-0.3741,-0.3084,-0.2715,-0.1754,-0.0978,-0.1027,-0.1108,-0.0816,0.0194,0.0452,0.0964,0.2059,0.2955,0.39,0.4935,0.5815,0.6874,0.8099,0.8375,0.8862,0.978,1.0401,1.1298,1.2484,1.2708,1.36,0.0,0.0,0.0,0.0,0.0,0.0,0.0,0.0,0.0,0.0,0.0,0.0,0.0,0.0,0.0,0.0,0.0,0.0,0.0,0.0,0.0,0.0,0.0,0.0,0.0,0.0,-1.3456,-1.4022,-1.3858,-1.4105,-1.5186,-1.5107,-1.5206,-1.5758,-1.6083,-1.6242,-1.6239,-1.5994,-1.584,-1.5837,-1.5543,-1.5515,-1.5774,-1.5516,-1.5514,-1.5734,-1.5446,-1.5265,-1.5182,-1.5044,-1.4867,-1.4682,-1.4441,-1.4197,-1.398,-1.3743,-1.3312,-1.2748,-1.2364,-1.1852,-1.1273,-1.0405,-1.0033,-1.0085,-1.0689,-1.1549,-1.2481,-1.3256,-1.3625,-1.3756,-1.3572,-1.3169,-1.2729,-1.2271,-1.1629,-1.0877,-1.0089,-0.9549,-0.9108,-0.882,-0.8543,-0.8209,-0.7446,-0.6989,-0.6374,-0.5341,-0.41,-0.3279,-0.3447,-0.2917,-0.2582,-0.3179,-0.3319,-0.2953,-0.1908,-0.1289,-0.0507,0.0697,0.1598,0.2541,0.3755,0.4744,0.5986,0.7628,0.7653,0.8133,0.9433,0.9426,1.0128,1.1661,1.1984,1.2851,1.4275,0.0,0.0,0.0,0.0,0.0,0.0,0.0,0.0,0.0,0.0,0.0,0.0,0.0,0.0,0.0,0.0,0.0,0.0,0.0,0.0,0.0,0.0,0.0,-1.2847,-1.3593,-1.4149,-1.4142,-1.4882,-1.5375,-1.5303,-1.6155,-1.6673,-1.6603,-1.7404,-1.79,-1.7894,-1.716,-1.6735,-1.6699,-1.5916,-1.5879,-1.669,-1.5894,-1.5874,-1.6631,-1.5753,-1.5313,-1.5245,-1.5176,-1.5007,-1.4738,-1.455,-1.4296,-1.4048,-1.3821,-1.3622,-1.3362,-1.2443,-1.193,-1.1615,-1.0508,-1.0046,-1.0096,-1.1057,-1.2756,-1.4475,-1.4547,-1.4975,-1.5492,-1.5344,-1.4895,-1.4278,-1.3749,-1.296,-1.2008,-1.0971,-1.038,-0.9922,-0.9194,-0.8911,-0.8551,-0.7579,-0.73,-0.6983,-0.6059,-0.4655,-0.3599,-0.3613,-0.3751,-0.3917,-0.4075,-0.3833,0.0,-0.3714,-0.2689,-0.1658,-0.08,-0.0,0.1078,0.2713,0.3961,0.5355,0.6995,0.7225,0.7721,0.8792,0.8667,0.9161,1.0422,1.1422,1.2225,1.2731,0.0,0.0,0.0,0.0,0.0,0.0,0.0,0.0,0.0,0.0,0.0,0.0,0.0,0.0,0.0,0.0,0.0,0.0,0.0,0.0,0.0,0.0,-1.3744,-1.3747,-1.4486,-1.5046,-1.5044,-1.5251,-1.5377,-1.5306,-1.612,-1.6629,-1.6608,-1.7407,-1.79,-1.7909,-1.7688,-1.7297,-1.6711,-1.7081,-1.7109,-1.6694,-1.709,-1.7368,-1.7527,-1.6654,-1.6227,-1.6215,-1.6149,-1.6055,-1.5925,-1.5725,-1.5506,-1.5233,-1.4409,-1.4282,-1.4563,-1.3965,-1.3257,-1.2565,-1.2613,-1.2878,-1.3312,-1.3539,-1.4723,-1.6108,-1.5937,-1.59,-1.5911,-1.5826,-1.4927,-1.3925,-1.3651,-1.2542,-1.1185,-1.0466,-1.0069,-0.9808,-0.945,-0.9469,-0.9495,-0.9431,-0.8949,-0.8464,-0.8002,-0.6985,-0.6077,-0.5801,-0.4995,-0.4829,-0.627,-0.5445,0.0,-0.468,-0.3993,-0.2946,-0.16,-0.0973,-0.0182,0.1044,0.2288,0.3608,0.5191,0.6043,0.6515,0.6799,0.671,0.7365,0.8926,1.0312,1.1164,0.0,0.0,0.0,0.0,0.0,0.0,0.0,0.0,0.0,0.0,0.0,0.0,0.0,0.0,0.0,0.0,0.0,0.0,0.0,0.0,0.0,0.0,-1.3772,-1.4222,-1.4581,-1.5086,-1.541,-1.5409,-1.5407,-1.5382,-1.5342,-1.6435,-1.7131,-1.7148,-1.8294,-1.8982,-1.899,-1.8636,-1.8073,-1.7264,-1.7739,-1.7753,-1.7251,-1.7722,-1.8118,-1.8438,-1.7532,-1.7103,-1.7098,-1.7032,-1.6759,0.0,-1.6571,-1.6137,-1.531,-1.5325,-1.5293,0.0,0.0,0.0,0.0,0.0,-1.3717,-1.4201,-1.4363,-1.5328,-1.6497,-1.6512,-1.6463,-1.6355,-1.6151,-1.5389,-1.4512,-1.4132,-1.3128,-1.2044,-1.1313,-1.0922,-1.0623,-1.0205,-1.014,-1.015,-1.0114,-0.9727,-0.9361,-0.9133,-0.8447,0.0,-0.8029,-0.6629,-0.5957,-0.7267,-0.6608,-0.5952,-0.5981,-0.5147,-0.4041,-0.2826,-0.2178,-0.1439,-0.0603,0.0791,0.0,0.0,0.0,0.47,0.5013,0.5938,0.0,0.0,0.0,0.9876,1.0335,0.0,0.0,0.0,1.4029,1.5265,0.0,0.0,0.0,0.0,0.0,0.0,0.0,0.0,0.0,0.0,0.0,0.0,0.0,0.0,0.0,0.0,-1.418,-1.4529,-1.5282,-1.5392,-1.5401,-1.5392,-1.5498,-1.5555,-1.5557,-1.7059,-1.8046,-1.8061,-1.9574,-2.0492,-2.05,0.0,0.0,0.0,0.0,-1.8239,-1.8134,-1.8173,-1.8582,-1.9323,-1.8382,-1.7943,-1.7932,-1.787,-1.7377,-1.664,-1.7281,-1.6621,-1.5173,-1.6417,-1.6455,-1.5627,-1.4829,-1.4925,-1.5336,-1.3916,-1.3626,-1.3992,-1.4377,0.0,0.0,-1.6623,-1.6738,-1.6686,-1.6344,-1.5896,-1.5404,-1.4769,-1.4176,-1.3612,-1.2745,-1.2316,-1.1892,-1.1309,-1.0975,-1.0693,-1.0271,-1.0171,-1.0123,-0.9963,-0.9597,-0.9477,-0.998,-0.8291,-0.7086,-0.7747,-0.7469,-0.7226,-0.7283,-0.6117,-0.5012,-0.4287,0.0,0.0,-0.2261,-0.0783,0.0731,0.2135,0.2128,0.2476,0.3364,0.5434,0.6749,0.7205,0.7761,0.832,0.8918,0.9172,0.9615,1.0255,1.2035,1.3476,0.0,0.0,0.0,0.0,0.0,0.0,0.0,0.0,0.0,0.0,0.0,0.0,0.0,0.0,0.0,-1.4059,-1.4683,-1.5212,-1.5389,-1.5409,-1.5407,-1.5401,-1.6015,-1.6446,-1.644,-1.7966,-1.8941,-1.8958,-1.9918,-2.0504,-2.0497,-2.0332,0.0,-1.907,-1.9687,-1.968,-1.8968,-1.9653,-2.0048,-2.0172,0.0,0.0,-1.8776,-1.8701,-1.8576,-1.8401,-1.8478,-1.8279,-1.7868,-1.7415,-1.7325,-1.7391,-1.6336,-1.629,-1.6695,-1.5603,-1.554,-1.6015,-1.5883,-1.6288,-1.6905,-1.6882,-1.6717,-1.6528,-1.6382,-1.5506,0.0,-1.4387,-1.3754,-1.3043,-1.2733,-1.2594,-1.2404,-1.2119,-1.173,-1.1507,-1.1778,-1.181,-1.1758,-1.1792,-1.1657,-1.1267,-1.0605,-0.8854,-0.7914,-0.9057,-0.8136,-0.7495,-0.7898,-0.711,-0.6224,-0.5374,-0.4891,-0.4378,-0.365,-0.3217,-0.2443,-0.1283,-0.0738,0.0187,0.147,0.2533,0.3403,0.4051,0.5254,0.6189,0.6711,0.7718,0.8329,0.8533,1.0933,1.2615,0.0,0.0,0.0,0.0,0.0,0.0,0.0,0.0,0.0,0.0,0.0,-1.2882,0.0,0.0,-1.4712,-1.4742,-1.5095,-1.5507,-1.5981,-1.6046,-1.6052,-1.6056,-1.6433,-1.6866,-1.7317,-1.8508,-1.9072,-1.8636,-1.9777,-2.0305,-1.9867,-2.0269,-2.0136,-1.9336,-2.0073,-2.0078,-1.9208,-2.0068,-2.0467,-2.0394,-1.9928,-1.9689,-1.9641,-1.955,-1.9285,-1.8926,-1.9296,-1.8935,-1.8089,-1.7966,-1.8223,-1.865,-1.8005,-1.7611,-1.731,-1.6686,-1.6319,-1.6146,-1.6232,-1.6359,-1.6539,-1.67,-1.6649,-1.6501,-1.6274,-1.5608,-1.4921,-1.5075,-1.4393,-1.3672,-1.4113,-1.3877,-1.3518,-1.345,-1.3217,-1.2996,-1.3295,-1.2967,-1.271,-1.3131,-1.256,-1.1955,-1.163,-1.0327,-0.9458,-0.9673,-0.9093,-0.8598,-0.8487,-0.7852,-0.708,-0.6253,-0.5961,-0.5616,-0.4931,-0.4822,-0.4226,-0.3009,-0.2883,-0.2116,-0.0578,0.0454,0.1298,0.2113,0.3323,0.431,0.4961,0.5792,0.6484,0.6981,0.8447,1.004,0.0,0.0,0.0,0.0,0.0,0.0,0.0,0.0,-1.1256,-1.2165,-1.3056,-1.3749,-1.3957,-1.471,-1.5369,-1.5601,-1.5598,-1.5874,-1.6812,-1.6941,-1.7012,-1.7197,-1.7202,-1.7478,-1.8183,-1.9023,-1.9237,-1.8531,-1.9746,-2.0195,-1.949,-2.0117,-2.0209,-1.9558,-2.0155,-2.0155,-1.9464,-2.0149,-2.0473,-2.0399,-2.034,-2.0304,-2.0292,-2.0162,-1.9781,-1.9203,-1.9838,-1.9306,-1.8042,-1.8539,-1.9026,-1.9438,-1.9295,-1.8687,-1.7842,-1.7537,-1.6851,-1.6129,-1.6398,-1.6287,-1.6086,-1.6475,-1.6649,-1.6662,-1.6182,-1.5858,-1.5682,-1.5719,-1.5147,-1.4687,-1.5505,-1.5257,-1.4779,-1.479,-1.4607,-1.4481,-1.4452,-1.3781,-1.3393,-1.4013,-1.3072,-1.2325,-1.2607,-1.1862,-1.0956,-1.0111,-0.9889,-0.9626,-0.9221,-0.8519,-0.788,-0.7141,-0.7006,-0.6697,-0.6096,-0.5915,-0.5291,-0.4142,-0.4324,-0.3836,-0.2378,-0.1281,-0.0317,0.0433,0.1546,0.2494,0.3303,0.3766,0.4531,0.5432,0.5789,0.7163,-0.9275,-0.9411,-0.9591,-0.9463,-0.9719,-1.0054,0.0,0.0,-1.0466,-1.1273,-1.22,-1.3071,-1.3861,-1.4702,-1.5559,-1.6331,-1.6467,-1.6772,-1.7716,-1.7844,-1.8147,-1.892,-1.9002,-1.9043,-1.9158,-1.9897,-2.0321,-2.0235,-2.038,-2.0453,-2.0358,-2.0448,-2.0464,-2.0369,-2.0448,-2.0445,-2.036,-2.0457,-2.0472,-2.0395,-2.0334,-2.0301,-2.0296,-2.0208,-2.0169,-2.0142,-2.0186,-2.0021,-1.9725,-1.9669,-1.9613,-1.9572,-1.9431,-1.9146,-1.8806,-1.8403,-1.7931,-1.7451,-1.7243,-1.6888,-1.6512,-1.6496,-1.6827,-1.7091,-1.6391,-1.6247,-1.6135,-1.541,-1.5198,-1.5291,-1.5757,-1.5768,-1.5631,-1.5436,-1.5247,-1.498,-1.4575,-1.4261,-1.4087,-1.4173,-1.3549,-1.2947,-1.2875,-1.2421,-1.1731,-1.0854,-1.0164,-0.9819,-0.9947,-0.9404,-0.8831,-0.8428,-0.8247,-0.7758,-0.6957,-0.647,-0.5999,-0.5498,-0.477,-0.4082,-0.3592,-0.2699,-0.1989,-0.1409,-0.0511,0.0441,0.1479,0.2023,0.2823,0.3872,0.404,0.5401,-0.9068,-0.9277,-0.95,0.0,-0.9654,-1.0139,-1.0675,-1.0775,-1.0989,-1.1812,-1.2271,-1.264,-1.3051,-1.4293,-1.5362,0.0,-1.6682,-1.7672,-1.8571,-1.8739,-1.9083,-1.9955,-1.9608,-1.9491,-2.0004,-1.9899,-1.9799,-1.9741,-2.021,-2.0273,-1.9763,-2.0199,-2.0443,-2.0445,-2.0428,-2.0456,-2.0499,-2.05,-2.0458,-2.0391,-2.0377,-2.0334,-2.0301,-2.0277,-2.0273,-2.0304,-2.0233,-2.0153,-2.005,-1.9896,-1.98,-1.9688,-1.9574,-1.9357,-1.9069,-1.8715,-1.8232,-1.7721,-1.7509,-1.7085,-1.6659,-1.6581,-1.6889,-1.7233,-1.6855,-1.6668,-1.6646,-1.6812,-1.6232,-1.5833,-1.6869,-1.6542,-1.5999,-1.6097,-1.6061,-1.5893,-1.5698,-1.5195,-1.4846,-1.5093,-1.4028,-1.3151,-1.3264,-1.2829,-1.2246,-1.1537,-1.1008,-1.0648,-1.0533,-1.0083,-0.9571,-0.9198,-0.8821,-0.8443,-0.8128,-0.7752,-0.715,-0.6344,-0.5961,-0.5326,-0.4382,-0.3948,-0.3416,-0.2692,-0.2012,-0.121,-0.0298,0.0423,0.1167,0.2,0.2475,0.3407,-0.8992,0.0,0.0,-0.9347,-0.9647,-1.0129,-1.0809,-1.0891,-1.103,-1.1648,-1.1933,-1.2076,-1.2123,-1.3411,-1.4736,-1.5502,-1.6687,-1.7989,-1.9336,-1.938,-1.9517,-2.0142,-1.9232,-1.8984,-2.0105,-1.9641,-1.9358,-1.9536,-2.0133,-2.0208,-1.9554,-2.006,-2.038,-2.0395,-2.0404,-2.0415,-2.0467,-2.0464,-2.0444,-2.04,-2.0394,-2.0365,-2.0334,-2.0328,-2.0332,-2.03,-2.0257,-2.0188,-2.0098,-1.9979,-1.9889,-1.9814,-1.9916,-1.9775,-1.9512,-1.9237,-1.8608,-1.7859,-1.7647,-1.7224,-1.6747,-1.6686,-1.7113,-1.7601,-1.7327,-1.7334,-1.7541,-1.7943,-1.7171,-1.6488,-1.7626,-1.7088,-1.6318,-1.6456,-1.6569,-1.6597,-1.6451,-1.6007,-1.575,-1.6007,-1.4812,-1.3831,-1.4068,-1.3545,-1.2964,-1.274,-1.2175,-1.1541,-1.0956,-1.0404,-1.0028,-0.9721,-0.9133,-0.8764,-0.8877,-0.851,-0.7959,-0.7086,-0.6902,-0.6397,-0.5214,-0.5075,-0.4661,-0.3752,-0.3297,-0.2743,-0.1992,-0.1123,-0.0419,0.0182,0.098,0.1681,0.0,0.0,-0.9521,-0.9657,-0.9901,-1.0108,-1.0138,-1.0029,-0.9954,-0.9974,-1.0658,-1.1231,-1.1238,-1.2022,-1.3503,-1.6052,-1.6499,-1.7435,-2.0003,-1.9697,-1.9216,-1.9236,-1.7723,-1.7365,0.0,-1.9211,-1.9548,-2.0395,-2.043,-2.0399,-2.036,-2.0341,-2.0334,-2.0405,-2.0405,-2.0404,-2.0399,-2.0402,-2.0394,-2.04,-2.0394,-2.0408,-2.0395,-2.0402,-2.0354,-2.0304,-2.0306,-2.0219,-2.0089,-2.004,-1.9915,-1.987,-2.0583,-2.0674,-2.0346,-2.028,-1.932,-1.8048,-1.7861,-1.7408,-1.6876,-1.6815,-1.7599,-1.8434,-1.7788,-1.8299,-1.8956,-1.8121,-1.7635,-1.7403,-1.7662,-1.7184,-1.66,-1.6308,-1.6674,-1.691,-1.625,-1.6515,-1.6819,-1.6689,-1.5954,-1.5363,-1.5421,-1.4607,-1.4128,-1.471,-1.3678,-1.2407,-1.114,-1.0374,-0.9933,-0.9976,-0.9249,-0.8774,-0.883,-0.8368,-0.7997,-0.7762,-0.7345,-0.687,-0.6395,-0.6117,-0.5514,-0.4601,-0.4609,-0.4238,-0.3528,-0.2724,-0.1996,-0.1295,-0.0425,0.0431,0.0,0.0,-1.0263,-0.9822,-1.0334,-1.0818,-1.0234,-0.9991,-0.9922,-0.9965,-1.0131,-1.0452,-1.1085,-1.24,-1.4084,-1.6168,-1.7473,-1.8758,-2.0255,-2.0223,-2.0052,-2.0052,-1.9071,0.0,0.0,0.0,0.0,-1.9536,-1.9581,-1.9546,-1.953,-2.0025,-2.0306,-2.0334,-2.0373,-2.0398,-2.0394,-2.0443,-2.0464,-2.0467,-2.0425,-2.0425,-2.0458,-2.0424,-2.0396,-2.0353,-2.0314,-2.025,-2.0161,-2.0001,-1.9873,-1.982,-1.9985,-2.0211,-2.0451,-2.0384,-1.9921,-1.9155,-1.8237,-1.7625,-1.7199,-1.7052,-1.7508,-1.8178,-1.8342,-1.8559,-1.8842,-1.9295,-1.8909,-1.8391,-1.8724,-1.818,-1.7469,-1.7239,-1.726,-1.7246,-1.694,-1.6711,-1.6647,-1.6981,-1.5975,-1.5191,-1.5581,-1.5159,-1.473,-1.447,-1.3749,-1.2845,-1.1865,-1.1376,-1.088,-1.0376,-1.0258,-0.9965,-0.94,-0.927,-0.8969,-0.8381,-0.8044,-0.7549,-0.7014,-0.6456,-0.593,-0.5401,-0.4725,-0.4243,-0.3981,-0.2999,-0.2466,-0.2388,-0.1266,-0.0585,0.0,-0.9759,-1.0743,-1.0342,-1.0796,-1.119,-1.0592,-1.0152,-0.9868,-0.9894,-0.9832,-1.0031,-1.0961,-1.2312,-1.3978,-1.606,-1.765,-1.9063,-2.0293,-2.021,-2.0037,-2.0037,-1.9308,-1.9122,0.0,0.0,0.0,-1.9536,-1.9593,-1.9565,-1.9563,-2.0031,-2.0306,-2.0294,-2.0334,-2.036,-2.0352,-2.0718,-2.0914,-2.0929,-2.0919,-2.0752,-2.05,-2.0463,-2.0444,-2.0424,-2.0341,-2.0253,-2.0203,-2.0021,-1.9885,-1.9825,-2.0004,-2.0259,-2.0554,-2.0781,-2.0481,-1.982,-1.8868,-1.8132,-1.7526,-1.7296,-1.7597,-1.8173,-1.8751,-1.8988,-1.9263,-2.0169,-1.9968,-1.9455,-1.9361,-1.8614,-1.7772,-1.7297,-1.7064,-1.6937,-1.6858,-1.6886,-1.7026,-1.732,-1.6697,-1.6217,-1.6483,-1.6191,-1.5618,-1.4792,-1.4446,-1.3799,-1.2541,-1.2089,-1.161,-1.0889,-1.0805,-1.058,-1.0027,-0.9914,-0.9687,-0.9197,-0.885,-0.8397,-0.7787,-0.7234,-0.6711,-0.6182,-0.5244,-0.4789,-0.4773,-0.3721,-0.3237,-0.3297,-0.2294,-0.1642,-0.9477,-1.0005,-1.1005,-1.1161,-1.1232,-1.1238,-1.1104,-1.0438,-0.9805,-0.9739,-0.9758,-1.0065,0.0,0.0,-1.3285,-1.5857,-1.7131,-1.8409,-2.0166,-1.9757,-1.9275,0.0,0.0,0.0,0.0,0.0,0.0,-2.0383,0.0,-2.0331,-2.0261,-2.0289,-2.0295,-2.0294,-2.0339,-2.0366,-2.0366,-2.1243,-2.1688,-2.1716,-2.1772,-2.134,-2.0506,-2.0503,-2.0508,-2.0488,-2.0352,-2.0255,-2.0184,-2.006,-1.9918,-1.9863,-2.0573,-2.0749,-2.0689,-2.1383,-2.1007,-2.0063,-1.9671,-1.8806,-1.7861,-1.7576,-1.7856,-1.8441,-1.9098,-1.968,-2.0251,-2.0735,-2.078,-2.044,-1.9429,-1.857,-1.7721,-1.6684,-1.639,-1.6337,-1.6207,-1.709,-1.7862,-1.7789,-1.8068,-1.8226,-1.8028,-1.7557,-1.6879,-1.574,-1.5721,-1.5157,-1.3236,-1.265,-1.2144,-1.1518,-1.1095,-1.0739,-1.0651,-1.031,-1.0122,-1.0202,-0.9873,-0.9354,-0.8679,-0.8343,-0.7813,-0.6914,-0.6176,-0.577,-0.5776,-0.4745,-0.4158,-0.4024,-0.3408,-0.2796,-0.9237,-1.0448,-1.1821,-1.1325,-1.1647,-1.1871,-1.1065,-1.0546,-1.0231,-1.0164,-1.0661,-1.1392,0.0,0.0,0.0,-1.6735,-1.7483,0.0,-2.0221,-2.0297,0.0,-2.0168,0.0,-2.001,-2.0253,-2.0076,0.0,0.0,-1.987,-1.9224,-1.8566,-1.966,-2.0295,-2.0294,-2.0927,-2.1295,-2.1333,-2.2214,-2.2348,-2.1776,-2.1784,-2.1347,-2.05,-2.051,-2.0503,-2.048,-2.0349,-2.0295,-2.0265,-2.0079,-1.9939,-1.9884,-1.9982,-2.0313,-2.0771,-2.0839,-2.0688,-2.0334,-1.9989,-1.9102,-1.8186,-1.8552,-1.8622,-1.8809,-2.0025,-2.0385,-2.0437,-2.0557,-2.0394,-1.9987,-1.9196,-1.8905,-1.8783,-1.8389,-1.8499,-1.8576,-1.8375,-1.8223,-1.8195,-1.8455,-1.8493,-1.8333,-1.8042,-1.7855,-1.753,-1.699,-1.6663,-1.586,-1.4144,-1.3729,-1.3207,-1.2227,-1.2205,-1.1884,-1.0995,-1.1125,-1.1036,-1.0515,-1.0303,-1.0028,-0.9658,-0.8778,-0.7913,-0.722,-0.6137,-0.5461,-0.525,-0.4629,-0.4381,-0.4353,-0.3852,-0.3519,-0.9913,-1.1003,-1.2191,-1.1711,-1.2223,-1.2674,-1.1995,-1.1372,-1.0934,-1.0945,-1.1283,0.0,-1.2746,0.0,0.0,0.0,0.0,0.0,-2.0352,-2.0538,-2.0541,0.0,-2.0586,0.0,-2.0603,-2.0254,-2.0018,0.0,-1.9851,-1.9711,-1.9575,-2.0418,-2.1094,-2.1462,-2.197,-2.2419,-2.2832,-2.3354,-2.3201,-2.2376,-2.2376,-2.1721,-2.0506,-2.0497,-2.049,-2.049,0.0,-2.0334,-2.0288,-2.0142,-2.004,-1.9936,-1.9835,-2.0001,-2.035,-2.0608,-2.0409,-2.0042,-2.0172,-1.9487,-1.8559,-1.871,-1.8853,-1.9144,-2.0187,-2.0577,-2.0676,-2.0636,-2.0417,-2.0049,-1.9321,-1.9142,-1.9108,-1.8936,-1.9021,-1.9064,-1.8688,-1.854,-1.8632,-1.8933,-1.8622,-1.8295,-1.8341,-1.8254,-1.8069,-1.7841,-1.7503,-1.6841,-1.566,-1.4982,-1.4189,-1.3184,-1.3144,-1.2853,-1.2044,-1.2043,-1.1957,-1.1613,-1.132,-1.0981,-1.0482,-0.9636,-0.8856,-0.8078,-0.6853,-0.6147,-0.5996,-0.5046,-0.4654,-0.468,-0.4401,-0.4128,-1.0707,-1.1361,-1.2205,-1.2077,-1.2694,-1.3303,-1.319,-1.2387,-1.1695,-1.1805,0.0,-1.1937,-1.2741,-1.4519,-1.6111,-1.6895,0.0,-1.9959,-2.0266,-2.0357,-2.0448,-2.0578,-2.0601,-2.0602,-2.0598,-1.9803,-1.9335,-1.9447,-1.9996,-2.0675,-2.1504,-2.1653,-2.2168,-2.3143,-2.3164,-2.3586,-2.4462,-2.4549,-2.409,-2.31,-2.31,-2.2192,-2.0509,-2.0503,-2.0497,-2.0506,0.0,0.0,-2.0315,-2.0235,-2.0125,-2.0001,-1.9947,-1.9835,-1.9788,-2.042,-2.0136,-1.952,-2.0134,-1.9785,-1.8984,-1.8632,-1.8878,-1.9435,-2.013,-2.0602,-2.0893,-2.0755,-2.0572,-2.0237,-1.9498,-1.9218,-1.9135,-1.9042,-1.9049,-1.8901,-1.847,-1.8675,-1.9,-1.9199,-1.8593,-1.8238,-1.8745,-1.8721,-1.8528,-1.8397,-1.8226,-1.7894,-1.7327,-1.6275,-1.5213,-1.4236,-1.3972,-1.3729,-1.3365,-1.2979,-1.2785,-1.2849,-1.2531,-1.1972,-1.12,-1.0779,-1.0151,-0.9176,-0.7953,-0.7278,-0.7187,-0.5769,-0.5062,-0.5011,-0.5011,-0.4736,-0.9834,-1.0659,-1.1866,-1.179,-1.2426,-1.3057,-1.2968,-1.2435,0.0,0.0,-1.2463,-1.2939,-1.3315,-1.406,-1.4929,-1.5957,0.0,0.0,0.0,0.0,-1.9678,0.0,0.0,0.0,0.0,0.0,0.0,0.0,0.0,-1.9792,-2.0662,-2.1399,-2.2492,-2.4025,-2.4064,-2.4496,-2.5362,-2.544,-2.4685,-2.31,-2.3104,-2.2193,-2.0497,-2.0494,-2.0494,-2.0492,-2.0496,0.0,-2.0379,-2.0306,-2.0197,-2.0078,-2.0009,-1.9892,-1.9794,-1.9863,-1.974,-1.9573,-1.9586,-1.9442,-1.9295,-1.9613,-1.9565,-1.9651,-2.1079,-2.1335,-2.1034,-2.0535,-2.0212,-1.982,-1.9035,-1.9105,-1.9569,-2.0078,-2.0499,-2.0702,-2.0464,-1.9696,-1.9037,-1.8925,-1.8624,-1.8582,-1.9067,-1.9109,-1.8997,-1.8822,-1.863,-1.8383,-1.8133,-1.7146,-1.6232,-1.5525,-1.5103,-1.463,-1.4047,-1.3855,-1.3527,-1.3076,-1.3044,-1.2764,-1.2169,-1.1765,-1.1099,-1.0179,-0.92,-0.8317,-0.7593,-0.674,-0.6105,-0.5626,-0.5626,-0.5513,-1.0979,-1.1541,-1.234,-1.2364,-1.3052,-1.3564,-1.2986,0.0,0.0,0.0,-1.2623,-1.3142,-1.3426,-1.4302,0.0,0.0,0.0,0.0,0.0,0.0,0.0,0.0,0.0,0.0,0.0,0.0,0.0,0.0,0.0,-1.9809,-2.1055,-2.2403,-2.3735,-2.4996,-2.5031,-2.5233,-2.5654,-2.5673,-2.4832,-2.3093,-2.3093,-2.2218,-2.0543,-2.0519,-2.0497,-2.0492,-2.0494,0.0,-2.0448,-2.0386,-2.0277,-2.0143,-2.0089,-1.9988,-1.9896,-1.9788,-1.9994,-2.0308,-2.0137,-2.0062,-2.0039,-2.0154,-1.995,-1.977,-2.046,-2.1014,-2.1259,-2.0556,-2.0186,-2.001,-2.0035,-1.9865,-1.993,-2.1014,-2.0999,-2.0695,-2.0526,-1.9373,-1.8547,-1.9054,-1.8687,-1.8579,-1.9516,-1.9551,-1.9406,-1.9347,-1.9184,-1.8997,-1.8793,-1.8224,-1.7411,-1.6236,-1.5823,-1.532,-1.4552,-1.4525,-1.436,-1.3806,-1.3885,-1.3674,-1.2957,-1.2609,-1.2003,-1.1048,-1.0171,-0.9356,-0.8587,-0.7694,-0.6956,-0.6322,-0.6273,-0.6164,-1.1906,-1.2309,-1.2753,-1.2902,-1.3597,-1.4041,-1.3209,-1.3129,0.0,0.0,-1.2707,-1.3073,-1.3426,0.0,-1.5288,0.0,-1.6328,0.0,0.0,0.0,0.0,0.0,0.0,0.0,0.0,0.0,0.0,0.0,0.0,0.0,-2.1897,-2.3524,-2.4796,-2.5668,-2.5707,-2.5693,-2.5701,-2.5507,-2.4646,-2.3095,-2.2929,-2.2067,-2.0605,-2.0543,-2.0516,-2.0509,-2.0506,0.0,0.0,-2.0424,-2.0334,-2.0215,-2.0161,-2.0079,-2.0034,-2.0077,-2.0477,-2.0996,-2.1001,-2.1001,-2.0939,-2.0743,-2.0228,-1.9694,-1.9891,-2.0648,-2.1316,-2.0863,-2.0597,-2.0585,-2.1182,-2.072,-2.0428,-2.1709,-2.1317,-2.058,-2.0273,-1.9177,-1.8524,-1.9468,-1.9014,-1.8856,-2.0023,-2.003,-1.9869,-1.9854,-1.9711,-1.9551,-1.9391,-1.9207,-1.8498,-1.7011,-1.6599,-1.6138,-1.5426,-1.5401,-1.5284,-1.4834,-1.4855,-1.4525,-1.3742,-1.3447,-1.2909,-1.2061,-1.124,-1.0485,-0.974,-0.879,-0.7894,-0.7111,-0.7009,-0.6853,-1.0905,-1.1586,-1.2491,-1.2693,-1.325,-1.3754,-1.3725,0.0,-1.3108,-1.3109,-1.2935,-1.2965,-1.3427,0.0,0.0,0.0,0.0,-1.5619,0.0,0.0,0.0,0.0,0.0,0.0,0.0,0.0,0.0,0.0,0.0,0.0,-2.2847,-2.3888,-2.4809,-2.5668,-2.5707,-2.5696,-2.5703,-2.4919,-2.4041,-2.3081,-2.2361,-2.1517,-2.0605,-2.059,-2.0566,-2.0497,-2.0497,0.0,0.0,-2.0395,-2.0363,-2.0287,-2.0215,-2.0152,-2.0164,-2.0826,-2.1034,-2.1103,-2.1751,-2.1928,-2.184,-2.1656,-2.0372,-1.9183,-2.061,-2.098,-2.1008,-2.1604,-2.1666,-2.1537,-2.1413,-2.1275,-2.1315,-2.1871,-2.1903,-2.1599,-2.0751,-2.029,-2.0094,-2.0118,-1.9874,-1.9878,-2.0602,-2.0561,-2.0426,-2.0342,-2.017,-2.003,-2.003,-1.9782,-1.9292,-1.8408,-1.7897,-1.7572,-1.7424,-1.6902,-1.6421,-1.6151,-1.5732,-1.5266,-1.4766,-1.4455,-1.3988,-1.342,-1.2609,-1.1765,-1.0864,-1.0033,-0.9103,-0.8171,-0.8019,-0.7759,-1.1592,-1.2389,-1.3284,-1.3429,-1.3382,-1.3218,-1.2953,0.0,-1.2506,-1.2287,-1.247,-1.2834,-1.3345,0.0,0.0,0.0,0.0,0.0,-1.667,0.0,0.0,0.0,0.0,0.0,0.0,0.0,0.0,0.0,0.0,0.0,-2.2291,-2.3174,-2.4268,-2.5668,-2.5188,-2.4922,-2.4928,-2.4044,-2.3171,-2.2303,-2.199,-2.1406,-2.0604,-2.0605,-2.0583,-2.0552,-2.0511,0.0,0.0,-2.0456,-2.0429,-2.0354,-2.0287,-2.051,-2.0919,-2.1173,-2.1813,-2.2607,-2.2801,-2.2846,-2.2755,-2.2551,-2.1606,-2.0626,-2.1071,-2.1468,-2.1807,-2.197,-2.192,-2.1882,-2.227,-2.2185,-2.2031,-2.2096,-2.1799,-2.1323,-2.0827,-2.0301,-2.0036,-2.0393,-2.0224,-2.0254,-2.0959,-2.0909,-2.0712,-2.0646,-2.0579,-2.0494,-2.0357,-2.022,-1.9919,-1.9451,-1.8528,-1.7656,-1.7023,-1.6604,-1.6336,-1.6242,-1.5852,-1.5476,-1.5197,-1.4676,-1.4116,-1.363,-1.2991,-1.2234,-1.1432,-1.1022,-1.032,-0.9325,-0.8841,-0.8597,-1.1943,-1.2691,-1.344,-1.3613,-1.329,-1.2863,0.0,0.0,-1.234,-1.21,-1.2362,-1.2813,-1.3312,0.0,0.0,0.0,0.0,-1.5084,-1.6181,0.0,0.0,0.0,0.0,0.0,0.0,0.0,0.0,0.0,0.0,0.0,0.0,-2.2265,-2.3398,-2.4882,-2.4336,-2.4018,-2.4024,-2.3146,-2.2416,-2.1805,-2.1549,-2.1126,-2.0605,-2.0605,-2.0605,-2.0599,0.0,0.0,0.0,-2.0387,-2.0308,-2.0042,-2.025,-2.0789,-2.1445,-2.1615,-2.2505,-2.3655,-2.3761,-2.3768,-2.3673,-2.347,-2.2977,-2.241,-2.2111,-2.2244,-2.2464,-2.2505,-2.2347,-2.2321,-2.2855,-2.2712,-2.2432,-2.2254,-2.1838,-2.1378,-2.1178,-2.0705,-2.0462,-2.0862,-2.0757,-2.0787,-2.1321,-2.1198,-2.1039,-2.1023,-2.0974,-2.086,-2.0761,-2.0628,-2.046,-2.0185,-1.9276,-1.8308,-1.7391,-1.6928,-1.6633,-1.6546,-1.6097,-1.5732,-1.5579,-1.5065,-1.4543,-1.3927,-1.3453,-1.2861,-1.2095,-1.1785,-1.1288,-1.0525,-0.9834,-0.9554,-1.1489,-1.201,-1.2473,-1.2748,-1.2813,-1.2822,0.0,0.0,-1.2922,-1.3066,-1.294,-1.2924,-1.3329,0.0,0.0,0.0,0.0,0.0,-1.6066,0.0,0.0,0.0,0.0,0.0,0.0,0.0,0.0,0.0,0.0,0.0,0.0,-2.1333,-2.2227,-2.3104,-2.3127,-2.3107,-2.3107,-2.2244,-2.1803,-2.1782,-2.0939,-2.0536,-2.0605,-2.0605,-2.0605,0.0,0.0,0.0,0.0,-2.0134,-1.9949,-1.9201,-2.0063,-2.0846,-2.1587,-2.2324,-2.3065,-2.3808,-2.4534,-2.4726,-2.465,-2.4446,-2.4339,-2.4229,-2.4019,-2.3331,-2.2715,-2.333,-2.3199,-2.2902,-2.2893,-2.2659,-2.2377,-2.231,-2.2254,-2.2123,-2.1928,-2.1823,-2.1764,-2.1781,-2.1678,-2.1603,-2.1694,-2.1526,-2.1433,-2.1573,-2.1373,-2.1215,-2.1277,-2.1071,-2.0828,-2.063,-2.0345,-1.9929,-1.931,-1.8353,-1.7667,-1.7399,-1.6767,-1.6257,-1.5896,-1.5954,-1.556,-1.4704,-1.4362,-1.3784,-1.2996,-1.2381,-1.1997,-1.176,-1.1158,-1.0718,-1.1569,-1.2226,-1.2824,-1.2844,-1.2518,-1.2139,-1.1982,0.0,0.0,-1.1901,-1.2325,-1.2797,-1.3086,0.0,0.0,0.0,0.0,0.0,0.0,0.0,0.0,0.0,0.0,0.0,0.0,0.0,0.0,0.0,0.0,0.0,0.0,-2.0765,-2.1586,-2.3043,-2.2522,-2.2205,-2.222,-2.1347,-2.0906,-2.0915,-2.0639,-2.0511,-2.0525,-2.0525,0.0,0.0,0.0,0.0,0.0,-2.0392,-2.0301,-2.007,-2.0942,-2.1745,-2.2476,-2.3227,-2.3961,-2.4606,-2.4747,-2.4742,-2.4615,-2.4497,-2.4393,-2.4266,-2.4133,-2.3832,-2.3565,-2.358,-2.3383,-2.3144,-2.2944,-2.2685,-2.246,-2.2377,-2.231,-2.2225,-2.2123,-2.2094,-2.2065,-2.1957,-2.184,-2.1768,-2.1827,-2.1708,-2.1587,-2.162,-2.1573,-2.1481,-2.1309,-2.1214,-2.1071,-2.0828,-2.073,-2.0379,-1.9696,-1.8794,-1.8093,-1.7703,-1.6922,-1.6413,-1.6244,-1.576,-1.5427,-1.5174,-1.4441,-1.3788,-1.3191,-1.2884,-1.2395,-1.1741,-1.1437,-1.113,0.0,-1.1891,-1.2411,-1.2384,-1.2148,0.0,0.0,0.0,0.0,0.0,0.0,0.0,0.0,0.0,0.0,0.0,0.0,0.0,0.0,0.0,0.0,0.0,0.0,0.0,0.0,0.0,0.0,0.0,0.0,0.0,0.0,-2.0506,-2.0997,-2.2087,-2.1588,-2.1308,-2.1305,-2.0764,-2.0496,-2.0503,-2.0499,-2.051,-2.0506,-2.0506,0.0,0.0,0.0,0.0,0.0,-2.0722,-2.0575,-2.0065,-2.1249,-2.2152,-2.2896,-2.3659,-2.4385,-2.4974,-2.4837,-2.4497,-2.4185,-2.4418,-2.4393,-2.4247,-2.4152,-2.4054,-2.3876,-2.3725,-2.3544,-2.3336,-2.3168,-2.2868,-2.2552,-2.2525,-2.2405,-2.2282,-2.2282,-2.2271,-2.2225,-2.2175,-2.2015,-2.1899,-2.194,-2.1827,-2.1738,-2.1724,-2.1724,-2.1648,-2.154,-2.1495,-2.1371,-2.1166,-2.115,-2.091,-2.0361,-1.9421,-1.8668,-1.822,-1.7276,-1.6683,-1.6494,-1.6057,-1.5698,-1.5446,-1.4977,-1.449,-1.4011,-1.3553,-1.2861,-1.1966,-1.1805,-1.1628,0.0,0.0,0.0,0.0,0.0,0.0,0.0,0.0,0.0,0.0,0.0,0.0,0.0,0.0,0.0,0.0,0.0,0.0,0.0,0.0,0.0,0.0,0.0,0.0,0.0,0.0,0.0,0.0,0.0,0.0,0.0,-2.0495,-2.05,-2.0487,-2.0488,-2.0496,-2.0504,-2.0491,-2.05,-2.048,-2.0492,-2.0538,-2.0581,-2.0525,0.0,0.0,0.0,0.0,0.0,-2.104,-2.074,-1.9467,-2.1141,-2.2172,-2.2835,-2.3746,-2.4446,-2.4905,-2.4832,-2.4227,-2.3615,-2.429,-2.4375,-2.421,-2.4209,-2.4016,-2.3816,-2.3816,-2.3664,-2.3517,-2.3517,-2.3119,-2.2738,-2.2738,-2.2525,-2.2338,-2.2405,-2.2366,-2.2338,-2.2377,-2.2203,-2.2027,-2.2027,-2.1899,-2.1827,-2.1882,-2.1797,-2.1768,-2.1869,-2.1797,-2.1694,-2.1603,-2.1556,-2.1448,-2.123,-2.0162,-1.935,-1.8872,-1.7903,-1.7161,-1.6726,-1.6719,-1.6371,-1.5668,-1.58,-1.564,-1.5198,-1.4324,-1.3421,-1.2559,-1.2335,-1.2196,0.0,0.0,0.0,0.0,0.0,0.0,0.0,0.0,0.0,0.0,0.0,0.0,0.0,0.0,0.0,0.0,0.0,0.0,0.0,0.0,0.0,0.0,0.0,0.0,0.0,0.0,0.0,0.0,0.0,0.0,0.0,-2.0425,-2.043,-2.0425,-2.042,-2.0444,-2.0497,-2.0493,-2.0473,-2.0415,-2.0487,-2.0854,-2.1477,-2.0809,0.0,0.0,0.0,0.0,-2.0293,-2.0661,-2.0562,-2.0356,-2.2046,-2.2353,-2.2126,-2.4236,-2.4643,-2.4236,-2.4699,-2.47,-2.4463,-2.4493,-2.4429,-2.4321,-2.4228,-2.4113,-2.4016,-2.3896,-2.3732,-2.358,-2.3571,-2.3295,-2.302,-2.302,-2.2816,-2.2596,-2.2569,-2.246,-2.2394,-2.2394,-2.2265,-2.2152,-2.2163,-2.1986,-2.1869,-2.184,-2.184,-2.1827,-2.1768,-2.1811,-2.1811,-2.1694,-2.1708,-2.1691,-2.1603,-2.0989,-2.0321,-1.9546,-1.9054,-1.8519,-1.7853,-1.7185,-1.6904,-1.701,-1.6198,-1.557,-1.5198,-1.4228,-1.3888,-1.4109,-1.3026,-1.2656,-0.9328,-1.0271,-1.1065,-1.0705,0.0,0.0,0.0,0.0,0.0,0.0,0.0,0.0,0.0,0.0,0.0,0.0,0.0,0.0,0.0,0.0,0.0,0.0,0.0,0.0,0.0,0.0,0.0,0.0,0.0,0.0,0.0,-2.0404,-2.039,-2.0395,-2.0404,-2.0618,-2.1041,-2.0648,-2.0633,-2.0988,-2.0657,-2.0966,-2.1765,-2.0903,-2.0971,0.0,0.0,0.0,-2.0586,-2.0956,-2.1093,-2.1177,-2.2056,-2.2565,-2.2948,-2.4273,-2.4628,-2.45,-2.4835,-2.487,-2.47,-2.4166,-2.4215,-2.4446,-2.4266,-2.4209,-2.4153,-2.3958,-2.3816,-2.3732,-2.3703,-2.3463,-2.3212,-2.3199,-2.302,-2.2842,-2.279,-2.2738,-2.2685,-2.2712,-2.2542,-2.2377,-2.2388,-2.213,-2.194,-2.1899,-2.1899,-2.1882,-2.184,-2.1869,-2.1869,-2.1768,-2.1903,-2.1932,-2.1768,-2.1648,-2.1176,-2.0353,-1.9799,-1.9258,-1.8676,-1.8076,-1.7827,-1.8094,-1.6851,-1.6072,-1.5777,-1.5004,-1.4666,-1.4729,-1.3873,-1.352,-0.8518,-0.956,-1.0439,-1.0355,-1.0525,0.0,0.0,0.0,0.0,0.0,0.0,0.0,0.0,0.0,0.0,0.0,0.0,0.0,0.0,0.0,0.0,0.0,0.0,0.0,0.0,0.0,0.0,0.0,0.0,0.0,0.0,-2.0388,-2.0394,-2.0404,-2.0394,-2.0801,-2.1685,-2.0961,-2.1025,-2.1876,-2.1075,-2.1137,-2.194,-2.0958,-2.1042,0.0,0.0,0.0,-2.0762,-2.1503,-2.172,-2.1617,-2.1668,-2.2571,-2.3833,-2.4039,-2.4447,-2.4943,-2.4993,-2.494,-2.4689,-2.3881,-2.4064,-2.458,-2.4321,-2.4266,-2.4247,-2.3998,-2.3917,-2.3896,-2.3828,-2.3642,-2.345,-2.3389,-2.3199,-2.307,-2.3045,-2.3045,-2.3045,-2.3095,-2.2868,-2.2659,-2.2659,-2.2326,-2.2084,-2.2084,-2.1998,-2.1957,-2.2027,-2.1986,-2.1928,-2.184,-2.202,-2.2094,-2.1886,-2.2065,-2.1857,-2.1181,-2.0478,-1.983,-1.9271,-1.8967,-1.8726,-1.8559,-1.7592,-1.6898,-1.6597,-1.6111,-1.5636,-1.5169,-1.4832,-1.4547,-0.7771,-0.8602,-0.9385,-0.9605,-0.9776,0.0,0.0,0.0,0.0,0.0,0.0,0.0,0.0,0.0,0.0,0.0,0.0,0.0,0.0,0.0,0.0,0.0,0.0,0.0,0.0,0.0,0.0,0.0,0.0,0.0,0.0,0.0,-2.0392,-2.0392,-2.0341,-2.0734,-2.1617,-2.1545,-2.1913,-2.2708,-2.19,-2.1978,-2.276,-2.1212,-2.139,0.0,0.0,-2.1728,-2.1601,-2.1737,-2.137,-2.0772,-2.1439,-2.1822,-2.2168,-2.3587,-2.413,-2.4253,-2.487,-2.4987,-2.4842,-2.4643,-2.4674,-2.4726,-2.4512,-2.4374,-2.4266,-2.4113,-2.4016,-2.3976,-2.3896,-2.381,-2.3743,-2.3739,-2.3522,-2.3313,-2.3265,-2.3168,-2.307,-2.3003,-2.2952,-2.2919,-2.285,-2.2605,-2.2415,-2.2409,-2.226,-2.2163,-2.2163,-2.2163,-2.2118,-2.1969,-2.2015,-2.2061,-2.214,-2.2061,-2.194,-2.1764,-2.1532,-2.0855,-1.9594,-1.9425,-1.8791,-1.7544,-1.795,-1.7849,-1.7174,-1.6869,-1.6798,-1.6866,-1.5844,-1.532,-0.7401,-0.7977,-0.8477,-0.8834,0.0,-0.9683,-0.9202,0.0,0.0,0.0,0.0,0.0,0.0,0.0,0.0,0.0,0.0,0.0,0.0,0.0,0.0,0.0,0.0,0.0,0.0,0.0,0.0,0.0,0.0,0.0,0.0,0.0,-2.0332,-2.0287,-2.0301,-2.0706,-2.1548,-2.1649,-2.2094,-2.2901,-2.2565,-2.2619,-2.2965,-2.1757,-2.19,-2.3049,0.0,-2.1809,-2.1797,-2.1795,-2.1559,-2.1243,-2.1561,-2.2229,-2.3149,-2.433,-2.4726,-2.4763,-2.5053,-2.5099,-2.5044,-2.4953,-2.4856,-2.4753,-2.4561,-2.4462,-2.4375,-2.4191,-2.4037,-2.3917,-2.3858,-2.3813,-2.3789,-2.3786,-2.3718,-2.3607,-2.3476,-2.343,-2.3389,-2.3289,-2.3217,-2.3144,-2.3052,-2.2868,-2.2738,-2.2773,-2.2579,-2.2415,-2.247,-2.2304,-2.2147,-2.2027,-2.2044,-2.2106,-2.2089,-2.2106,-2.2032,-2.1869,-2.1617,-2.1194,-2.048,-1.9933,-1.9446,-1.8985,-1.8676,-1.844,-1.828,-1.7849,-1.7675,-1.7639,-1.6913,-1.6472,-0.7025,-0.7611,-0.8005,-0.8135,0.0,-0.954,-0.9203,0.0,0.0,0.0,0.0,0.0,0.0,0.0,0.0,0.0,0.0,0.0,0.0,0.0,0.0,0.0,0.0,0.0,0.0,0.0,0.0,0.0,0.0,0.0,0.0,0.0,-2.0238,-2.0184,-2.0223,-2.0558,-2.118,-2.1531,-2.2198,-2.3198,-2.3075,-2.3104,-2.3271,-2.2457,-2.2578,-2.3355,-2.2474,-2.21,-2.209,-2.1872,-2.1672,-2.1487,-2.1415,-2.2417,-2.4007,-2.4974,-2.5313,-2.5292,-2.5233,-2.5209,-2.518,-2.5044,-2.4921,-2.4794,-2.461,-2.4513,-2.4428,-2.4284,-2.4115,-2.3917,-2.3858,-2.3816,-2.3792,-2.3786,-2.3783,-2.3718,-2.3607,-2.3652,-2.3652,-2.3539,-2.3453,-2.3383,-2.3336,-2.3144,-2.302,-2.3077,-2.2868,-2.2712,-2.2712,-2.2497,-2.2231,-2.2073,-2.2152,-2.2152,-2.2073,-2.2106,-2.2094,-2.1915,-2.1556,-2.1325,-2.1262,-2.0511,-2.013,-2.0262,-1.9455,-1.9041,-1.9068,-1.8774,-1.85,-1.8305,-1.7988,-1.7585,-0.6474,-0.7497,-0.8286,-0.7636,-0.8128,0.0,-0.8908,-0.978,0.0,-1.1387,0.0,0.0,0.0,0.0,0.0,0.0,0.0,0.0,0.0,0.0,0.0,0.0,0.0,0.0,0.0,0.0,0.0,0.0,0.0,0.0,0.0,0.0,0.0,-2.0107,-2.0115,-2.018,-2.0293,-2.117,-2.2453,-2.4108,-2.3353,-2.3423,-2.418,-2.331,-2.342,-2.4252,-2.3383,-2.3011,-2.2947,-2.2128,-2.1325,-2.0589,-2.0512,-2.1526,-2.3188,-2.4794,-2.535,-2.5303,-2.5284,-2.5252,-2.5176,-2.5031,-2.4955,-2.4861,-2.4719,-2.4561,-2.4389,-2.4389,-2.4248,-2.4074,-2.3996,-2.3873,-2.3804,-2.3804,-2.3696,-2.3607,-2.3607,-2.3607,-2.3607,-2.3585,-2.3652,-2.3678,-2.3656,-2.3453,-2.3289,-2.336,-2.3126,-2.2944,-2.2816,-2.2712,-2.2552,-2.231,-2.2237,-2.2237,-2.2265,-2.2118,-2.2073,-2.2237,-2.1831,-2.1511,-2.1386,-2.1134,-2.0639,-1.9846,-2.0137,-1.9851,-1.9012,-1.939,-1.9472,-1.9176,-1.8936,-1.8408,-0.6418,-0.6941,-0.7356,-0.7234,-0.7908,0.0,0.0,-0.9717,-1.0654,0.0,0.0,0.0,0.0,0.0,0.0,0.0,0.0,0.0,0.0,0.0,0.0,0.0,0.0,0.0,0.0,0.0,0.0,0.0,0.0,0.0,0.0,0.0,0.0,-2.0038,-2.0079,-2.0107,-2.0144,-2.0573,-2.1381,-2.259,-2.3412,-2.3694,-2.3503,-2.3709,-2.4027,-2.4349,-2.3486,-2.3093,-2.3026,-2.2167,-2.1288,-2.0558,-2.103,-2.2224,-2.3775,-2.437,-2.4915,-2.5351,-2.5313,-2.5273,-2.5179,-2.5087,-2.5,-2.4874,-2.4783,-2.4679,-2.4599,-2.4599,-2.4444,-2.4266,-2.4095,-2.3955,-2.3852,-2.3825,-2.3761,-2.3696,-2.3607,-2.3652,-2.3718,-2.3674,-2.3718,-2.3743,-2.3743,-2.3634,-2.3567,-2.3589,-2.3407,-2.3241,-2.3193,-2.302,-2.2816,-2.2632,-2.2497,-2.2443,-2.2487,-2.2415,-2.2388,-2.2349,-2.189,-2.162,-2.1587,-2.1325,-2.0766,-1.9953,-2.0398,-2.0184,-1.9206,-1.9656,-1.9741,-1.9501,-1.913,-1.8697,-0.6577,-0.704,-0.7508,0.0,0.0,0.0,-0.8823,-0.9806,-1.0827,0.0,0.0,0.0,0.0,0.0,0.0,0.0,0.0,0.0,0.0,0.0,0.0,0.0,0.0,0.0,0.0,0.0,0.0,0.0,0.0,0.0,0.0,0.0,0.0,0.0,-2.0028,-2.0059,-2.0069,-2.0195,-2.0573,-2.1181,-2.2694,-2.3263,-2.3026,-2.3898,-2.4339,-2.4346,-2.3191,-2.2857,-2.3006,-2.1855,-2.1033,-2.0584,-2.1413,-2.2559,-2.3816,-2.4049,-2.4673,-2.5389,-2.5322,-2.5273,-2.5179,-2.5106,-2.5,-2.4921,-2.4832,-2.4742,-2.4714,-2.4732,-2.4596,-2.4444,-2.4266,-2.4096,-2.3958,-2.3915,-2.3891,-2.3828,-2.37,-2.3721,-2.3747,-2.3743,-2.3721,-2.3761,-2.3804,-2.3938,-2.4033,-2.3993,-2.4093,-2.4135,-2.4063,-2.3703,-2.3307,-2.2834,-2.2909,-2.2863,-2.2649,-2.2579,-2.2569,-2.2542,-2.2089,-2.1811,-2.1797,-2.1495,-2.1067,-2.0458,-2.0735,-2.0525,-1.9745,-2.0039,-1.999,-1.972,-1.9391,-1.904,-0.692,-0.7973,0.0,0.0,0.0,0.0,0.0,-1.0018,-1.1233,0.0,0.0,0.0,0.0,0.0,0.0,0.0,0.0,0.0,0.0,0.0,0.0,0.0,0.0,0.0,0.0,0.0,0.0,0.0,0.0,0.0,0.0,0.0,0.0,0.0,-1.996,-1.9996,-2.0001,-2.0133,-2.0211,-2.0211,-2.1086,-2.2016,-2.3021,-2.3897,-2.4341,-2.4296,-2.2558,-2.2298,-2.2956,-2.1211,-2.0504,-2.0585,-2.1454,-2.2247,-2.3005,-2.3874,-2.4698,-2.5389,-2.5322,-2.5262,-2.5176,-2.5031,-2.5,-2.4966,-2.4837,-2.4749,-2.4707,-2.4772,-2.4695,-2.4599,-2.4512,-2.4302,-2.4098,-2.4116,-2.4057,-2.3958,-2.3837,-2.3753,-2.3732,-2.3786,-2.3696,-2.3629,-2.3783,-2.4361,-2.4748,-2.4623,-2.5276,-2.5725,-2.5535,-2.4908,-2.4073,-2.2929,-2.3402,-2.3502,-2.2754,-2.2596,-2.2596,-2.279,-2.2483,-2.222,-2.2027,-2.1811,-2.1617,-2.1401,-2.1214,-2.0974,-2.0677,-2.0577,-2.0323,-2.0005,-1.9848,-1.9472,-0.7289,0.0,0.0,0.0,0.0,0.0,0.0,0.0,0.0,0.0,0.0,0.0,0.0,0.0,0.0,0.0,0.0,0.0,0.0,0.0,0.0,0.0,0.0,0.0,0.0,0.0,0.0,0.0,0.0,0.0,0.0,0.0,0.0,0.0,-1.9889,-1.9952,-1.9996,-2.0098,-2.0153,-2.0205,-2.1124,-2.1738,-2.2119,-2.2932,-2.3718,-2.4296,-2.2555,-2.2298,-2.2956,-2.1211,-2.05,-2.0538,-2.0788,-2.1745,-2.3001,-2.3205,-2.4173,-2.5397,-2.5322,-2.5262,-2.5195,-2.5094,-2.5076,-2.5057,-2.4907,-2.4851,-2.4827,-2.4813,-2.4772,-2.4729,-2.4666,-2.4566,-2.4409,-2.4229,-2.4134,-2.4056,-2.3961,-2.3919,-2.3917,-2.3994,-2.3831,-2.3667,-2.371,-2.3831,-2.4028,-2.4466,-2.4775,-2.4917,-2.4792,-2.498,-2.4769,-2.3816,-2.4316,-2.4406,-2.3611,-2.3515,-2.3317,-2.2903,-2.2799,-2.2554,-2.2181,-2.1982,-2.1562,-2.0862,-2.1294,-2.1097,-2.0194,-2.0606,-2.0579,-2.02,-1.9925,-1.9588,-0.7629,0.0,0.0,0.0,0.0,0.0,0.0,0.0,0.0,0.0,0.0,0.0,0.0,0.0,0.0,0.0,0.0,0.0,0.0,0.0,0.0,0.0,0.0,0.0,0.0,0.0,0.0,0.0,0.0,0.0,0.0,0.0,0.0,0.0,-1.9877,-1.9934,-2.0007,-2.0058,-2.0127,-2.0218,-2.0776,-2.1085,-2.121,-2.207,-2.2974,-2.3832,-2.2776,-2.2242,-2.2021,-2.0976,-2.0518,-2.0492,-2.0494,-2.1526,-2.2998,-2.2921,-2.3949,-2.5395,-2.5322,-2.5252,-2.5198,-2.5118,-2.5107,-2.507,-2.498,-2.4893,-2.4856,-2.4808,-2.4787,-2.4745,-2.4717,-2.4631,-2.453,-2.4356,-2.4284,-2.4229,-2.4135,-2.4096,-2.4037,-2.4094,-2.3896,-2.3735,-2.3735,-2.3871,-2.423,-2.4917,-2.5549,-2.5825,-2.5506,-2.5967,-2.5883,-2.4716,-2.5153,-2.5224,-2.4434,-2.4365,-2.4064,-2.3354,-2.3345,-2.3075,-2.2381,-2.2271,-2.1883,-2.1204,-2.1595,-2.1434,-2.0661,-2.0957,-2.0942,-2.0662,-2.0258,-1.9909,0.0,0.0,0.0,0.0,0.0,0.0,0.0,0.0,0.0,0.0,0.0,0.0,0.0,0.0,0.0,0.0,0.0,0.0,0.0,0.0,0.0,0.0,0.0,0.0,0.0,0.0,0.0,0.0,0.0,0.0,0.0,0.0,0.0,-1.9903,-1.9908,-1.9934,-1.9981,-2.0078,-2.0136,0.0,-2.0209,-2.0281,-2.0435,-2.1284,-2.2103,-2.2887,-2.2966,-2.2076,-2.0599,-2.0602,-2.0568,-2.0516,-2.049,-2.1472,-2.2896,-2.2901,-2.3932,-2.5277,-2.5303,-2.5262,-2.5201,-2.513,-2.5101,-2.5101,-2.5025,-2.4926,-2.4827,-2.4794,-2.4757,-2.4701,-2.4682,-2.4599,-2.4495,-2.4495,-2.4498,-2.4465,-2.4339,-2.421,-2.4135,-2.4113,-2.3937,-2.3816,-2.3795,-2.424,-2.4873,-2.5676,-2.7068,-2.7731,-2.6987,-2.736,-2.711,-2.5555,-2.5936,-2.5987,-2.5248,-2.5196,-2.485,-2.4053,-2.4108,-2.3725,-2.2743,-2.2603,-2.2398,-2.2124,-2.1998,-2.1886,-2.1708,-2.154,-2.1355,-2.1198,-2.0778,-2.0361,0.0,0.0,0.0,0.0,0.0,0.0,0.0,0.0,0.0,0.0,0.0,0.0,0.0,0.0,0.0,0.0,0.0,0.0,0.0,0.0,0.0,0.0,0.0,0.0,0.0,0.0,0.0,0.0,0.0,0.0,0.0,0.0,0.0,-1.9884,-1.9908,-1.9877,-1.9849,-2.0058,-2.0136,0.0,-2.0254,-2.036,-2.041,-2.0609,-2.0858,-2.1173,-2.1866,-2.1562,-2.0601,-2.0596,-2.059,-2.0579,-2.0522,-2.113,-2.2131,-2.274,-2.3618,-2.4554,-2.5158,-2.5321,-2.5283,-2.5261,-2.5225,-2.5175,-2.5095,-2.5018,-2.4936,-2.4817,-2.4757,-2.4695,-2.458,-2.4513,-2.4481,-2.4429,-2.4465,-2.45,-2.4465,-2.4339,-2.4247,-2.4191,-2.4018,-2.3858,-2.3816,-2.3815,-2.4298,-2.566,-2.7059,-2.7664,-2.6906,-2.7274,-2.725,-2.6185,-2.6628,-2.6709,-2.5967,-2.5781,-2.5455,-2.4798,-2.4689,-2.4316,-2.3581,-2.3022,-2.2605,-2.2332,-2.236,-2.2203,-2.1869,-2.1794,-2.1645,-2.1355,-2.1214,-2.0974,0.0,0.0,0.0,0.0,0.0,0.0,0.0,0.0,0.0,0.0,0.0,0.0,0.0,0.0,0.0,0.0,0.0,0.0,0.0,0.0,0.0,0.0,0.0,0.0,0.0,0.0,0.0,0.0,0.0,0.0,0.0,-1.9614,-1.9694,-1.9806,-1.9908,-1.9941,-1.9941,-2.0088,-2.0155,-2.0153,-2.0296,-2.0366,-2.042,-2.0869,-2.0893,-2.0653,-2.1522,-2.1405,-2.0593,-2.0593,-2.0588,-2.0555,-2.0511,-2.1026,-2.1905,-2.2703,-2.3531,-2.4361,-2.5132,-2.5376,-2.5332,-2.5282,-2.5206,-2.5144,-2.5057,-2.4977,-2.4889,-2.4787,-2.4692,-2.4629,-2.4513,-2.4481,-2.4447,-2.4358,-2.4375,-2.4393,-2.4393,-2.4321,-2.4247,-2.4209,-2.4095,-2.3958,-2.3917,-2.4451,-2.4987,-2.5285,-2.6881,-2.7731,-2.6823,-2.7204,-2.7322,-2.6784,-2.6971,-2.6963,-2.657,-2.6475,-2.6102,-2.5394,-2.5282,-2.491,-2.4159,-2.3504,-2.2956,-2.2477,-2.2487,-2.2332,-2.2049,-2.1986,-2.1853,-2.1615,-2.1448,-2.123,0.0,0.0,0.0,0.0,0.0,0.0,0.0,0.0,0.0,0.0,0.0,0.0,0.0,0.0,0.0,0.0,0.0,0.0,0.0,0.0,0.0,0.0,0.0,0.0,0.0,0.0,0.0,0.0,0.0,0.0,-1.9305,-1.9541,-1.9707,-1.972,-1.99,-2.0017,-2.0068,-2.0108,-2.0162,-2.0241,-2.0296,-2.0354,-2.042,-2.1218,-2.1208,-2.0614,-2.1367,-2.1264,-2.0593,-2.0593,-2.0566,-2.0514,-2.0497,-2.0935,-2.1694,-2.2654,-2.3456,-2.4211,-2.5127,-2.5421,-2.5378,-2.5262,-2.5164,-2.5101,-2.5018,-2.4917,-2.4827,-2.4738,-2.4676,-2.4631,-2.4549,-2.4464,-2.4393,-2.4339,-2.4303,-2.4266,-2.4284,-2.4247,-2.421,-2.419,-2.4132,-2.4074,-2.4016,-2.5281,-2.6005,-2.5123,-2.6816,-2.7877,-2.6989,-2.7262,-2.7465,-2.7276,-2.7166,-2.707,-2.704,-2.7007,-2.6686,-2.5942,-2.5892,-2.5488,-2.4683,-2.4194,-2.3488,-2.2664,-2.2556,-2.2422,-2.2214,-2.2089,-2.1986,-2.1882,-2.1631,-2.1417,0.0,0.0,0.0,0.0,0.0,0.0,0.0,0.0,0.0,0.0,0.0,0.0,0.0,0.0,0.0,0.0,0.0,0.0,0.0,0.0,0.0,0.0,0.0,0.0,0.0,0.0,0.0,0.0,0.0,0.0,-1.9295,-1.9499,-1.9688,-1.987,-1.9969,-1.999,-1.9926,-2.0097,-2.0142,-2.0041,-2.0287,-2.0396,-2.042,-2.0597,-2.06,-2.0516,-2.0702,-2.0701,-2.0593,-2.0605,-2.0584,-2.0584,-2.0514,-2.0564,-2.0851,-2.2419,-2.3077,-2.3392,-2.5014,-2.5488,-2.5387,-2.5312,-2.5233,-2.5168,-2.5038,-2.4999,-2.494,-2.4817,-2.4787,-2.4768,-2.4692,-2.4545,-2.4408,-2.4391,-2.4303,-2.4209,-2.421,-2.421,-2.4173,-2.4133,-2.4074,-2.4016,-2.4074,-2.5263,-2.6191,-2.6186,-2.7327,-2.8146,-2.8004,-2.7754,-2.7557,-2.7465,-2.723,-2.7117,-2.7166,-2.7055,-2.694,-2.674,-2.6639,-2.6184,-2.5328,-2.5194,-2.4551,-2.3304,-2.2756,-2.2432,-2.2282,-2.2225,-2.2077,-2.1899,-2.1853,-2.1751,0.0,0.0,0.0,0.0,0.0,0.0,0.0,0.0,0.0,0.0,0.0,0.0,0.0,0.0,0.0,0.0,0.0,0.0,0.0,0.0,0.0,0.0,0.0,0.0,0.0,0.0,0.0,0.0,0.0,-1.9353,-1.9361,-1.9545,-1.9701,-1.9832,-1.9981,-2.006,-2.0078,-2.0161,-2.0192,-2.0164,-2.0288,-2.0365,-2.0394,-2.0434,-2.0457,-2.0492,-2.0537,-2.0546,-2.0547,-2.0576,-2.0586,-2.054,-2.0511,-2.05,-2.0705,-2.2382,-2.2998,-2.3234,-2.4943,-2.5492,-2.5378,-2.5274,-2.5222,-2.5172,-2.5032,-2.4993,-2.4966,-2.4889,-2.4861,-2.4842,-2.4738,-2.461,-2.4491,-2.4459,-2.4375,-2.4321,-2.4321,-2.421,-2.4114,-2.4016,-2.3958,-2.3937,-2.3996,-2.492,-2.5455,-2.4962,-2.6501,-2.7476,-2.6846,-2.7363,-2.7766,-2.7587,-2.7434,-2.7324,-2.7324,-2.7135,-2.7055,-2.7023,-2.6925,-2.6723,-2.6317,-2.5926,-2.521,-2.4109,-2.3362,-2.2745,-2.2225,-2.2197,-2.2123,-2.1969,-2.1928,-2.1869,0.0,0.0,0.0,0.0,0.0,0.0,0.0,0.0,0.0,0.0,0.0,0.0,0.0,0.0,0.0,0.0,0.0,0.0,0.0,0.0,0.0,0.0,0.0,0.0,0.0,0.0,0.0,0.0,0.0,-1.9088,-1.9095,-1.93,-1.9449,-1.9522,-1.9916,-2.0155,-2.0201,-2.0222,-2.025,-2.0301,-2.0302,-2.0347,-2.0396,-2.0395,-2.0448,-2.0508,-2.0501,-2.0519,-2.0525,-2.0583,-2.057,-2.0516,-2.0742,-2.0825,-2.1041,-2.2712,-2.3326,-2.3508,-2.4977,-2.5432,-2.536,-2.5264,-2.5212,-2.5187,-2.5069,-2.5044,-2.5032,-2.494,-2.4945,-2.4931,-2.4783,-2.4689,-2.4626,-2.4545,-2.4464,-2.4394,-2.4358,-2.4228,-2.4074,-2.3917,-2.3876,-2.3876,-2.3896,-2.4608,-2.4893,-2.4172,-2.5737,-2.668,-2.5814,-2.6694,-2.7328,-2.7099,-2.7138,-2.717,-2.7109,-2.7158,-2.7166,-2.7135,-2.7055,-2.6922,-2.6717,-2.6202,-2.5535,-2.4658,-2.3884,-2.3067,-2.2242,-2.2214,-2.2152,-2.2056,-2.1969,-2.1928,0.0,0.0,0.0,0.0,0.0,0.0,0.0,0.0,0.0,0.0,0.0,0.0,0.0,0.0,0.0,0.0,0.0,0.0,0.0,0.0,0.0,0.0,0.0,0.0,0.0,0.0,0.0,0.0,0.0,-1.8264,-1.8259,-1.8507,-1.8682,-1.8754,-1.9678,-2.0201,-2.0188,-2.0254,-2.0306,-2.0308,-2.0308,-2.0334,-2.0394,-2.039,-2.0444,-2.0497,-2.0497,-2.0542,-2.0605,-2.0602,-2.0552,-2.0575,-2.1405,-2.1737,-2.1939,-2.3606,-2.4187,-2.4268,-2.5108,-2.5359,-2.5313,-2.5303,-2.5253,-2.5201,-2.5184,-2.5184,-2.5153,-2.5032,-2.5025,-2.5057,-2.4912,-2.4798,-2.4676,-2.4596,-2.4498,-2.4358,-2.4228,-2.4151,-2.4074,-2.3917,-2.3852,-2.3828,-2.3876,-2.452,-2.5023,-2.5038,-2.5674,-2.6123,-2.5991,-2.5882,-2.5755,-2.5614,-2.6068,-2.637,-2.6341,-2.6987,-2.7341,-2.7213,-2.7117,-2.6745,-2.5994,-2.58,-2.5425,-2.479,-2.4053,-2.3221,-2.2282,-2.2242,-2.2197,-2.2192,-2.2073,-2.1982,0.0,0.0,0.0,0.0,0.0,0.0,0.0,0.0,0.0,0.0,0.0,0.0,0.0,0.0,0.0,0.0,0.0,0.0,0.0,0.0,0.0,0.0,0.0,0.0,0.0,0.0,0.0,0.0,0.0,0.0,-1.7553,-1.7737,-1.7871,-1.8,-1.8882,-1.9641,-2.0254,-2.0296,-2.0325,-2.0354,-2.0354,-2.0385,-2.039,-2.0439,-2.0482,-2.0508,-2.0503,-2.0504,-2.0534,-2.0585,-2.0884,-2.1379,-2.1682,-2.2111,-2.2717,-2.3817,-2.4193,-2.427,-2.5114,-2.5378,-2.5351,-2.5253,-2.5262,-2.5261,-2.5214,-2.518,-2.5137,-2.5088,-2.5051,-2.5012,-2.4977,-2.4856,-2.4738,-2.4561,-2.4497,-2.441,-2.4229,-2.4171,-2.4151,-2.4094,-2.4014,-2.3953,-2.3955,-2.4109,-2.4248,-2.4251,-2.4918,-2.5357,-2.5306,-2.5637,-2.6058,-2.648,-2.6623,-2.6884,-2.7366,-2.7502,-2.7569,-2.7448,-2.6996,-2.6584,-2.6306,-2.5773,-2.5177,-2.4413,-2.4162,-2.3749,-2.3187,-2.2737,-2.2487,-2.2388,-2.2304,-2.2248,-0.6874,0.0,0.0,0.0,0.0,0.0,0.0,0.0,0.0,0.0,0.0,0.0,0.0,0.0,0.0,0.0,0.0,0.0,0.0,0.0,0.0,0.0,0.0,0.0,0.0,0.0,0.0,0.0,0.0,0.0,-1.6817,-1.6911,-1.716,-1.7584,-1.8447,-1.9204,-1.9861,-2.0157,-2.032,-2.0392,-2.0398,-2.0402,-2.0439,-2.0478,-2.05,-2.0506,-2.0519,-2.0536,-2.0531,-2.0586,-2.1063,-2.1828,-2.2114,-2.2734,-2.3495,-2.4011,-2.436,-2.4609,-2.4874,-2.5166,-2.5389,-2.5293,-2.5273,-2.5301,-2.5225,-2.5149,-2.5101,-2.5063,-2.5025,-2.4972,-2.4936,-2.4832,-2.4689,-2.4545,-2.4495,-2.4462,-2.4303,-2.4247,-2.419,-2.417,-2.4074,-2.3976,-2.3937,-2.3855,-2.3792,-2.3771,-2.4223,-2.4545,-2.4496,-2.4923,-2.5416,-2.5882,-2.6061,-2.6331,-2.6792,-2.7137,-2.7332,-2.7291,-2.6807,-2.6433,-2.6264,-2.5464,-2.4769,-2.4304,-2.404,-2.3894,-2.387,-2.3413,-2.2953,-2.2623,-2.2798,-2.2688,0.0,0.0,0.0,0.0,0.0,0.0,0.0,0.0,0.0,0.0,0.0,0.0,0.0,0.0,0.0,0.0,0.0,0.0,0.0,0.0,0.0,0.0,0.0,0.0,0.0,0.0,0.0,0.0,0.0,-1.5845,-1.6053,-1.6064,-1.6525,-1.7524,-1.8409,-1.8916,-1.9007,-1.9869,-2.0347,-2.039,-2.0408,-2.0448,-2.0507,-2.0495,-2.0496,-2.0506,-2.0567,-2.0591,-2.0605,-2.0605,-2.1089,-2.1925,-2.2773,-2.3587,-2.4282,-2.4236,-2.4729,-2.5329,-2.4419,-2.4664,-2.5398,-2.5398,-2.5351,-2.5282,-2.5228,-2.516,-2.5088,-2.5018,-2.4964,-2.4889,-2.4802,-2.4695,-2.458,-2.4512,-2.4498,-2.4482,-2.4412,-2.4284,-2.4173,-2.4113,-2.3996,-2.3896,-2.3816,-2.381,-2.3783,-2.3721,-2.37,-2.37,-2.37,-2.37,-2.3696,-2.3643,-2.4225,-2.4591,-2.4541,-2.5781,-2.6588,-2.6654,-2.656,-2.6264,-2.5775,-2.4759,-2.4277,-2.446,-2.3684,-2.3594,-2.4182,-2.413,-2.3685,-2.2868,-2.3559,-2.3316,-0.6977,0.0,0.0,0.0,0.0,0.0,0.0,0.0,0.0,0.0,0.0,0.0,0.0,0.0,0.0,0.0,0.0,0.0,0.0,0.0,0.0,0.0,0.0,0.0,0.0,0.0,0.0,0.0,-1.4787,-1.4884,-1.5074,-1.5277,-1.5796,-1.6704,-1.7579,-1.8377,-1.9059,-1.9935,-2.041,-2.0473,-2.0478,-2.0473,-2.05,-2.0492,-2.0506,-2.0497,-2.0561,-2.0605,-2.0605,-2.0603,-2.1455,-2.2756,-2.3013,-2.3618,-2.4358,-2.4296,-2.4387,-2.4529,-2.4207,-2.4664,-2.5389,-2.5292,-2.5241,-2.522,-2.5156,-2.5082,-2.5018,-2.501,-2.4922,-2.4821,-2.4764,-2.4647,-2.4582,-2.4464,-2.443,-2.4412,-2.4284,-2.4228,-2.4209,-2.4247,-2.4152,-2.4056,-2.4078,-2.3935,-2.3807,-2.3852,-2.3747,-2.37,-2.37,-2.37,-2.3911,-2.4413,-2.4617,-2.4926,-2.5336,-2.5676,-2.587,-2.5897,-2.5932,-2.5631,-2.496,-2.4662,-2.4247,-2.3703,-2.3395,-2.3347,-2.3559,-2.4073,-2.4121,-2.3728,-2.3819,-2.3288,0.0,0.0,0.0,0.0,0.0,0.0,-0.7272,-0.7643,0.0,0.0,0.0,0.0,0.0,0.0,0.0,0.0,0.0,0.0,0.0,0.0,0.0,0.0,0.0,0.0,0.0,0.0,0.0,-1.4301,-1.4399,-1.4541,-1.4766,-1.496,-1.5295,-1.5836,-1.6695,-1.7613,-1.8542,-1.9424,-2.0078,-2.0497,-2.0497,-2.0506,-2.0508,-2.0499,-2.0506,-2.0494,-2.0575,-2.0584,-2.0566,-2.0581,-2.1393,-2.2602,-2.2593,-2.3107,-2.3813,-2.3415,-2.3673,-2.4186,-2.3755,-2.4381,-2.5369,-2.5273,-2.5222,-2.519,-2.5156,-2.5057,-2.4959,-2.4964,-2.4861,-2.4742,-2.4682,-2.4631,-2.4566,-2.443,-2.443,-2.4393,-2.4247,-2.4229,-2.4284,-2.4247,-2.4152,-2.4056,-2.4037,-2.3955,-2.3891,-2.3855,-2.3792,-2.3747,-2.3685,-2.3678,-2.3809,-2.4206,-2.4236,-2.4367,-2.4697,-2.4984,-2.5154,-2.523,-2.5222,-2.5034,-2.4694,-2.4308,-2.3892,-2.3448,-2.3336,-2.3424,-2.3735,-2.4194,-2.4329,-2.4174,-2.363,-2.3007,0.0,0.0,0.0,0.0,0.0,0.0,-0.7458,-0.7362,-0.7308,0.0,0.0,0.0,0.0,0.0,0.0,0.0,0.0,0.0,0.0,0.0,0.0,0.0,0.0,0.0,0.0,-1.3949,-1.4046,-1.4211,-1.4411,-1.4654,-1.4886,-1.4971,-1.5045,-1.5095,-1.5952,-1.6817,-1.765,-1.8515,-1.9414,-2.0346,-2.0346,-2.0394,-2.0484,-2.0499,-2.0506,-2.0506,-2.0575,-2.0564,-2.0527,-2.0581,-2.11,-2.1899,-2.1899,-2.2398,-2.3004,-2.2234,-2.2944,-2.4172,-2.3347,-2.4072,-2.5385,-2.5332,-2.5253,-2.5201,-2.5184,-2.5057,-2.4902,-2.4898,-2.4798,-2.4692,-2.4631,-2.4599,-2.4549,-2.443,-2.443,-2.4429,-2.4247,-2.4303,-2.434,-2.4209,-2.4094,-2.3996,-2.3858,-2.3917,-2.3937,-2.3855,-2.3816,-2.3795,-2.3735,-2.3682,-2.3629,-2.3544,-2.3499,-2.3453,-2.3453,-2.4046,-2.4479,-2.4575,-2.4568,-2.4575,-2.468,-2.3945,-2.3537,-2.3494,-2.3407,-2.3625,-2.4155,-2.4294,-2.4365,-2.4357,-2.338,-2.285,0.0,0.0,0.0,0.0,0.0,0.0,-0.7221,-0.7123,-0.7275,0.0,0.0,0.0,0.0,0.0,0.0,0.0,0.0,0.0,0.0,0.0,0.0,0.0,0.0,0.0,0.0,-1.3877,-1.4028,-1.4344,-1.4645,-1.4823,-1.4813,-1.4992,-1.5094,-1.5095,-1.5989,-1.6593,-1.6832,-1.7639,-1.8507,-1.9361,-1.9362,-1.973,-2.0428,-2.0483,-2.05,-2.0503,-2.0578,-2.0584,-2.0585,-2.0581,-2.11,-2.1899,-2.1839,-2.234,-2.3071,-2.2916,-2.3465,-2.4269,-2.4025,-2.4583,-2.5385,-2.5313,-2.5292,-2.5261,-2.5149,-2.5038,-2.4955,-2.4851,-2.4798,-2.4742,-2.4631,-2.4549,-2.45,-2.4358,-2.4339,-2.4321,-2.4228,-2.4228,-2.4209,-2.4151,-2.4151,-2.4151,-2.4132,-2.3958,-2.3896,-2.4016,-2.3896,-2.3837,-2.3917,-2.3935,-2.3894,-2.3813,-2.3873,-2.3873,-2.3813,-2.3876,-2.3945,-2.3967,-2.4505,-2.4554,-2.3952,-2.4311,-2.4206,-2.3494,-2.3336,-2.3239,-2.3272,-2.3859,-2.4435,-2.491,-2.4135,-2.3653,0.0,0.0,0.0,-0.7029,0.0,0.0,0.0,-0.7146,-0.7207,0.0,0.0,0.0,0.0,0.0,0.0,0.0,0.0,0.0,0.0,0.0,0.0,0.0,0.0,0.0,0.0,-1.345,-1.3596,-1.4437,-1.4624,-1.4737,-1.485,-1.495,-1.5028,-1.5095,-1.5561,-1.6055,-1.6585,-1.6935,-1.7559,-1.8464,-1.8825,-1.9278,-1.9822,-2.0258,-2.0476,-2.0506,-2.055,-2.0566,-2.0603,-2.0604,-2.0869,-2.1251,-2.1212,-2.1713,-2.2408,-2.1961,-2.287,-2.4233,-2.3728,-2.4385,-2.5437,-2.537,-2.5322,-2.5292,-2.5228,-2.5118,-2.4981,-2.4865,-2.4798,-2.4742,-2.4682,-2.4582,-2.4462,-2.4375,-2.4339,-2.4321,-2.4228,-2.4228,-2.4228,-2.417,-2.4171,-2.419,-2.4113,-2.4036,-2.4182,-2.4664,-2.433,-2.4162,-2.4584,-2.4233,-2.3917,-2.3876,-2.3876,-2.3896,-2.3837,-2.3816,-2.3816,-2.3855,-2.4172,-2.4183,-2.3786,-2.41,-2.4069,-2.3557,-2.3336,-2.3411,-2.3749,-2.3648,-2.3763,-2.4086,-2.3694,-2.3388,0.0,0.0,0.0,0.0,0.0,-0.7266,0.0,0.0,0.0,0.0,0.0,0.0,0.0,0.0,0.0,0.0,0.0,0.0,0.0,0.0,0.0,0.0,0.0,0.0,0.0,-1.2683,-1.2918,-1.4227,-1.4298,-1.4373,-1.4605,-1.4822,-1.4992,-1.5101,-1.5114,-1.549,-1.63,-1.6182,-1.6689,-1.7774,-1.8378,-1.893,-1.9425,-2.0089,-2.0434,-2.0474,-2.0489,-2.0523,-2.0578,-2.0585,-2.0582,-2.0603,-2.0584,-2.1087,-2.1703,-2.101,-2.2259,-2.4214,-2.3442,-2.4187,-2.5495,-2.5415,-2.5351,-2.5283,-2.5282,-2.5164,-2.5013,-2.494,-2.4827,-2.4723,-2.4714,-2.458,-2.4461,-2.4411,-2.4394,-2.4339,-2.4229,-2.4247,-2.4303,-2.4392,-2.4411,-2.4373,-2.4253,-2.4331,-2.4684,-2.5472,-2.4904,-2.4629,-2.5232,-2.4511,-2.3958,-2.3899,-2.3899,-2.3899,-2.3899,-2.3899,-2.3899,-2.3955,-2.3896,-2.3837,-2.3837,-2.3831,-2.3765,-2.3634,-2.3595,-2.3797,-2.4293,-2.365,-2.3393,-2.3508,-2.3142,-2.2963,0.0,0.0,0.0,0.0,-0.6742,0.0,0.0,0.0,0.0,0.0,0.0,0.0,0.0,0.0,0.0,0.0,0.0,0.0,0.0,0.0,0.0,0.0,0.0,0.0,0.0,0.0,-1.205,-1.3277,-1.3407,-1.3477,-1.3577,-1.454,-1.5073,-1.5101,-1.5165,-1.5203,-1.5267,-1.519,-1.5998,-1.7616,-1.7764,-1.8652,-2.0178,-2.0326,-2.041,-2.041,-2.0418,-2.0451,-2.0519,-2.0513,-2.0547,-2.0591,-2.0523,-2.1043,-2.1798,-2.1692,-2.2808,-2.4354,-2.4204,-2.4741,-2.5479,-2.5426,-2.5303,-2.5212,-2.5209,-2.5141,-2.5069,-2.5006,-2.4926,-2.4842,-2.4723,-2.4561,-2.4408,-2.4393,-2.4321,-2.4229,-2.419,-2.4209,-2.4393,-2.5047,-2.5173,-2.5152,-2.5072,-2.5072,-2.5345,-2.6166,-2.5649,-2.5216,-2.5366,-2.4726,-2.4247,-2.4247,-2.4247,-2.4247,-2.4247,-2.4247,-2.421,-2.417,-2.4054,-2.3976,-2.3976,-2.3917,-2.3855,-2.3774,-2.428,-2.4212,-2.3525,-2.3957,-2.4436,-2.4913,-2.3545,-2.3189,0.0,0.0,0.0,0.0,0.0,0.0,-0.6607,0.0,-0.6757,0.0,0.0,0.0,0.0,0.0,0.0,0.0,0.0,0.0,0.0,0.0,0.0,0.0,0.0,0.0,0.0,0.0,0.0,0.0,0.0,-1.2732,-1.3309,-1.3904,-1.4501,-1.508,-1.5133,-1.5133,-1.5095,-1.5464,-1.6031,-1.6804,-1.7801,-1.871,-1.9504,-2.0089,-2.0365,-2.0391,-2.0395,-2.0433,-2.0496,-2.0494,-2.0518,-2.0547,-2.0505,-2.1021,-2.174,-2.1237,-2.2142,-2.3556,-2.2984,-2.3673,-2.4859,-2.5266,-2.5351,-2.5241,-2.5206,-2.5156,-2.5095,-2.507,-2.4959,-2.4842,-2.4764,-2.4676,-2.4564,-2.4564,-2.4497,-2.441,-2.4321,-2.4654,-2.5001,-2.5207,-2.526,-2.5424,-2.5838,-2.5889,-2.6162,-2.6986,-2.6063,-2.5468,-2.5965,-2.498,-2.4247,-2.4247,-2.4229,-2.4229,-2.4229,-2.4229,-2.4229,-2.419,-2.4074,-2.3996,-2.3996,-2.3955,-2.3896,-2.3917,-2.4097,-2.4177,-2.4159,-2.3934,-2.4073,-2.453,-2.3424,-2.2998,-0.6934,0.0,0.0,0.0,0.0,0.0,0.0,0.0,0.0,0.0,0.0,0.0,0.0,0.0,0.0,0.0,0.0,0.0,0.0,0.0,0.0,0.0,0.0,0.0,0.0,0.0,0.0,-1.117,-1.1356,-1.1773,-1.25,-1.3195,-1.3917,-1.4668,-1.4952,-1.5087,-1.5068,-1.5557,-1.6035,-1.6544,-1.7558,-1.8459,-1.9265,-1.9735,-2.0095,-2.0374,-2.0363,-2.0413,-2.0459,-2.0464,-2.0477,-2.0495,-2.0506,-2.0897,-2.1366,-2.074,-2.1445,-2.2641,-2.1954,-2.2852,-2.4393,-2.5127,-2.5322,-2.5271,-2.5214,-2.5144,-2.5101,-2.5101,-2.4972,-2.4842,-2.4808,-2.4757,-2.4698,-2.4676,-2.4613,-2.4512,-2.4442,-2.5022,-2.5502,-2.5303,-2.5484,-2.5853,-2.633,-2.6217,-2.6344,-2.7128,-2.6133,-2.55,-2.6066,-2.4994,-2.4209,-2.4192,-2.4192,-2.4192,-2.4192,-2.4192,-2.4191,-2.417,-2.4074,-2.4036,-2.4037,-2.4016,-2.4016,-2.4037,-2.4114,-2.4234,-2.4436,-2.3998,-2.3784,-2.3789,-2.3206,-2.2842,0.0,0.0,0.0,-0.6241,0.0,0.0,0.0,0.0,-0.6401,0.0,0.0,0.0,0.0,0.0,0.0,0.0,0.0,0.0,0.0,0.0,0.0,0.0,0.0,0.0,0.0,0.0,0.0,-1.0053,-1.0267,-1.0422,-1.0581,-1.2438,-1.3545,-1.3656,-1.4589,-1.5068,-1.5006,-1.5014,-1.5822,-1.735,-1.6692,-1.7693,-2.0124,-1.938,-1.9508,-2.03,-2.0304,-2.0339,-2.0392,-2.0405,-2.0448,-2.0506,-2.0501,-2.0526,-2.0546,-2.051,-2.1068,-2.1846,-2.1803,-2.2854,-2.4316,-2.5063,-2.5252,-2.5201,-2.5203,-2.5144,-2.5101,-2.5101,-2.505,-2.4964,-2.4842,-2.4753,-2.4673,-2.4607,-2.4491,-2.4407,-2.4476,-2.5131,-2.5634,-2.5425,-2.6068,-2.6599,-2.6443,-2.5743,-2.5506,-2.6241,-2.5746,-2.5278,-2.5254,-2.4627,-2.4192,-2.4192,-2.4192,-2.4192,-2.4192,-2.4192,-2.4154,-2.4113,-2.4094,-2.4133,-2.4192,-2.419,-2.419,-2.4192,-2.4699,-2.4563,-2.3736,-2.4236,-2.3957,-2.3012,-2.2995,-2.2893,0.0,0.0,-0.633,-0.607,0.0,0.0,0.0,0.0,0.0,0.0,0.0,0.0,0.0,0.0,0.0,0.0,0.0,0.0,0.0,0.0,0.0,0.0,0.0,0.0,0.0,0.0,0.0,-0.8936,-0.9148,-0.9566,0.0,-1.1556,-1.262,-1.3434,-1.4302,-1.4844,-1.4998,-1.5529,-1.6053,-1.6536,-1.6866,-1.7822,-1.9275,-1.9081,-1.9473,-2.0296,-2.0294,-2.0314,-2.0341,-2.0385,-2.0437,-2.0494,-2.0497,-2.0498,-2.0508,-2.0495,-2.0689,-2.1094,-2.2167,-2.323,-2.4273,-2.5053,-2.5241,-2.5195,-2.5191,-2.5144,-2.5101,-2.5101,-2.505,-2.4964,-2.4842,-2.4783,-2.4757,-2.4734,-2.4704,-2.4654,-2.4639,-2.5246,-2.5759,-2.556,-2.5801,-2.5967,-2.5768,-2.5069,-2.4935,-2.6113,-2.6118,-2.5776,-2.5251,-2.5024,-2.4739,-2.4247,-2.4192,-2.421,-2.419,-2.4114,-2.4056,-2.4054,-2.3996,-2.3978,-2.3998,-2.3998,-2.4016,-2.4075,-2.4169,-2.4021,-2.3616,-2.383,-2.3626,-2.3126,-2.3193,-2.302,-0.6794,-0.6573,0.0,-0.6067,-0.6209,0.0,-0.6188,0.0,0.0,0.0,0.0,0.0,0.0,0.0,0.0,0.0,0.0,0.0,0.0,0.0,0.0,0.0,0.0,0.0,0.0,0.0,-0.8102,-0.8374,-0.8636,-0.9061,0.0,0.0,-1.2097,-1.2836,-1.409,-1.4808,-1.4955,-1.5502,-1.5901,-1.6149,-1.6439,-1.7212,-1.8387,-1.8494,-1.9018,-1.9853,-2.0173,-2.0308,-2.0334,-2.0369,-2.0434,-2.0508,-2.049,-2.0501,-2.0523,-2.0505,-2.0692,-2.1146,-2.2474,-2.3468,-2.4273,-2.5081,-2.5262,-2.5195,-2.5203,-2.5144,-2.5101,-2.5101,-2.5031,-2.495,-2.4832,-2.4802,-2.4787,-2.4768,-2.4783,-2.4798,-2.4746,-2.5393,-2.5836,-2.5368,-2.5554,-2.5612,-2.5153,-2.4617,-2.4633,-2.5721,-2.5641,-2.539,-2.5215,-2.5043,-2.4739,-2.4247,-2.4192,-2.421,-2.419,-2.4074,-2.3996,-2.3996,-2.3915,-2.3894,-2.3937,-2.3896,-2.3917,-2.3996,-2.3873,-2.375,-2.3664,-2.3611,-2.3517,-2.3342,-2.336,-2.3175]}]]